/BCO-DMO/OA_Stress_in_Mya_arenaria/cruise_underway --date eq 20110616-- Level 1

      Directory  DocumentationDownload and Other Operations...

        Level 0 - At last level -       Flat list

# Underway Carbon Dioxide
# PI: Mark Green (St. Joseph's College of Maine)
# Co-PI: Joe Salisbury (UNHrs: Joe Salisbura, Doug rs: Joe Salisbura, Doug Vandemark, Ru Morrison, Chris Hunt
# ContersioShawn Shellito (UNH)
# Version 26 February 2015
# 
#  See headeeers from original data files for processing dates and temperature offsets.
=========================
date      month  day  year  day_of_year  
-------------------------
20110616  06     16   2011  167          
=========================
time        secDay  lat      lon       heading  speed  temp       sal        pressure_atm  xCO2_w        fCO2_w        xCO2_a        fCO2_a        air_temp      ISO_DateTime_UTC  
-------------------------
1053.5829   39215   43.0722  -70.7111  122.0    0.0    15.561     27.298     1010.5        nd            nd            nd            nd            13.900000     2011-06-16T10:53:34.97Z  
1053.9170   39235   43.0721  -70.7111  276.0    0.0    15.563     27.297     1010.5        nd            nd            nd            nd            13.900000     2011-06-16T10:53:55.02Z  
1054.2496   39255   43.0721  -70.7111  250.0    0.0    15.564     27.293     1010.4        nd            nd            nd            nd            13.900000     2011-06-16T10:54:14.98Z  
1054.5837   39275   43.0721  -70.7111  213.0    0.0    15.564     27.292     1010.4        nd            nd            nd            nd            13.900000     2011-06-16T10:54:35.02Z  
1054.9163   39295   43.0721  -70.7111  231.0    0.0    15.567     27.285     1010.4        nd            nd            nd            nd            13.900000     2011-06-16T10:54:54.98Z  
1055.2504   39315   43.0721  -70.7111  211.0    0.0    15.572     27.274     1010.4        nd            nd            nd            nd            13.900000     2011-06-16T10:55:15.02Z  
1055.5830   39335   43.0721  -70.7111  223.0    0.0    15.578     27.269     1010.4        nd            nd            nd            nd            13.900000     2011-06-16T10:55:34.98Z  
1055.9171   39355   43.0721  -70.7111  226.0    0.0    15.581     27.268     1010.4        nd            nd            nd            nd            13.900000     2011-06-16T10:55:55.03Z  
1056.2498   39375   43.0721  -70.7111  203.0    0.0    15.583     27.269     1010.3        nd            nd            nd            nd            13.900000     2011-06-16T10:56:14.99Z  
1056.5838   39395   43.0721  -70.7111  211.0    0.0    15.585     27.269     1010.3        nd            nd            nd            nd            13.900000     2011-06-16T10:56:35.03Z  
1056.9165   39415   43.0721  -70.7111  227.0    0.0    15.590     27.259     1010.3        nd            nd            nd            nd            13.900000     2011-06-16T10:56:54.99Z  
1057.2506   39435   43.0721  -70.7111  195.0    0.0    15.596     27.251     1010.3        nd            nd            nd            nd            13.900000     2011-06-16T10:57:15.04Z  
1057.5832   39455   43.0721  -70.7111  194.0    0.0    15.602     27.242     1010.3        nd            nd            nd            nd            13.900000     2011-06-16T10:57:34.99Z  
1057.9173   39475   43.0721  -70.7111  206.0    0.0    15.608     27.236     1010.3        nd            nd            nd            nd            13.900000     2011-06-16T10:57:55.04Z  
1058.2499   39495   43.0721  -70.7111  225.0    0.0    15.613     27.234     1010.3        nd            nd            nd            nd            13.900000     2011-06-16T10:58:14.99Z  
1058.5840   39515   43.0721  -70.7111  234.0    0.0    15.616     27.234     1010.2        nd            nd            nd            nd            13.900000     2011-06-16T10:58:35.04Z  
1058.9166   39535   43.0721  -70.7111  233.0    0.0    15.622     27.227     1010.2        nd            nd            nd            nd            13.900000     2011-06-16T10:58:55.00Z  
1059.2507   39555   43.0721  -70.7111  214.0    0.0    15.628     27.215     1010.3        nd            nd            nd            nd            13.900000     2011-06-16T10:59:15.04Z  
1059.5834   39575   43.0721  -70.7111  205.0    0.0    15.634     27.207     1010.3        nd            nd            nd            nd            13.900000     2011-06-16T10:59:35.00Z  
1059.9002   39594   43.0721  -70.7111  221.0    0.0    15.638     27.202     1010.3        nd            nd            nd            nd            14.033333     2011-06-16T10:59:54.01Z  
1100.2501   39615   43.0721  -70.7111  242.0    0.0    15.644     27.195     1010.4        nd            nd            nd            nd            14.700000     2011-06-16T11:00:15.01Z  
1100.5827   39635   43.0721  -70.7111  226.0    0.1    15.647     27.192     1010.4        nd            nd            nd            nd            14.700000     2011-06-16T11:00:34.96Z  
1100.9168   39655   43.0721  -70.7111  68.0     0.1    15.651     27.186     1010.5        nd            nd            nd            nd            14.700000     2011-06-16T11:00:55.01Z  
1101.2494   39675   43.0721  -70.7111  146.0    0.0    15.654     27.180     1010.6        nd            nd            nd            nd            14.700000     2011-06-16T11:01:14.96Z  
1101.5835   39695   43.0721  -70.7111  169.0    0.0    15.657     27.173     1010.6        nd            nd            nd            nd            14.700000     2011-06-16T11:01:35.01Z  
1101.9162   39715   43.0721  -70.7111  223.0    0.0    15.662     27.165     1010.6        475.591002    464.481299    nd            nd            14.700000     2011-06-16T11:01:54.97Z  
1102.2502   39735   43.0721  -70.7111  157.0    0.0    15.668     27.160     1010.7        475.398088    464.320365    nd            nd            14.700000     2011-06-16T11:02:15.01Z  
1102.5829   39755   43.0721  -70.7111  170.0    0.0    15.673     27.157     1010.8        475.621065    464.563206    nd            nd            14.700000     2011-06-16T11:02:34.97Z  
1102.9170   39775   43.0721  -70.7111  172.0    0.0    15.675     27.157     1010.8        476.067350    465.012034    nd            nd            14.700000     2011-06-16T11:02:55.02Z  
1103.2496   39795   43.0721  -70.7111  185.0    0.0    15.676     27.158     1010.8        476.590736    465.527704    nd            nd            14.700000     2011-06-16T11:03:14.98Z  
1103.5837   39815   43.0721  -70.7111  195.0    0.0    15.677     27.156     1010.8        477.074075    466.000707    nd            nd            14.700000     2011-06-16T11:03:35.02Z  
1103.9163   39835   43.0721  -70.7111  192.0    0.0    15.679     27.155     1010.8        477.253583    466.182816    nd            nd            14.700000     2011-06-16T11:03:54.98Z  
1104.2504   39855   43.0721  -70.7111  191.0    0.0    15.679     27.155     1010.8        477.515855    466.435709    nd            nd            14.700000     2011-06-16T11:04:15.02Z  
1104.5830   39875   43.0721  -70.7111  184.0    0.0    15.679     27.156     1010.8        477.690008    466.610236    nd            nd            14.700000     2011-06-16T11:04:34.98Z  
1104.9171   39895   43.0721  -70.7111  203.0    0.0    15.678     27.155     1010.8        477.969101    466.870411    nd            nd            14.700000     2011-06-16T11:04:55.03Z  
1105.2498   39915   43.0721  -70.7111  212.0    0.0    15.677     27.154     1010.8        478.018013    466.915952    nd            nd            14.700000     2011-06-16T11:05:14.99Z  
1105.5838   39935   43.0721  -70.7111  181.0    0.0    15.677     27.152     1010.8        478.066960    466.961689    nd            nd            14.700000     2011-06-16T11:05:35.03Z  
1105.9165   39955   43.0721  -70.7111  156.0    0.0    15.677     27.153     1010.8        478.050469    466.946237    nd            nd            14.700000     2011-06-16T11:05:54.99Z  
1106.2506   39975   43.0721  -70.7111  192.0    0.0    15.677     27.153     1010.8        478.004955    466.890619    nd            nd            14.700000     2011-06-16T11:06:15.04Z  
1106.5832   39995   43.0721  -70.7111  232.0    0.0    15.677     27.153     1010.7        478.151302    467.025150    nd            nd            14.700000     2011-06-16T11:06:34.99Z  
1106.9173   40015   43.0721  -70.7111  200.0    0.0    15.678     27.153     1010.7        478.337298    467.203985    nd            nd            14.700000     2011-06-16T11:06:55.04Z  
1107.2499   40035   43.0721  -70.7111  203.0    0.0    15.678     27.153     1010.7        478.289998    467.146412    nd            nd            14.700000     2011-06-16T11:07:14.99Z  
1107.5840   40055   43.0721  -70.7111  202.0    0.0    15.677     27.154     1010.7        478.296994    467.155647    nd            nd            14.700000     2011-06-16T11:07:35.04Z  
1107.9166   40075   43.0721  -70.7111  199.0    0.0    15.676     27.154     1010.7        478.207893    467.071826    nd            nd            14.700000     2011-06-16T11:07:55.00Z  
1108.2493   40095   43.0721  -70.7111  191.0    0.0    15.673     27.155     1010.7        478.087266    466.963434    nd            nd            14.700000     2011-06-16T11:08:14.96Z  
1108.5834   40115   43.0721  -70.7111  224.0    0.0    15.671     27.158     1010.8        478.084335    466.971307    nd            nd            14.700000     2011-06-16T11:08:35.00Z  
1108.9160   40135   43.0721  -70.7111  185.0    0.0    15.670     27.159     1010.8        478.014405    466.914738    nd            nd            14.700000     2011-06-16T11:08:54.96Z  
1109.2501   40155   43.0721  -70.7111  179.0    0.0    15.671     27.157     1010.8        477.975844    466.876587    nd            nd            14.700000     2011-06-16T11:09:15.01Z  
1109.5827   40175   43.0721  -70.7111  189.0    0.0    15.673     27.154     1010.8        478.117565    467.019284    nd            nd            14.700000     2011-06-16T11:09:34.96Z  
1109.9168   40195   43.0721  -70.7111  193.0    0.0    15.676     27.153     1010.8        478.000108    466.910088    nd            nd            14.700000     2011-06-16T11:09:55.01Z  
1110.2494   40215   43.0721  -70.7111  192.0    0.0    15.680     27.150     1010.8        477.896086    466.816436    nd            nd            14.700000     2011-06-16T11:10:14.96Z  
1110.5835   40235   43.0721  -70.7111  211.0    0.0    15.683     27.145     1010.8        477.997518    466.913017    nd            nd            14.700000     2011-06-16T11:10:35.01Z  
1110.9162   40255   43.0721  -70.7111  208.0    0.0    15.686     27.138     1010.8        477.993339    466.916386    nd            nd            14.700000     2011-06-16T11:10:54.97Z  
1111.2502   40275   43.0721  -70.7111  189.0    0.0    15.690     27.131     1010.8        478.032434    466.951701    nd            nd            14.700000     2011-06-16T11:11:15.01Z  
1111.5829   40295   43.0721  -70.7111  168.0    0.0    15.691     27.127     1010.9        478.501599    467.415906    nd            nd            14.700000     2011-06-16T11:11:34.97Z  
1111.9170   40315   43.0721  -70.7111  190.0    0.0    15.692     27.126     1010.9        478.680162    467.593619    nd            nd            14.700000     2011-06-16T11:11:55.02Z  
1112.2496   40335   43.0721  -70.7111  197.0    0.0    15.694     27.128     1010.9        478.903903    467.818834    nd            nd            14.700000     2011-06-16T11:12:14.98Z  
1112.5837   40355   43.0721  -70.7111  176.0    0.0    15.695     27.124     1010.9        479.039331    467.954316    nd            nd            14.700000     2011-06-16T11:12:35.02Z  
1112.9163   40375   43.0721  -70.7111  195.0    0.0    15.698     27.120     1010.9        479.230472    468.144176    nd            nd            14.700000     2011-06-16T11:12:54.98Z  
1113.2504   40395   43.0721  -70.7111  187.0    0.0    15.700     27.119     1010.9        479.358926    468.267574    nd            nd            14.700000     2011-06-16T11:13:15.02Z  
1113.5830   40415   43.0721  -70.7111  200.0    0.0    15.702     27.118     1010.9        479.411939    468.319186    nd            nd            14.700000     2011-06-16T11:13:34.98Z  
1113.9171   40435   43.0721  -70.7111  211.0    0.0    15.706     27.119     1010.9        479.663597    468.558919    nd            nd            14.700000     2011-06-16T11:13:55.03Z  
1114.2498   40455   43.0721  -70.7111  212.0    0.0    15.710     27.120     1010.9        479.634556    468.526715    nd            nd            14.700000     2011-06-16T11:14:14.99Z  
1114.5838   40475   43.0721  -70.7111  192.0    0.0    15.709     27.121     1010.9        479.719579    468.607658    nd            nd            14.700000     2011-06-16T11:14:35.03Z  
1114.9165   40495   43.0721  -70.7111  216.0    0.0    15.708     27.123     1010.9        479.865955    468.747498    nd            nd            14.700000     2011-06-16T11:14:54.99Z  
1115.2506   40515   43.0721  -70.7111  234.0    0.0    15.707     27.124     1010.9        479.959615    468.837298    nd            nd            14.700000     2011-06-16T11:15:15.04Z  
1115.5832   40535   43.0721  -70.7111  190.0    0.0    15.705     27.125     1010.9        480.072035    468.948663    nd            nd            14.700000     2011-06-16T11:15:34.99Z  
1115.9173   40555   43.0721  -70.7111  176.0    0.0    15.704     27.125     1010.9        479.843579    468.720633    nd            nd            14.700000     2011-06-16T11:15:55.04Z  
1116.2499   40575   43.0721  -70.7111  215.0    0.0    15.708     27.125     1010.9        479.904822    468.775487    nd            nd            14.700000     2011-06-16T11:16:14.99Z  
1116.5840   40595   43.0721  -70.7111  185.0    0.0    15.714     27.117     1010.9        480.106366    468.970562    nd            nd            14.700000     2011-06-16T11:16:35.04Z  
1116.9166   40615   43.0721  -70.7111  180.0    0.0    15.716     27.115     1010.9        480.222767    469.080551    nd            nd            14.700000     2011-06-16T11:16:55.00Z  
1117.2507   40635   43.0721  -70.7111  205.0    0.0    15.714     27.113     1010.8        480.259451    469.113466    nd            nd            14.700000     2011-06-16T11:17:15.04Z  
1117.5834   40655   43.0721  -70.7111  218.0    0.0    15.714     27.114     1010.8        480.558034    469.401256    nd            nd            14.700000     2011-06-16T11:17:35.00Z  
1117.9160   40675   43.0721  -70.7111  187.0    0.0    15.716     27.112     1010.8        480.626116    469.468015    nd            nd            14.700000     2011-06-16T11:17:54.96Z  
1118.2501   40695   43.0721  -70.7111  178.0    0.0    15.718     27.109     1010.8        480.790793    469.628718    nd            nd            14.700000     2011-06-16T11:18:15.01Z  
1118.5827   40715   43.0721  -70.7111  213.0    0.0    15.720     27.107     1010.8        480.972997    469.806238    nd            nd            14.700000     2011-06-16T11:18:34.96Z  
1118.9168   40735   43.0721  -70.7111  197.0    0.0    15.721     27.106     1010.8        481.100997    469.931542    nd            nd            14.700000     2011-06-16T11:18:55.01Z  
1119.2494   40755   43.0721  -70.7111  183.0    0.0    15.723     27.102     1010.8        481.029414    469.858428    nd            nd            14.700000     2011-06-16T11:19:14.96Z  
1119.5835   40775   43.0721  -70.7111  191.0    0.0    15.725     27.099     1010.8        481.299760    470.120117    nd            nd            14.700000     2011-06-16T11:19:35.01Z  
1119.9162   40795   43.0721  -70.7111  205.0    0.0    15.729     27.093     1010.8        481.486410    470.299838    nd            nd            14.700000     2011-06-16T11:19:54.97Z  
1120.2502   40815   43.0721  -70.7111  214.0    0.0    15.730     27.093     1010.8        481.411725    470.227167    nd            nd            14.700000     2011-06-16T11:20:15.01Z  
1120.5829   40835   43.0721  -70.7111  181.0    0.0    15.733     27.092     1010.8        481.402699    470.220520    nd            nd            14.700000     2011-06-16T11:20:34.97Z  
1120.9170   40855   43.0721  -70.7111  169.0    0.0    15.735     27.093     1010.8        481.394410    470.212916    nd            nd            14.700000     2011-06-16T11:20:55.02Z  
1121.2496   40875   43.0721  -70.7111  210.0    0.0    15.735     27.092     1010.9        481.544405    470.363353    nd            nd            14.700000     2011-06-16T11:21:14.98Z  
1121.5837   40895   43.0721  -70.7111  147.0    0.0    15.737     27.090     1010.9        481.476810    470.296618    nd            nd            14.700000     2011-06-16T11:21:35.02Z  
1121.9163   40915   43.0721  -70.7111  198.0    0.0    15.739     27.090     1010.9        481.440529    470.264377    nd            nd            14.700000     2011-06-16T11:21:54.98Z  
1122.2504   40935   43.0721  -70.7111  181.0    0.0    15.741     27.089     1010.9        481.403676    470.233060    nd            nd            14.700000     2011-06-16T11:22:15.02Z  
1122.5830   40955   43.0721  -70.7111  184.0    0.0    15.741     27.090     1010.9        481.650504    470.480769    nd            nd            14.700000     2011-06-16T11:22:34.98Z  
1122.9171   40975   43.0721  -70.7111  144.0    0.0    15.741     27.090     1010.9        481.638917    470.472997    nd            nd            14.700000     2011-06-16T11:22:55.03Z  
1123.2498   40995   43.0721  -70.7111  98.0     0.0    15.740     27.090     1010.9        481.846706    470.679699    nd            nd            14.700000     2011-06-16T11:23:14.99Z  
1123.5838   41015   43.0721  -70.7111  138.0    0.0    15.739     27.090     1010.9        482.014970    470.853397    nd            nd            14.700000     2011-06-16T11:23:35.03Z  
1123.9165   41035   43.0721  -70.7111  187.0    0.0    15.741     27.091     1010.9        482.118445    470.944738    nd            nd            14.700000     2011-06-16T11:23:54.99Z  
1124.2506   41055   43.0721  -70.7110  141.0    0.2    15.743     27.091     1010.9        481.961581    470.790647    nd            nd            14.700000     2011-06-16T11:24:15.04Z  
1124.5832   41075   43.0720  -70.7111  184.0    0.6    15.745     27.091     1010.9        482.170906    470.991175    nd            nd            14.700000     2011-06-16T11:24:34.99Z  
1124.9173   41095   43.0721  -70.7108  59.0     1.6    15.747     27.089     1010.9        482.127461    470.954505    nd            nd            14.700000     2011-06-16T11:24:55.04Z  
1125.2499   41115   43.0725  -70.7104  28.0     2.6    15.750     27.086     1010.9        481.941196    470.777228    nd            nd            14.700000     2011-06-16T11:25:14.99Z  
1125.5840   41135   43.0730  -70.7102  23.0     3.0    15.754     27.083     1010.9        481.864838    470.700871    nd            nd            14.700000     2011-06-16T11:25:35.04Z  
1125.9166   41155   43.0733  -70.7095  64.0     3.5    15.756     27.079     1010.9        481.978932    470.805986    nd            nd            14.700000     2011-06-16T11:25:55.00Z  
1126.2493   41175   43.0733  -70.7085  98.0     4.1    15.758     27.077     1010.9        482.118874    470.935479    nd            nd            14.700000     2011-06-16T11:26:14.96Z  
1126.5834   41195   43.0729  -70.7076  119.0    4.1    15.761     27.075     1010.9        481.799854    470.615819    nd            nd            14.700000     2011-06-16T11:26:35.00Z  
1126.9160   41215   43.0724  -70.7069  136.0    4.1    15.763     27.073     1010.9        482.002940    470.812020    nd            nd            14.700000     2011-06-16T11:26:54.96Z  
1127.2501   41235   43.0717  -70.7064  154.0    4.1    15.764     27.073     1010.9        481.957581    470.752864    nd            nd            14.700000     2011-06-16T11:27:15.01Z  
1127.5827   41255   43.0708  -70.7062  169.0    5.3    15.764     27.073     1010.8        481.933507    470.716582    nd            nd            14.700000     2011-06-16T11:27:34.96Z  
1127.9168   41275   43.0698  -70.7060  173.0    5.9    15.763     27.072     1010.8        481.726660    470.500774    nd            nd            14.700000     2011-06-16T11:27:55.01Z  
1128.2494   41295   43.0686  -70.7057  171.0    7.1    15.766     27.071     1010.8        481.746301    470.529097    nd            nd            14.700000     2011-06-16T11:28:14.96Z  
1128.5835   41315   43.0672  -70.7055  172.0    7.7    15.768     27.070     1010.8        481.884330    470.663637    nd            nd            14.700000     2011-06-16T11:28:35.01Z  
1128.9162   41335   43.0657  -70.7051  170.0    8.1    15.768     27.070     1010.8        481.870285    470.646772    nd            nd            14.700000     2011-06-16T11:28:54.97Z  
1129.2502   41355   43.0643  -70.7046  166.0    8.4    15.770     27.070     1010.8        482.020349    470.793255    nd            nd            14.700000     2011-06-16T11:29:15.01Z  
1129.5829   41375   43.0628  -70.7041  165.0    8.7    15.771     27.070     1010.8        482.150666    470.931059    nd            nd            14.700000     2011-06-16T11:29:34.97Z  
1129.9170   41395   43.0613  -70.7034  162.0    8.7    15.771     27.070     1010.8        482.241076    471.017497    nd            nd            14.700000     2011-06-16T11:29:55.02Z  
1130.2496   41415   43.0598  -70.7028  162.0    8.7    15.772     27.070     1010.8        482.316571    471.089579    nd            nd            14.700000     2011-06-16T11:30:14.98Z  
1130.5837   41435   43.0583  -70.7020  160.0    8.8    15.776     27.070     1010.9        482.639553    471.415308    nd            nd            14.700000     2011-06-16T11:30:35.02Z  
1130.9163   41455   43.0569  -70.7011  155.0    8.8    15.777     27.068     1010.9        483.441217    472.192967    nd            nd            14.700000     2011-06-16T11:30:54.98Z  
1131.2504   41475   43.0554  -70.7002  154.0    8.8    15.781     27.068     1010.9        484.342071    473.069331    nd            nd            14.700000     2011-06-16T11:31:15.02Z  
1131.5830   41495   43.0541  -70.6991  150.0    8.8    15.785     27.066     1010.9        485.245589    473.959120    nd            nd            14.700000     2011-06-16T11:31:34.98Z  
1131.9171   41515   43.0528  -70.6980  147.0    8.7    15.787     27.069     1010.9        485.820844    474.520735    nd            nd            14.700000     2011-06-16T11:31:55.03Z  
1132.2498   41535   43.0514  -70.6970  153.0    8.7    15.787     27.079     1010.9        486.497839    475.180924    nd            nd            14.700000     2011-06-16T11:32:14.99Z  
1132.5838   41555   43.0500  -70.6961  154.0    8.8    15.787     27.083     1010.9        487.189434    475.861156    nd            nd            14.700000     2011-06-16T11:32:35.03Z  
1132.9165   41575   43.0487  -70.6949  143.0    8.6    15.792     27.071     1010.9        487.900197    476.553718    nd            nd            14.700000     2011-06-16T11:32:54.99Z  
1133.2506   41595   43.0475  -70.6935  139.0    8.6    15.801     27.041     1010.9        488.326022    476.972080    423.328198    413.490804    14.700000     2011-06-16T11:33:15.04Z  
1133.5832   41615   43.0464  -70.6920  136.0    8.6    15.811     27.018     1010.9        488.437163    477.068548    422.974730    413.125966    14.700000     2011-06-16T11:33:34.99Z  
1133.9173   41635   43.0455  -70.6904  127.0    8.5    15.827     26.973     1010.9        488.262636    476.889119    423.116922    413.261005    14.700000     2011-06-16T11:33:55.04Z  
1134.2499   41655   43.0448  -70.6886  118.0    8.5    15.844     26.943     1010.9        487.864810    476.492636    423.418705    413.548882    14.700000     2011-06-16T11:34:14.99Z  
1134.5840   41675   43.0443  -70.6866  106.0    8.5    15.855     26.950     1010.9        487.077552    475.724065    423.414529    413.545099    14.700000     2011-06-16T11:34:35.04Z  
1134.9166   41695   43.0442  -70.6845  92.0     8.6    15.859     26.987     1010.9        485.287921    473.979134    423.372558    413.506704    14.700000     2011-06-16T11:34:55.00Z  
1135.2493   41715   43.0443  -70.6823  87.0     8.9    15.862     27.016     1010.9        482.233013    470.990628    423.571282    413.693372    14.700000     2011-06-16T11:35:14.96Z  
1135.5834   41735   43.0445  -70.6801  83.0     8.9    15.860     27.050     1010.9        478.667183    467.517194    422.692281    412.827190    14.700000     2011-06-16T11:35:35.00Z  
1135.9160   41755   43.0447  -70.6779  83.0     9.0    15.851     27.091     1010.9        474.709285    463.665722    nd            nd            14.700000     2011-06-16T11:35:54.96Z  
1136.2501   41775   43.0449  -70.6757  82.0     9.0    15.827     27.188     1010.9        471.137227    460.189830    nd            nd            14.700000     2011-06-16T11:36:15.01Z  
1136.5827   41795   43.0452  -70.6736  80.0     9.0    15.782     27.326     1011.0        467.697559    456.860210    nd            nd            14.700000     2011-06-16T11:36:34.96Z  
1136.9168   41815   43.0455  -70.6714  81.0     9.0    15.720     27.483     1011.0        465.058545    454.317220    424.820917    415.018287    14.700000     2011-06-16T11:36:55.01Z  
1137.2494   41835   43.0458  -70.6692  79.0     9.0    15.675     27.526     1011.0        462.588921    451.928283    424.632476    414.846642    14.700000     2011-06-16T11:37:14.96Z  
1137.5835   41855   43.0460  -70.6670  80.0     9.1    15.659     27.520     1011.0        460.460099    449.857083    424.543861    414.769764    14.700000     2011-06-16T11:37:35.01Z  
1137.9162   41875   43.0463  -70.6648  80.0     9.1    15.654     27.519     1011.0        458.611373    448.046797    nd            nd            14.700000     2011-06-16T11:37:54.97Z  
1138.2502   41895   43.0466  -70.6626  79.0     9.1    15.656     27.506     1010.9        456.840209    446.302781    426.596827    416.753093    14.700000     2011-06-16T11:38:15.01Z  
1138.5829   41915   43.0470  -70.6604  78.0     9.1    15.656     27.512     1010.9        455.015788    444.513866    426.571870    416.726488    14.700000     2011-06-16T11:38:34.97Z  
1138.9170   41935   43.0473  -70.6583  79.0     9.0    15.655     27.510     1010.9        452.717680    442.261608    426.295799    416.468465    14.700000     2011-06-16T11:38:55.02Z  
1139.2496   41955   43.0477  -70.6561  76.0     9.0    15.649     27.516     1010.9        449.944566    439.546196    nd            nd            14.700000     2011-06-16T11:39:14.98Z  
1139.5837   41975   43.0480  -70.6540  76.0     9.0    15.637     27.535     1010.9        445.965610    435.663953    nd            nd            14.700000     2011-06-16T11:39:35.02Z  
1139.9163   41995   43.0484  -70.6518  78.0     9.0    15.626     27.562     1010.9        440.565466    430.391791    nd            nd            14.700000     2011-06-16T11:39:54.98Z  
1140.2504   42015   43.0487  -70.6497  77.0     9.0    15.622     27.577     1010.9        433.966690    423.948483    423.946424    414.163005    14.700000     2011-06-16T11:40:15.02Z  
1140.5830   42035   43.0491  -70.6475  77.0     9.0    15.605     27.645     1010.9        425.914404    416.095306    424.878526    415.085194    14.700000     2011-06-16T11:40:34.98Z  
1140.9171   42055   43.0495  -70.6454  77.0     9.0    15.562     27.765     1010.9        417.234990    407.637140    424.678738    414.906603    14.700000     2011-06-16T11:40:55.03Z  
1141.2498   42075   43.0498  -70.6432  77.0     9.0    15.505     27.904     1010.9        408.356564    398.993367    425.069801    415.322677    14.700000     2011-06-16T11:41:14.99Z  
1141.5838   42095   43.0502  -70.6411  79.0     9.0    15.434     28.070     1010.9        400.309860    391.160098    nd            nd            14.700000     2011-06-16T11:41:35.03Z  
1141.7667   42106   43.0504  -70.6398  76.0     9.0    15.384     28.201     1010.9        395.793184    386.765197    nd            nd            14.700000     2011-06-16T11:41:46.00Z  
nd          nd      nd       nd        nd       nd     nd         nd         nd            nd            nd            nd            nd            nd            nd                
nd          nd      nd       nd        nd       nd     nd         nd         nd            nd            nd            nd            nd            nd            nd                
nd          nd      nd       nd        nd       nd     nd         nd         nd            nd            nd            nd            nd            nd            nd                
nd          nd      nd       nd        nd       nd     nd         nd         nd            nd            nd            nd            nd            nd            nd                
nd          nd      nd       nd        nd       nd     nd         nd         nd            nd            nd            nd            nd            nd            nd                
nd          nd      nd       nd        nd       nd     nd         nd         nd            nd            nd            nd            nd            nd            nd                
nd          nd      nd       nd        nd       nd     nd         nd         nd            nd            nd            nd            nd            nd            nd                
nd          nd      nd       nd        nd       nd     nd         nd         nd            nd            nd            nd            nd            nd            nd                
nd          nd      nd       nd        nd       nd     nd         nd         nd            nd            nd            nd            nd            nd            nd                
nd          nd      nd       nd        nd       nd     nd         nd         nd            nd            nd            nd            nd            nd            nd                
nd          nd      nd       nd        nd       nd     nd         nd         nd            nd            nd            nd            nd            nd            nd                
nd          nd      nd       nd        nd       nd     nd         nd         nd            nd            nd            nd            nd            nd            nd                
nd          nd      nd       nd        nd       nd     nd         nd         nd            nd            nd            nd            nd            nd            nd                
nd          nd      nd       nd        nd       nd     nd         nd         nd            nd            nd            nd            nd            nd            nd                
nd          nd      nd       nd        nd       nd     nd         nd         nd            nd            nd            nd            nd            nd            nd                
nd          nd      nd       nd        nd       nd     nd         nd         nd            nd            nd            nd            nd            nd            nd                
nd          nd      nd       nd        nd       nd     nd         nd         nd            nd            nd            nd            nd            nd            nd                
nd          nd      nd       nd        nd       nd     nd         nd         nd            nd            nd            nd            nd            nd            nd                
nd          nd      nd       nd        nd       nd     nd         nd         nd            nd            nd            nd            nd            nd            nd                
nd          nd      nd       nd        nd       nd     nd         nd         nd            nd            nd            nd            nd            nd            nd                
nd          nd      nd       nd        nd       nd     nd         nd         nd            nd            nd            nd            nd            nd            nd                
nd          nd      nd       nd        nd       nd     nd         nd         nd            nd            nd            nd            nd            nd            nd                
nd          nd      nd       nd        nd       nd     nd         nd         nd            nd            nd            nd            nd            nd            nd                
nd          nd      nd       nd        nd       nd     nd         nd         nd            nd            nd            nd            nd            nd            nd                
1150.3506   42621   43.0657  -70.5877  68.0     8.9    14.754     29.020     1010.9        323.070151    315.914483    nd            nd            14.700000     2011-06-16T11:50:21.04Z  
1150.5838   42635   43.0662  -70.5864  65.0     8.9    14.757     29.021     1010.9        323.117580    315.960290    424.368280    414.960203    14.700000     2011-06-16T11:50:35.03Z  
1150.9165   42655   43.0668  -70.5844  69.0     8.9    14.760     29.023     1010.9        322.913873    315.750024    424.845371    415.418369    14.700000     2011-06-16T11:50:54.99Z  
1151.2506   42675   43.0674  -70.5823  69.0     8.9    14.755     29.055     1010.9        323.086506    315.921726    425.109594    415.682182    14.700000     2011-06-16T11:51:15.04Z  
1151.5832   42695   43.0680  -70.5803  69.0     8.9    14.720     29.133     1010.9        323.046603    315.891127    425.363935    415.941971    14.700000     2011-06-16T11:51:34.99Z  
1151.9173   42715   43.0686  -70.5783  65.0     8.8    14.694     29.164     1010.9        323.126543    315.978761    425.406557    415.996103    14.700000     2011-06-16T11:51:55.04Z  
1152.2499   42735   43.0692  -70.5763  67.0     8.8    14.674     29.162     1010.9        323.571829    316.425188    425.417796    416.021542    14.700000     2011-06-16T11:52:14.99Z  
1152.5840   42755   43.0700  -70.5744  61.0     8.8    14.652     29.154     1010.9        324.035419    316.887594    425.479556    416.093830    14.700000     2011-06-16T11:52:35.04Z  
1152.9166   42775   43.0709  -70.5726  55.0     8.8    14.632     29.165     1010.9        324.418816    317.271172    425.574582    416.199828    14.700000     2011-06-16T11:52:55.00Z  
1153.2493   42795   43.0719  -70.5710  50.0     8.8    14.614     29.197     1010.9        324.863133    317.718750    425.383322    416.026985    14.700000     2011-06-16T11:53:14.96Z  
1153.5834   42815   43.0729  -70.5693  48.0     8.8    14.586     29.225     1010.9        324.991467    317.856444    425.653344    416.308177    14.700000     2011-06-16T11:53:35.00Z  
1153.9160   42835   43.0740  -70.5678  48.0     8.7    14.537     29.269     1010.9        325.378283    318.250532    425.668989    416.344101    14.700000     2011-06-16T11:53:54.96Z  
1154.2501   42855   43.0750  -70.5662  47.0     8.8    14.485     29.290     1010.9        325.663550    318.549363    425.906457    416.599463    14.700000     2011-06-16T11:54:15.01Z  
1154.5827   42875   43.0761  -70.5646  47.0     8.7    14.446     29.295     1010.9        325.788348    318.681888    nd            nd            14.700000     2011-06-16T11:54:34.96Z  
1154.9168   42895   43.0772  -70.5631  47.0     8.7    14.413     29.319     1010.9        325.808254    318.716065    425.968170    416.697377    14.700000     2011-06-16T11:54:55.01Z  
1155.2494   42915   43.0783  -70.5615  46.0     8.7    14.332     29.482     1010.9        326.009171    318.936184    425.983774    416.733965    14.700000     2011-06-16T11:55:14.96Z  
1155.5835   42935   43.0793  -70.5600  47.0     8.7    14.238     29.577     1010.9        326.117878    319.070185    426.296358    417.086043    14.700000     2011-06-16T11:55:35.01Z  
1155.9162   42955   43.0804  -70.5585  45.0     8.7    14.169     29.563     1010.9        326.223404    319.198383    426.240760    417.061763    14.700000     2011-06-16T11:55:54.97Z  
1156.2502   42975   43.0815  -70.5569  48.0     8.7    14.117     29.539     1010.9        326.634822    319.614994    426.407663    417.243416    14.700000     2011-06-16T11:56:15.01Z  
1156.5829   42995   43.0825  -70.5553  47.0     8.7    14.084     29.518     1010.9        327.239145    320.219972    426.321206    417.172090    14.700000     2011-06-16T11:56:34.97Z  
1156.9170   43015   43.0836  -70.5537  47.0     8.7    14.060     29.500     1010.9        327.686864    320.659986    427.092664    417.936209    14.700000     2011-06-16T11:56:55.02Z  
1157.2496   43035   43.0847  -70.5521  47.0     8.7    14.062     29.496     1010.9        328.328988    321.290526    426.959546    417.809921    14.700000     2011-06-16T11:57:14.98Z  
1157.5837   43055   43.0857  -70.5506  48.0     8.8    14.074     29.489     1010.9        328.600368    321.550834    427.050908    417.883221    14.700000     2011-06-16T11:57:35.02Z  
1157.9163   43075   43.0868  -70.5490  48.0     8.8    14.076     29.479     1010.9        328.800662    321.742963    427.349567    418.176359    14.700000     2011-06-16T11:57:54.98Z  
1158.2504   43095   43.0878  -70.5474  47.0     8.7    14.059     29.467     1010.9        328.920845    321.868061    427.373240    418.209259    14.700000     2011-06-16T11:58:15.02Z  
1158.5830   43115   43.0890  -70.5459  45.0     8.7    14.028     29.460     1010.9        328.803002    321.755334    427.595052    418.430375    14.700000     2011-06-16T11:58:34.98Z  
1158.9171   43135   43.0900  -70.5443  47.0     8.8    13.994     29.460     1010.9        328.695405    321.657114    427.739818    418.580553    14.700000     2011-06-16T11:58:55.03Z  
1159.2498   43155   43.0912  -70.5428  42.0     8.8    13.969     29.466     1010.9        328.386730    321.363990    427.915241    418.763869    14.700000     2011-06-16T11:59:14.99Z  
1159.5838   43175   43.0924  -70.5414  41.0     8.8    13.959     29.472     1010.9        327.967953    320.953401    428.187437    419.029233    14.700000     2011-06-16T11:59:35.03Z  
1159.9006   43194   43.0935  -70.5400  42.0     8.8    13.956     29.478     1010.9        327.376639    320.373336    428.265333    419.103623    14.783333     2011-06-16T11:59:54.04Z  
1200.2506   43215   43.0947  -70.5384  45.0     8.8    13.965     29.481     1010.9        326.923488    319.922307    428.498293    419.321684    15.200000     2011-06-16T12:00:15.04Z  
1200.5832   43235   43.0958  -70.5369  45.0     8.8    13.981     29.483     1010.8        326.335249    319.334706    428.488762    419.296657    15.200000     2011-06-16T12:00:34.99Z  
1200.9173   43255   43.0969  -70.5354  42.0     8.8    14.005     29.490     1010.8        325.826405    318.827939    428.586564    419.380738    15.200000     2011-06-16T12:00:55.04Z  
1201.2499   43275   43.0982  -70.5340  39.0     8.7    14.014     29.490     1010.8        325.262668    318.271875    428.835211    419.618191    15.200000     2011-06-16T12:01:14.99Z  
1201.5840   43295   43.0993  -70.5326  43.0     8.7    14.017     29.493     1010.8        325.170286    318.176318    428.840209    419.616270    15.200000     2011-06-16T12:01:35.04Z  
1201.9166   43315   43.1005  -70.5311  43.0     8.7    14.014     29.500     1010.8        324.826900    317.836446    428.797106    419.569592    15.200000     2011-06-16T12:01:55.00Z  
1202.2507   43335   43.1016  -70.5296  44.0     8.8    14.011     29.513     1010.8        324.843430    317.854809    428.917789    419.684573    15.200000     2011-06-16T12:02:15.04Z  
1202.5834   43355   43.1028  -70.5282  40.0     8.8    14.035     29.605     1010.8        324.786004    317.792838    428.992814    419.755737    15.200000     2011-06-16T12:02:35.00Z  
1202.9160   43375   43.1041  -70.5269  36.0     8.8    14.156     29.779     1010.8        324.772733    317.741158    429.138979    419.847620    15.200000     2011-06-16T12:02:54.96Z  
1203.2501   43395   43.1053  -70.5256  39.0     8.8    14.333     29.898     1010.8        325.027705    317.937130    429.147556    419.785415    15.200000     2011-06-16T12:03:15.01Z  
1203.5827   43415   43.1066  -70.5242  39.0     8.9    14.418     29.921     1010.8        325.406707    318.277715    429.268092    419.863535    15.200000     2011-06-16T12:03:34.96Z  
1203.9168   43435   43.1078  -70.5228  41.0     8.9    14.435     29.917     1010.8        326.146349    318.992993    429.518747    420.101366    15.200000     2011-06-16T12:03:55.01Z  
1204.2494   43455   43.1090  -70.5213  41.0     8.9    14.421     29.903     1010.8        326.924065    319.757934    nd            nd            15.200000     2011-06-16T12:04:14.96Z  
1204.5835   43475   43.1102  -70.5198  42.0     8.9    14.390     29.903     1010.8        327.745858    320.571491    429.476612    420.079289    15.200000     2011-06-16T12:04:35.01Z  
1204.9162   43495   43.1114  -70.5184  40.0     8.9    14.398     29.942     1010.8        328.534660    321.340452    429.699671    420.287090    15.200000     2011-06-16T12:04:54.97Z  
1205.2502   43515   43.1126  -70.5169  44.0     8.9    14.469     29.961     1010.8        329.270826    322.034367    429.778465    420.332968    15.200000     2011-06-16T12:05:15.01Z  
1205.5829   43535   43.1137  -70.5154  43.0     8.8    14.529     29.966     1010.8        329.669273    322.410037    429.690348    420.228508    15.200000     2011-06-16T12:05:34.97Z  
1205.9170   43555   43.1149  -70.5140  41.0     8.8    14.567     29.968     1010.8        330.177049    322.891366    430.016980    420.528074    15.200000     2011-06-16T12:05:55.02Z  
1206.2496   43575   43.1161  -70.5126  41.0     8.7    14.581     29.969     1010.8        330.584902    323.285785    430.015763    420.521110    15.200000     2011-06-16T12:06:14.98Z  
1206.5837   43595   43.1173  -70.5112  42.0     8.8    14.571     29.965     1010.8        331.196566    323.885766    430.208611    420.712068    15.200000     2011-06-16T12:06:35.02Z  
1206.9163   43615   43.1184  -70.5097  42.0     8.8    14.499     29.891     1010.8        331.757682    324.454040    430.199908    420.726143    15.200000     2011-06-16T12:06:54.98Z  
1207.2504   43635   43.1196  -70.5083  43.0     8.7    14.405     29.826     1010.8        332.373813    325.089500    nd            nd            15.200000     2011-06-16T12:07:15.02Z  
1207.5830   43655   43.1208  -70.5069  39.0     8.6    14.355     29.802     1010.8        332.839973    325.560736    nd            nd            15.200000     2011-06-16T12:07:34.98Z  
1207.9171   43675   43.1220  -70.5056  40.0     8.6    14.338     29.792     1010.8        333.181954    325.899748    430.758509    421.337520    15.200000     2011-06-16T12:07:55.03Z  
1208.2498   43695   43.1232  -70.5042  41.0     8.6    14.321     29.782     1010.8        333.501637    326.216591    430.867823    421.455743    15.200000     2011-06-16T12:08:14.99Z  
1208.5838   43715   43.1243  -70.5028  42.0     8.7    14.320     29.789     1010.8        333.644178    326.353443    431.124337    421.703321    15.200000     2011-06-16T12:08:35.03Z  
1208.9165   43735   43.1255  -70.5013  43.0     8.8    14.366     29.838     1010.8        333.667052    326.363514    431.311365    421.870357    15.200000     2011-06-16T12:08:54.99Z  
1209.2506   43755   43.1267  -70.4999  40.0     8.8    14.413     29.840     1010.8        333.662560    326.340146    431.442454    421.974043    15.200000     2011-06-16T12:09:15.04Z  
1209.5832   43775   43.1279  -70.4985  41.0     8.8    14.419     29.813     1010.7        333.662002    326.332007    431.479128    422.000097    15.200000     2011-06-16T12:09:34.99Z  
1209.9173   43795   43.1291  -70.4970  43.0     8.8    14.400     29.801     1010.7        333.744002    326.414870    431.517148    422.039869    15.200000     2011-06-16T12:09:55.04Z  
1210.2499   43815   43.1302  -70.4956  41.0     8.8    14.371     29.799     1010.7        333.664233    326.341254    431.757022    422.282138    15.200000     2011-06-16T12:10:14.99Z  
1210.5840   43835   43.1314  -70.4942  40.0     8.7    14.356     29.812     1010.7        333.537481    326.212825    431.727614    422.236980    15.200000     2011-06-16T12:10:35.04Z  
1210.9166   43855   43.1326  -70.4928  43.0     8.7    14.385     29.864     1010.7        333.127997    325.802061    431.912984    422.414473    15.200000     2011-06-16T12:10:55.00Z  
1211.2493   43875   43.1338  -70.4913  41.0     8.7    14.335     29.826     1010.7        332.740362    325.432044    432.061258    422.571299    15.200000     2011-06-16T12:11:14.96Z  
1211.5834   43895   43.1349  -70.4899  41.0     8.7    14.078     29.696     1010.6        332.609949    325.383447    432.102288    422.713990    15.200000     2011-06-16T12:11:35.00Z  
1211.9160   43915   43.1361  -70.4885  44.0     8.7    13.919     29.633     1010.6        332.859210    325.673896    432.292346    422.960441    15.200000     2011-06-16T12:11:54.96Z  
1212.2501   43935   43.1372  -70.4871  42.0     8.6    13.895     29.578     1010.6        332.918270    325.739424    432.237399    422.916733    15.200000     2011-06-16T12:12:15.01Z  
1212.5827   43955   43.1384  -70.4857  41.0     8.6    13.928     29.559     1010.6        332.651686    325.470422    432.115455    422.786807    15.200000     2011-06-16T12:12:34.96Z  
1212.9168   43975   43.1395  -70.4842  44.0     8.7    13.969     29.534     1010.6        332.189235    325.005121    432.396627    423.045203    15.200000     2011-06-16T12:12:55.01Z  
1213.2494   43995   43.1407  -70.4828  40.0     8.7    14.017     29.510     1010.6        331.677473    324.490985    432.485991    423.115375    15.200000     2011-06-16T12:13:14.96Z  
1213.5835   44015   43.1419  -70.4814  41.0     8.7    14.087     29.461     1010.6        331.359700    324.155049    nd            nd            15.200000     2011-06-16T12:13:35.01Z  
1213.9162   44035   43.1431  -70.4800  40.0     8.7    14.184     29.419     1010.6        331.028409    323.800563    433.313588    423.834612    15.200000     2011-06-16T12:13:54.97Z  
1214.2502   44055   43.1443  -70.4787  40.0     8.6    14.248     29.398     1010.6        330.658875    323.414416    433.200689    423.713990    15.200000     2011-06-16T12:14:15.01Z  
1214.5829   44075   43.1455  -70.4773  40.0     8.7    14.287     29.386     1010.6        330.052984    322.806314    nd            nd            15.200000     2011-06-16T12:14:34.97Z  
1214.9170   44095   43.1466  -70.4759  42.0     8.7    14.312     29.361     1010.6        329.503776    322.262917    434.283774    424.738729    15.200000     2011-06-16T12:14:55.02Z  
1215.2496   44115   43.1478  -70.4745  41.0     8.6    14.336     29.341     1010.6        329.111845    321.869589    434.330941    424.773116    15.200000     2011-06-16T12:15:14.98Z  
1215.5837   44135   43.1490  -70.4731  40.0     8.7    14.359     29.335     1010.6        328.715063    321.474307    434.485246    424.914467    15.200000     2011-06-16T12:15:35.02Z  
1215.9163   44155   43.1502  -70.4717  41.0     8.6    14.372     29.333     1010.6        328.336009    321.097663    434.666699    425.084062    15.200000     2011-06-16T12:15:54.98Z  
1216.2504   44175   43.1513  -70.4703  41.0     8.6    14.374     29.328     1010.6        328.004179    320.771385    434.843951    425.255068    15.200000     2011-06-16T12:16:15.02Z  
1216.5830   44195   43.1525  -70.4689  43.0     8.7    14.375     29.321     1010.6        327.842229    320.609121    434.829530    425.235810    15.200000     2011-06-16T12:16:34.98Z  
1216.9171   44215   43.1536  -70.4674  44.0     8.6    14.371     29.312     1010.6        327.592144    320.367736    434.800741    425.211885    15.200000     2011-06-16T12:16:55.03Z  
1217.2498   44235   43.1548  -70.4660  41.0     8.6    14.365     29.309     1010.6        327.650923    320.425984    434.826944    425.238520    15.200000     2011-06-16T12:17:14.99Z  
1217.5838   44255   43.1559  -70.4646  42.0     8.6    14.358     29.304     1010.6        327.589032    320.366385    435.009097    425.417888    15.200000     2011-06-16T12:17:35.03Z  
1217.9165   44275   43.1571  -70.4632  40.0     8.6    14.351     29.298     1010.6        327.611371    320.388794    435.092348    425.500055    15.200000     2011-06-16T12:17:54.99Z  
1218.2506   44295   43.1583  -70.4619  39.0     8.6    14.343     29.282     1010.6        327.635280    320.415666    435.047397    425.460721    15.200000     2011-06-16T12:18:15.04Z  
1218.5832   44315   43.1595  -70.4605  40.0     8.5    14.345     29.271     1010.6        327.626484    320.399499    435.344734    425.741450    15.200000     2011-06-16T12:18:34.99Z  
1218.9173   44335   43.1606  -70.4591  43.0     8.6    14.351     29.260     1010.5        327.684498    320.446888    435.286712    425.672302    15.200000     2011-06-16T12:18:55.04Z  
1219.2499   44355   43.1618  -70.4577  42.0     8.6    14.359     29.245     1010.6        327.814372    320.572206    435.269312    425.653041    15.200000     2011-06-16T12:19:14.99Z  
1219.5840   44375   43.1629  -70.4562  43.0     8.6    14.373     29.229     1010.5        328.041044    320.787084    435.267360    425.642138    15.200000     2011-06-16T12:19:35.04Z  
1219.9166   44395   43.1641  -70.4549  40.0     8.6    14.393     29.214     1010.5        328.170249    320.906984    435.282525    425.653256    15.200000     2011-06-16T12:19:55.00Z  
1220.2493   44415   43.1653  -70.4535  42.0     8.5    14.410     29.202     1010.5        328.372423    321.097225    435.542320    425.892982    15.200000     2011-06-16T12:20:14.96Z  
1220.5834   44435   43.1664  -70.4521  43.0     8.5    14.431     29.191     1010.5        328.604493    321.315797    435.473754    425.812567    15.200000     2011-06-16T12:20:35.00Z  
1220.9160   44455   43.1676  -70.4508  38.0     8.6    14.447     29.185     1010.5        328.586923    321.294102    435.525075    425.858640    15.200000     2011-06-16T12:20:54.96Z  
1221.2501   44475   43.1688  -70.4494  41.0     8.7    14.449     29.207     1010.5        328.989818    321.690103    435.835088    426.167803    15.200000     2011-06-16T12:21:15.01Z  
1221.5827   44495   43.1699  -70.4480  40.0     8.7    14.415     29.284     1010.6        329.213495    321.925528    435.667646    426.022877    15.200000     2011-06-16T12:21:34.96Z  
1221.9168   44515   43.1711  -70.4466  42.0     8.6    14.378     29.328     1010.6        329.524541    322.242485    435.624435    425.997536    15.200000     2011-06-16T12:21:55.01Z  
1222.2494   44535   43.1722  -70.4452  44.0     8.5    14.351     29.341     1010.6        329.922450    322.638745    435.584773    425.968183    15.200000     2011-06-16T12:22:14.96Z  
1222.5835   44555   43.1734  -70.4437  42.0     8.6    14.339     29.319     1010.6        330.662843    323.365531    435.674436    426.059474    15.200000     2011-06-16T12:22:35.01Z  
1222.9162   44575   43.1745  -70.4423  42.0     8.7    14.342     29.295     1010.6        331.314908    324.008026    435.496362    425.891675    15.200000     2011-06-16T12:22:54.97Z  
1223.2502   44595   43.1757  -70.4409  41.0     8.5    14.326     29.327     1010.6        331.944665    324.635476    435.507229    425.917500    15.200000     2011-06-16T12:23:15.01Z  
1223.5829   44615   43.1768  -70.4396  41.0     8.4    14.312     29.316     1010.6        332.640201    325.313650    435.503811    425.911473    15.200000     2011-06-16T12:23:34.97Z  
1223.9170   44635   43.1779  -70.4381  45.0     8.5    14.322     29.300     1010.6        333.058316    325.719768    435.449309    425.854524    15.200000     2011-06-16T12:23:55.02Z  
1224.2496   44655   43.1790  -70.4366  44.0     8.6    14.329     29.291     1010.6        333.652596    326.298632    435.282223    425.688093    15.200000     2011-06-16T12:24:14.98Z  
1224.5837   44675   43.1802  -70.4353  38.0     8.6    14.336     29.277     1010.6        334.123134    326.761324    435.267651    425.676901    15.200000     2011-06-16T12:24:35.02Z  
1224.9163   44695   43.1815  -70.4341  34.0     8.5    14.314     29.340     1010.6        334.688203    327.316362    nd            nd            15.200000     2011-06-16T12:24:54.98Z  
1225.2504   44715   43.1828  -70.4329  35.0     8.6    14.246     29.427     1010.6        334.867973    327.513176    435.245944    425.689367    15.200000     2011-06-16T12:25:15.02Z  
1225.5830   44735   43.1840  -70.4317  35.0     8.7    14.215     29.447     1010.6        335.014222    327.671614    435.141643    425.602191    15.200000     2011-06-16T12:25:34.98Z  
1225.9171   44755   43.1853  -70.4305  33.0     8.7    14.161     29.583     1010.6        335.122040    327.787812    435.249074    425.740051    15.200000     2011-06-16T12:25:55.03Z  
1226.2498   44775   43.1867  -70.4295  26.0     8.7    14.002     29.783     1010.6        335.230665    327.950495    435.100202    425.651001    15.200000     2011-06-16T12:26:14.99Z  
1226.5838   44795   43.1882  -70.4287  20.0     8.9    13.907     29.868     1010.6        335.311326    328.057589    435.175378    425.761129    15.200000     2011-06-16T12:26:35.03Z  
1226.9165   44815   43.1898  -70.4281  15.0     8.9    13.864     29.955     1010.6        335.487321    328.244999    434.953400    425.563697    15.200000     2011-06-16T12:26:54.99Z  
1227.2506   44835   43.1914  -70.4279  5.0      9.1    13.823     30.163     1010.5        335.280510    328.045869    434.855321    425.471903    15.200000     2011-06-16T12:27:15.04Z  
1227.5832   44855   43.1929  -70.4272  27.0     8.9    13.792     30.325     1010.5        334.961591    327.737567    434.709625    425.334197    15.200000     2011-06-16T12:27:34.99Z  
1227.9173   44875   43.1939  -70.4255  53.0     9.0    13.788     30.415     1010.5        334.320555    327.110662    434.514739    425.143906    15.200000     2011-06-16T12:27:55.04Z  
1228.2499   44895   43.1948  -70.4236  53.0     9.0    13.798     30.441     1010.5        333.318424    326.125376    434.362885    424.989113    15.200000     2011-06-16T12:28:14.99Z  
1228.5840   44915   43.1958  -70.4219  49.0     9.1    13.804     30.425     1010.5        332.421012    325.248139    434.265673    424.895063    15.200000     2011-06-16T12:28:35.04Z  
1228.9166   44935   43.1970  -70.4203  44.0     9.1    13.811     30.385     1010.5        331.336652    324.184822    434.062217    424.692906    15.200000     2011-06-16T12:28:55.00Z  
1229.2493   44955   43.1983  -70.4189  41.0     9.1    13.802     30.341     1010.5        330.769587    323.631993    434.079248    424.712194    15.200000     2011-06-16T12:29:14.96Z  
1229.5834   44975   43.1996  -70.4176  33.0     9.2    13.772     30.324     1010.5        330.360637    323.241140    434.094254    424.739055    15.200000     2011-06-16T12:29:35.00Z  
1229.9160   44995   43.2010  -70.4164  33.0     9.2    13.741     30.268     1010.5        330.539112    323.425657    433.927155    424.591899    15.200000     2011-06-16T12:29:54.96Z  
1230.2501   45015   43.2024  -70.4152  32.0     9.2    13.777     30.180     1010.5        330.390319    323.268584    433.904816    424.562475    15.200000     2011-06-16T12:30:15.01Z  
1230.5827   45035   43.2038  -70.4140  32.0     9.2    13.869     30.134     1010.5        330.473317    323.319339    433.947110    424.552996    15.200000     2011-06-16T12:30:34.96Z  
1230.9168   45055   43.2053  -70.4128  31.0     9.2    13.971     30.130     1010.5        330.363954    323.177438    434.244920    424.798477    15.200000     2011-06-16T12:30:55.01Z  
1231.2494   45075   43.2067  -70.4116  33.0     9.2    14.071     30.147     1010.5        330.459353    323.244948    434.278791    424.797691    15.200000     2011-06-16T12:31:14.96Z  
1231.5835   45095   43.2080  -70.4103  34.0     9.2    14.148     30.160     1010.5        330.842083    323.598672    434.555927    425.032223    15.200000     2011-06-16T12:31:35.01Z  
1231.9162   45115   43.2094  -70.4091  35.0     9.1    14.204     30.188     1010.5        331.123556    323.856670    434.637880    425.099088    15.200000     2011-06-16T12:31:54.97Z  
1232.2502   45135   43.2107  -70.4077  37.0     9.2    14.262     30.213     1010.5        331.570727    324.276753    434.643490    425.081924    15.200000     2011-06-16T12:32:15.01Z  
1232.5829   45155   43.2120  -70.4063  37.0     9.2    14.309     30.225     1010.5        331.984247    324.668521    434.701686    425.120533    15.200000     2011-06-16T12:32:34.97Z  
1232.9170   45175   43.2134  -70.4051  33.0     9.2    14.334     30.234     1010.6        332.494362    325.162938    435.131414    425.544383    15.200000     2011-06-16T12:32:55.02Z  
1233.2496   45195   43.2148  -70.4039  32.0     9.2    14.341     30.238     1010.6        333.008185    325.664580    434.775800    425.188444    15.200000     2011-06-16T12:33:14.98Z  
1233.5837   45215   43.2162  -70.4027  32.0     9.2    14.351     30.241     1010.6        333.861258    326.496570    434.991353    425.396986    15.200000     2011-06-16T12:33:35.02Z  
1233.9163   45235   43.2176  -70.4015  32.0     9.2    14.358     30.243     1010.6        334.426628    327.045040    434.811881    425.215222    15.200000     2011-06-16T12:33:54.98Z  
1234.2504   45255   43.2190  -70.4003  32.0     9.2    14.376     30.248     1010.6        334.969482    327.573341    434.919175    425.318845    15.200000     2011-06-16T12:34:15.02Z  
1234.5830   45275   43.2204  -70.3991  33.0     9.2    14.408     30.251     1010.6        335.601261    328.181768    435.235712    425.628929    15.200000     2011-06-16T12:34:34.98Z  
1234.9171   45295   43.2217  -70.3978  35.0     9.2    14.435     30.253     1010.6        335.995335    328.562741    435.351534    425.721616    15.200000     2011-06-16T12:34:55.03Z  
1235.2498   45315   43.2232  -70.3966  31.0     9.1    14.463     30.254     1010.6        336.409299    328.956909    435.355627    425.711140    15.200000     2011-06-16T12:35:14.99Z  
1235.5838   45335   43.2245  -70.3953  34.0     9.2    14.487     30.251     1010.6        336.803826    329.335500    435.546588    425.888566    15.200000     2011-06-16T12:35:35.03Z  
1235.9165   45355   43.2259  -70.3941  34.0     9.2    14.506     30.247     1010.6        337.194379    329.712197    435.175020    425.517328    15.200000     2011-06-16T12:35:54.99Z  
1236.2506   45375   43.2273  -70.3928  34.0     9.2    14.516     30.245     1010.6        337.515117    330.021257    435.270440    425.605957    15.200000     2011-06-16T12:36:15.04Z  
1236.5832   45395   43.2286  -70.3916  33.0     9.1    14.533     30.253     1010.6        337.880533    330.378590    435.238054    425.574327    15.200000     2011-06-16T12:36:34.99Z  
1236.9173   45415   43.2300  -70.3904  33.0     9.2    14.551     30.254     1010.6        338.184528    330.665044    435.192148    425.515557    15.200000     2011-06-16T12:36:55.04Z  
1237.2499   45435   43.2314  -70.3891  32.0     9.2    14.554     30.249     1010.6        338.465301    330.939559    435.131246    425.455987    15.200000     2011-06-16T12:37:14.99Z  
1237.5840   45455   43.2328  -70.3879  33.0     9.2    14.564     30.244     1010.6        338.706009    331.172391    435.084041    425.406590    15.200000     2011-06-16T12:37:35.04Z  
1237.9166   45475   43.2342  -70.3867  32.0     9.3    14.583     30.241     1010.6        338.800675    331.252139    435.073565    425.379897    15.200000     2011-06-16T12:37:55.00Z  
1238.2507   45495   43.2356  -70.3854  33.0     9.3    14.609     30.227     1010.6        339.008946    331.445427    435.161058    425.452163    15.200000     2011-06-16T12:38:15.04Z  
1238.5834   45515   43.2370  -70.3842  32.0     9.3    14.616     30.217     1010.6        339.216730    331.644381    435.170063    425.454535    15.200000     2011-06-16T12:38:35.00Z  
1238.9160   45535   43.2384  -70.3830  32.0     9.2    14.627     30.219     1010.6        339.429140    331.851278    435.084764    425.368059    15.200000     2011-06-16T12:38:54.96Z  
1239.2501   45555   43.2398  -70.3818  33.0     9.1    14.657     30.233     1010.6        339.730088    332.130119    434.959062    425.225209    15.200000     2011-06-16T12:39:15.01Z  
1239.5827   45575   43.2412  -70.3805  33.0     9.1    14.676     30.240     1010.6        340.143837    332.529391    434.996201    425.259385    15.200000     2011-06-16T12:39:34.96Z  
1239.9168   45595   43.2426  -70.3793  34.0     9.2    14.670     30.228     1010.6        340.533201    332.909013    nd            nd            15.200000     2011-06-16T12:39:55.01Z  
1240.2494   45615   43.2439  -70.3780  36.0     9.2    14.667     30.220     1010.6        340.931179    333.302363    434.938367    425.204563    15.200000     2011-06-16T12:40:14.96Z  
1240.5835   45635   43.2452  -70.3766  36.0     9.2    14.679     30.226     1010.6        341.337253    333.694334    434.696029    424.962554    15.200000     2011-06-16T12:40:35.01Z  
1240.9162   45655   43.2466  -70.3754  34.0     9.3    14.690     30.237     1010.6        341.932050    334.270472    434.853851    425.110042    15.200000     2011-06-16T12:40:54.97Z  
1241.2502   45675   43.2480  -70.3741  33.0     9.3    14.699     30.244     1010.6        342.467181    334.791902    434.888488    425.141738    15.200000     2011-06-16T12:41:15.01Z  
1241.5829   45695   43.2494  -70.3729  34.0     9.3    14.713     30.257     1010.5        343.045697    335.348511    434.746088    424.991198    15.200000     2011-06-16T12:41:34.97Z  
1241.9170   45715   43.2508  -70.3716  34.0     9.3    14.727     30.269     1010.6        343.464203    335.756206    434.742242    424.985642    15.200000     2011-06-16T12:41:55.02Z  
1242.2496   45735   43.2522  -70.3703  34.0     9.3    14.734     30.278     1010.6        343.838817    336.121819    434.868193    425.108014    15.200000     2011-06-16T12:42:14.98Z  
1242.5837   45755   43.2536  -70.3690  33.0     9.3    14.731     30.287     1010.6        344.056736    336.334313    434.786758    425.027732    15.200000     2011-06-16T12:42:35.02Z  
1242.9163   45775   43.2550  -70.3678  32.0     9.3    14.734     30.291     1010.6        344.119376    336.396016    434.882994    425.122402    15.200000     2011-06-16T12:42:54.98Z  
1243.2504   45795   43.2564  -70.3666  32.0     9.2    14.738     30.295     1010.5        343.845876    336.123809    434.799687    425.034605    15.200000     2011-06-16T12:43:15.02Z  
1243.5830   45815   43.2578  -70.3654  33.0     9.3    14.738     30.295     1010.5        343.652220    335.931733    434.535354    424.772795    15.200000     2011-06-16T12:43:34.98Z  
1243.9171   45835   43.2592  -70.3641  34.0     9.3    14.749     30.300     1010.5        343.518338    335.797599    434.675461    424.905771    15.200000     2011-06-16T12:43:55.03Z  
1244.2498   45855   43.2606  -70.3628  34.0     9.2    14.747     30.306     1010.5        343.428270    335.707099    434.499080    424.730253    15.200000     2011-06-16T12:44:14.99Z  
1244.5838   45875   43.2620  -70.3616  33.0     9.2    14.731     30.313     1010.5        343.502062    335.785653    434.399499    424.641019    15.200000     2011-06-16T12:44:35.03Z  
1244.9165   45895   43.2634  -70.3604  33.0     9.3    14.707     30.319     1010.5        343.305099    335.603261    434.293269    424.550018    15.200000     2011-06-16T12:44:54.99Z  
1245.2506   45915   43.2648  -70.3591  33.0     9.2    14.695     30.321     1010.5        342.945090    335.253676    434.231897    424.493005    15.200000     2011-06-16T12:45:15.04Z  
1245.5832   45935   43.2661  -70.3579  34.0     9.2    14.683     30.323     1010.6        342.457508    334.786731    434.078353    424.355192    15.200000     2011-06-16T12:45:34.99Z  
1245.9173   45955   43.2675  -70.3566  34.0     9.1    14.663     30.333     1010.5        341.986069    334.331536    434.068152    424.352431    15.200000     2011-06-16T12:45:55.04Z  
1246.2499   45975   43.2689  -70.3554  33.0     9.1    14.635     30.355     1010.6        341.741577    334.105468    434.087621    424.387915    15.200000     2011-06-16T12:46:14.99Z  
1246.5840   45995   43.2703  -70.3541  33.0     9.1    14.606     30.371     1010.6        341.520725    333.900434    433.998682    424.314794    15.200000     2011-06-16T12:46:35.04Z  
1246.9166   46015   43.2716  -70.3529  32.0     9.2    14.567     30.377     1010.6        341.302112    333.699862    433.975214    424.308586    15.200000     2011-06-16T12:46:55.00Z  
1247.2507   46035   43.2731  -70.3518  31.0     9.1    14.557     30.384     1010.6        341.064109    333.468363    433.914039    424.250309    15.200000     2011-06-16T12:47:15.04Z  
1247.5834   46055   43.2744  -70.3505  33.0     9.1    14.564     30.393     1010.6        340.797598    333.207294    433.828810    424.166345    15.200000     2011-06-16T12:47:35.00Z  
1247.9160   46075   43.2758  -70.3493  33.0     9.1    14.568     30.398     1010.5        340.657720    333.064432    433.879219    424.206721    15.200000     2011-06-16T12:47:54.96Z  
1248.2501   46095   43.2772  -70.3481  33.0     9.1    14.570     30.417     1010.6        340.411505    332.826055    433.941099    424.280740    15.200000     2011-06-16T12:48:15.01Z  
1248.5827   46115   43.2785  -70.3468  34.0     9.0    14.576     30.442     1010.5        340.261425    332.674504    433.876383    424.201942    15.200000     2011-06-16T12:48:34.96Z  
1248.9168   46135   43.2799  -70.3456  32.0     9.0    14.603     30.470     1010.6        340.218790    332.625327    433.861865    424.178195    15.200000     2011-06-16T12:48:55.01Z  
1249.2494   46155   43.2813  -70.3445  32.0     9.0    14.630     30.489     1010.5        340.145753    332.542236    433.802794    424.105544    15.200000     2011-06-16T12:49:14.96Z  
1249.5835   46175   43.2826  -70.3432  33.0     8.9    14.628     30.494     1010.6        339.891346    332.297953    433.649847    423.962506    15.200000     2011-06-16T12:49:35.01Z  
1249.9162   46195   43.2840  -70.3420  33.0     9.0    14.626     30.508     1010.5        340.010130    332.411982    433.765359    424.071928    15.200000     2011-06-16T12:49:54.97Z  
1250.2502   46215   43.2854  -70.3408  32.0     9.0    14.626     30.539     1010.6        339.961899    332.366409    433.750716    424.059621    15.200000     2011-06-16T12:50:15.01Z  
1250.5829   46235   43.2867  -70.3396  34.0     9.0    14.625     30.558     1010.5        340.304811    332.698575    433.758413    424.063219    15.200000     2011-06-16T12:50:34.97Z  
1250.9170   46255   43.2881  -70.3384  33.0     9.0    14.630     30.573     1010.5        340.392995    332.782957    433.658953    423.963912    15.200000     2011-06-16T12:50:55.02Z  
1251.2496   46275   43.2894  -70.3372  33.0     9.0    14.634     30.584     1010.5        340.424397    332.809599    433.739053    424.036024    15.200000     2011-06-16T12:51:14.98Z  
1251.5837   46295   43.2908  -70.3360  33.0     9.0    14.642     30.598     1010.5        340.426535    332.809565    433.748714    424.043533    15.200000     2011-06-16T12:51:35.02Z  
1251.9163   46315   43.2921  -70.3347  35.0     8.9    14.634     30.614     1010.6        340.384662    332.779322    433.787079    424.094664    15.200000     2011-06-16T12:51:54.98Z  
1252.2504   46335   43.2934  -70.3335  35.0     8.7    14.601     30.633     1010.5        340.546876    332.943597    433.722267    424.038536    15.200000     2011-06-16T12:52:15.02Z  
1252.5830   46355   43.2947  -70.3322  36.0     8.7    14.560     30.647     1010.6        340.806948    333.215004    433.768181    424.105245    15.200000     2011-06-16T12:52:34.98Z  
1252.9171   46375   43.2959  -70.3310  35.0     8.6    14.341     30.280     1010.6        340.780569    333.262616    433.861625    424.290070    15.200000     2011-06-16T12:52:55.03Z  
1253.2498   46395   43.2972  -70.3298  35.0     8.6    13.842     29.732     1010.6        340.775968    333.418296    433.835075    424.468014    15.200000     2011-06-16T12:53:14.99Z  
1253.5838   46415   43.2985  -70.3286  35.0     8.6    13.552     29.599     1010.6        340.487839    333.237111    433.673543    424.438260    15.200000     2011-06-16T12:53:35.03Z  
1253.9165   46435   43.2998  -70.3274  34.0     8.6    13.416     29.564     1010.6        340.174284    332.975875    433.779999    424.600659    15.200000     2011-06-16T12:53:54.99Z  
1254.2506   46455   43.3010  -70.3262  34.0     8.6    13.345     29.550     1010.6        339.453686    332.307497    433.782961    424.650802    15.200000     2011-06-16T12:54:15.04Z  
1254.5832   46475   43.3023  -70.3251  34.0     8.6    13.298     29.543     1010.7        338.762038    331.658056    433.874560    424.769411    15.200000     2011-06-16T12:54:34.99Z  
1254.9173   46495   43.3036  -70.3239  33.0     8.6    13.269     29.540     1010.7        338.111416    331.041063    433.794643    424.716385    15.200000     2011-06-16T12:54:55.04Z  
1255.2499   46515   43.3049  -70.3227  33.0     8.6    13.255     29.542     1010.7        338.144353    331.065131    433.520340    424.458134    15.200000     2011-06-16T12:55:14.99Z  
1255.5840   46535   43.3062  -70.3216  32.0     8.6    13.257     29.530     1010.7        338.004790    330.931640    433.925224    424.841798    15.200000     2011-06-16T12:55:35.04Z  
1255.9166   46555   43.3075  -70.3204  33.0     8.6    13.263     29.510     1010.7        338.317387    331.235411    433.836777    424.755151    15.200000     2011-06-16T12:55:55.00Z  
1256.2493   46575   43.3088  -70.3192  35.0     8.6    13.277     29.490     1010.6        338.990300    331.880006    433.727956    424.630395    15.200000     2011-06-16T12:56:14.96Z  
1256.5834   46595   43.3101  -70.3181  34.0     8.5    13.291     29.467     1010.6        339.739505    332.592661    433.750085    424.625462    15.200000     2011-06-16T12:56:35.00Z  
1256.9160   46615   43.3114  -70.3170  31.0     8.5    13.319     29.452     1010.6        340.373957    333.208241    433.651516    424.518295    15.200000     2011-06-16T12:56:54.96Z  
1257.2501   46635   43.3127  -70.3158  33.0     8.5    13.345     29.444     1010.7        340.688202    333.525925    434.029721    424.905907    15.200000     2011-06-16T12:57:15.01Z  
1257.5827   46655   43.3139  -70.3146  35.0     8.6    13.362     29.442     1010.7        340.905320    333.760677    434.265695    425.159876    15.200000     2011-06-16T12:57:34.96Z  
1257.9168   46675   43.3152  -70.3134  34.0     8.6    13.370     29.439     1010.8        340.879838    333.740235    434.667252    425.559091    15.200000     2011-06-16T12:57:55.01Z  
1258.2494   46695   43.3165  -70.3122  34.0     8.5    13.404     29.415     1010.8        341.088997    333.943440    434.851939    425.741966    15.200000     2011-06-16T12:58:14.96Z  
1258.5835   46715   43.3178  -70.3111  33.0     8.5    13.421     29.400     1010.8        341.326161    334.175455    434.939363    425.828593    15.200000     2011-06-16T12:58:35.01Z  
1258.9162   46735   43.3191  -70.3099  35.0     8.6    13.420     29.390     1010.8        341.432124    334.271159    434.228882    425.096685    15.200000     2011-06-16T12:58:54.97Z  
1259.2502   46755   43.3204  -70.3087  33.0     8.5    13.418     29.384     1010.7        341.316485    334.138305    nd            nd            15.200000     2011-06-16T12:59:15.01Z  
1259.5829   46775   43.3216  -70.3076  32.0     8.4    13.419     29.382     1010.7        340.893454    333.702872    nd            nd            15.200000     2011-06-16T12:59:34.97Z  
1259.8838   46793   43.3228  -70.3065  35.0     8.5    13.420     29.376     1010.7        340.293967    333.122646    433.503014    424.367272    15.247059     2011-06-16T12:59:53.03Z  
1300.2496   46815   43.3242  -70.3054  31.0     8.5    13.426     29.372     1010.8        339.715517    332.578212    433.293266    424.189770    15.600000     2011-06-16T13:00:14.98Z  
1300.5837   46835   43.3255  -70.3042  33.0     8.5    13.450     29.362     1010.8        339.246756    332.128031    433.295225    424.202842    15.600000     2011-06-16T13:00:35.02Z  
1300.9163   46855   43.3268  -70.3031  33.0     8.5    13.473     29.352     1010.8        338.958447    331.847139    433.518798    424.420336    15.600000     2011-06-16T13:00:54.98Z  
1301.2504   46875   43.3281  -70.3019  32.0     8.5    13.496     29.345     1010.8        338.792036    331.683876    nd            nd            15.600000     2011-06-16T13:01:15.02Z  
1301.5830   46895   43.3293  -70.3008  34.0     8.5    13.508     29.344     1010.8        338.406386    331.293034    nd            nd            15.600000     2011-06-16T13:01:34.98Z  
1301.9171   46915   43.3306  -70.2996  33.0     8.5    13.517     29.342     1010.8        338.139903    331.021599    434.359874    425.216316    15.600000     2011-06-16T13:01:55.03Z  
1302.2498   46935   43.3319  -70.2984  36.0     8.5    13.517     29.342     1010.8        337.807450    330.684892    434.326389    425.168602    15.600000     2011-06-16T13:02:14.99Z  
1302.5838   46955   43.3332  -70.2973  32.0     8.5    13.528     29.336     1010.8        337.493384    330.375787    434.495908    425.332401    15.600000     2011-06-16T13:02:35.03Z  
1302.9165   46975   43.3345  -70.2962  33.0     8.4    13.549     29.326     1010.8        337.363532    330.239294    434.489219    425.313773    15.600000     2011-06-16T13:02:54.99Z  
1303.2506   46995   43.3357  -70.2950  35.0     8.6    13.572     29.319     1010.8        337.179554    330.052390    434.479757    425.295740    15.600000     2011-06-16T13:03:15.04Z  
1303.5832   47015   43.3370  -70.2938  33.0     8.5    13.619     29.296     1010.8        337.474365    330.333593    434.517605    425.324176    15.600000     2011-06-16T13:03:34.99Z  
1303.9173   47035   43.3383  -70.2927  32.0     8.5    13.696     29.266     1010.8        337.640462    330.479535    434.437198    425.222176    15.600000     2011-06-16T13:03:55.04Z  
1304.2499   47055   43.3396  -70.2916  34.0     8.6    13.760     29.257     1010.8        337.631164    330.456988    434.107106    424.882903    15.600000     2011-06-16T13:04:14.99Z  
1304.5840   47075   43.3409  -70.2904  33.0     8.5    13.810     29.248     1010.8        337.502264    330.318009    433.900630    424.664231    15.600000     2011-06-16T13:04:35.04Z  
1304.9166   47095   43.3422  -70.2892  34.0     8.5    13.838     29.243     1010.8        337.190575    330.005219    433.773234    424.529590    15.600000     2011-06-16T13:04:55.00Z  
1305.2493   47115   43.3434  -70.2881  34.0     8.5    13.858     29.241     1010.8        337.100583    329.906510    433.573290    424.323810    15.600000     2011-06-16T13:05:14.96Z  
1305.5834   47135   43.3447  -70.2869  33.0     8.5    13.883     29.231     1010.8        337.293241    330.078788    433.312409    424.044024    15.600000     2011-06-16T13:05:35.00Z  
1305.9160   47155   43.3460  -70.2857  35.0     8.6    13.906     29.226     1010.8        337.338983    330.114546    433.173412    423.896431    15.600000     2011-06-16T13:05:54.96Z  
1306.2501   47175   43.3473  -70.2845  36.0     8.5    13.929     29.217     1010.8        337.321783    330.095383    433.264223    423.981154    15.600000     2011-06-16T13:06:15.01Z  
1306.5827   47195   43.3486  -70.2834  32.0     8.5    13.943     29.214     1010.8        337.471153    330.241006    432.936434    423.659922    15.600000     2011-06-16T13:06:34.96Z  
1306.9168   47215   43.3498  -70.2822  34.0     8.5    13.956     29.213     1010.8        337.659374    330.416361    433.104648    423.828847    15.600000     2011-06-16T13:06:55.01Z  
1307.2494   47235   43.3511  -70.2811  33.0     8.5    13.981     29.211     1010.8        337.671678    330.425422    432.521191    423.237744    15.600000     2011-06-16T13:07:14.96Z  
1307.5835   47255   43.3524  -70.2799  32.0     8.5    14.011     29.206     1010.8        337.609109    330.352977    432.317304    423.018626    15.600000     2011-06-16T13:07:35.01Z  
1307.9162   47275   43.3537  -70.2788  32.0     8.5    14.019     29.200     1010.8        337.651380    330.397361    432.110462    422.826958    15.600000     2011-06-16T13:07:54.97Z  
1308.2502   47295   43.3550  -70.2777  32.0     8.5    14.002     29.192     1010.8        337.617278    330.369730    432.150700    422.873674    15.600000     2011-06-16T13:08:15.01Z  
1308.5829   47315   43.3563  -70.2765  34.0     8.5    14.000     29.178     1010.8        337.627634    330.382964    431.976962    422.707624    15.600000     2011-06-16T13:08:34.97Z  
1308.9170   47335   43.3576  -70.2753  35.0     8.6    13.945     29.138     1010.8        337.848678    330.610225    431.988753    422.730113    15.600000     2011-06-16T13:08:55.02Z  
1309.2496   47355   43.3588  -70.2742  33.0     8.6    13.892     29.105     1010.9        337.910503    330.695217    431.657435    422.441350    15.600000     2011-06-16T13:09:14.98Z  
1309.5837   47375   43.3602  -70.2731  32.0     8.5    13.868     29.084     1010.9        338.273881    331.059157    431.532168    422.328272    15.600000     2011-06-16T13:09:35.02Z  
1309.9163   47395   43.3614  -70.2719  34.0     8.6    13.858     29.052     1010.8        338.780620    331.555735    431.419372    422.218714    15.600000     2011-06-16T13:09:54.98Z  
1310.2504   47415   43.3627  -70.2707  34.0     8.5    13.847     29.021     1010.8        339.065726    331.839347    431.451052    422.255547    15.600000     2011-06-16T13:10:15.02Z  
1310.5830   47435   43.3640  -70.2696  33.0     8.5    13.820     29.003     1010.9        339.231264    332.013719    431.273424    422.100532    15.600000     2011-06-16T13:10:34.98Z  
1310.9171   47455   43.3652  -70.2684  34.0     8.5    13.828     28.985     1010.9        339.392258    332.167836    431.039869    421.863098    15.600000     2011-06-16T13:10:55.03Z  
1311.2498   47475   43.3665  -70.2672  35.0     8.5    13.848     28.935     1010.8        339.737543    332.494056    430.654874    421.456973    15.600000     2011-06-16T13:11:14.99Z  
1311.5838   47495   43.3678  -70.2660  35.0     8.6    13.882     28.912     1010.8        340.080080    332.814726    430.459997    421.265182    15.600000     2011-06-16T13:11:35.03Z  
1311.9165   47515   43.3690  -70.2648  35.0     8.6    13.922     28.887     1010.8        340.343551    333.053459    430.106609    420.893671    15.600000     2011-06-16T13:11:54.99Z  
1312.2506   47535   43.3703  -70.2636  35.0     8.5    13.959     28.856     1010.8        340.634526    333.324795    429.898792    420.673387    15.600000     2011-06-16T13:12:15.04Z  
1312.5832   47555   43.3716  -70.2624  34.0     8.5    13.989     28.836     1010.8        341.015109    333.685186    429.840680    420.601366    15.600000     2011-06-16T13:12:34.99Z  
1312.9173   47575   43.3729  -70.2612  35.0     8.5    14.012     28.815     1010.8        341.358041    334.021460    429.847531    420.608967    15.600000     2011-06-16T13:12:55.04Z  
1313.2499   47595   43.3741  -70.2600  36.0     8.6    14.029     28.802     1010.9        341.781372    334.438129    429.768430    420.534622    15.600000     2011-06-16T13:13:14.99Z  
1313.5840   47615   43.3753  -70.2588  35.0     8.5    14.046     28.794     1010.9        341.865225    334.520695    429.943797    420.706872    15.600000     2011-06-16T13:13:35.04Z  
1313.9166   47635   43.3766  -70.2576  33.0     8.4    14.060     28.767     1010.9        341.835690    334.486497    430.129761    420.879968    15.600000     2011-06-16T13:13:55.00Z  
1314.2493   47655   43.3779  -70.2564  35.0     8.5    14.084     28.752     1010.8        341.593904    334.235447    430.406078    421.134323    15.600000     2011-06-16T13:14:14.96Z  
1314.5834   47675   43.3791  -70.2552  35.0     8.5    14.114     28.743     1010.8        341.337573    333.971853    430.660028    421.365944    15.600000     2011-06-16T13:14:35.00Z  
1314.9160   47695   43.3804  -70.2541  32.0     8.4    14.142     28.731     1010.8        341.092749    333.720451    430.600828    421.293773    15.600000     2011-06-16T13:14:54.96Z  
1315.2501   47715   43.3816  -70.2529  36.0     8.5    14.165     28.714     1010.8        340.824258    333.446196    430.731360    421.408976    15.600000     2011-06-16T13:15:15.01Z  
1315.5827   47735   43.3829  -70.2517  35.0     8.4    14.190     28.694     1010.8        340.377498    332.995646    431.012717    421.662218    15.600000     2011-06-16T13:15:34.96Z  
1315.9168   47755   43.3842  -70.2506  32.0     8.4    14.216     28.664     1010.8        339.987550    332.608693    430.756634    421.407638    15.600000     2011-06-16T13:15:55.01Z  
1316.2494   47775   43.3854  -70.2494  35.0     8.4    14.245     28.638     1010.8        339.531536    332.148613    430.793378    421.424618    15.600000     2011-06-16T13:16:14.96Z  
1316.5835   47795   43.3867  -70.2482  35.0     8.4    14.275     28.623     1010.8        338.991123    331.615338    430.919323    421.545256    15.600000     2011-06-16T13:16:35.01Z  
1316.9162   47815   43.3879  -70.2471  33.0     8.4    14.302     28.612     1010.8        338.614949    331.240045    431.065832    421.677228    15.600000     2011-06-16T13:16:54.97Z  
1317.2502   47835   43.3892  -70.2459  36.0     8.4    14.323     28.597     1010.8        338.072144    330.699869    431.137662    421.736840    15.600000     2011-06-16T13:17:15.01Z  
1317.5829   47855   43.3904  -70.2446  37.0     8.5    14.351     28.577     1010.8        337.585595    330.203690    431.055060    421.629128    15.600000     2011-06-16T13:17:34.97Z  
1317.9170   47875   43.3916  -70.2434  35.0     8.5    14.458     28.060     1010.8        337.219388    329.807551    431.126483    421.650465    15.600000     2011-06-16T13:17:55.02Z  
1318.2496   47895   43.3929  -70.2422  34.0     8.4    14.747     27.094     1010.8        336.807978    329.302779    431.157360    421.549581    15.600000     2011-06-16T13:18:14.98Z  
1318.5837   47915   43.3941  -70.2409  39.0     8.5    14.970     26.766     1010.8        336.190808    328.622552    431.372505    421.661380    15.600000     2011-06-16T13:18:35.02Z  
1318.9163   47935   43.3954  -70.2397  34.0     8.5    15.116     26.601     1010.8        334.121416    326.550608    431.335395    421.561638    15.600000     2011-06-16T13:18:54.98Z  
1319.2504   47955   43.3966  -70.2385  35.0     8.5    15.194     26.530     1010.8        331.056920    323.526060    431.259272    421.448841    15.600000     2011-06-16T13:19:15.02Z  
1319.5830   47975   43.3979  -70.2373  36.0     8.5    15.232     26.477     1010.8        328.091927    320.614796    431.222420    421.394811    15.600000     2011-06-16T13:19:34.98Z  
1319.9171   47995   43.3991  -70.2361  36.0     8.6    15.262     26.381     1010.7        325.243050    317.815578    431.238373    421.390142    15.600000     2011-06-16T13:19:55.03Z  
1320.2498   48015   43.4004  -70.2349  34.0     8.5    15.294     26.247     1010.7        323.378588    315.982563    431.194627    421.332550    15.600000     2011-06-16T13:20:14.99Z  
1320.5838   48035   43.4017  -70.2337  34.0     8.5    15.330     26.116     1010.7        321.456808    314.085079    431.161789    421.274096    15.600000     2011-06-16T13:20:35.03Z  
1320.9165   48055   43.4029  -70.2325  37.0     8.6    15.343     26.154     1010.7        319.906773    312.567195    431.197787    421.304699    15.600000     2011-06-16T13:20:54.99Z  
1321.2506   48075   43.4042  -70.2313  33.0     8.6    15.255     26.692     1010.7        318.776420    311.489332    431.229434    421.371574    15.600000     2011-06-16T13:21:15.04Z  
1321.5832   48095   43.4055  -70.2301  33.0     8.7    14.711     28.415     1010.7        318.344834    311.248009    431.063231    421.453392    15.600000     2011-06-16T13:21:34.99Z  
1321.9173   48115   43.4068  -70.2289  34.0     8.6    14.247     28.964     1010.7        318.392949    311.439354    430.916638    421.505371    15.600000     2011-06-16T13:21:55.04Z  
1322.2499   48135   43.4081  -70.2278  32.0     8.6    14.022     29.079     1010.7        319.695797    312.773272    431.069917    421.726991    15.600000     2011-06-16T13:22:14.99Z  
1322.5840   48155   43.4094  -70.2266  34.0     8.6    13.926     29.152     1010.7        321.913856    314.969292    431.024815    421.729827    15.600000     2011-06-16T13:22:35.04Z  
1322.9166   48175   43.4107  -70.2255  33.0     8.6    13.869     29.174     1010.6        324.031508    317.049681    431.285376    421.992397    15.600000     2011-06-16T13:22:55.00Z  
1323.2507   48195   43.4120  -70.2243  34.0     8.6    13.836     29.186     1010.6        325.750654    318.739962    431.406808    422.122028    15.600000     2011-06-16T13:23:15.04Z  
1323.5834   48215   43.4133  -70.2231  32.0     8.7    13.812     29.195     1010.6        327.687244    320.643368    431.513151    422.237286    15.600000     2011-06-16T13:23:35.00Z  
1323.9160   48235   43.4147  -70.2220  33.0     8.7    13.796     29.210     1010.6        329.395871    322.321138    431.366864    422.101844    15.600000     2011-06-16T13:23:54.96Z  
1324.2501   48255   43.4160  -70.2209  31.0     8.7    13.790     29.246     1010.6        330.912179    323.801889    431.173441    421.908683    15.600000     2011-06-16T13:24:15.01Z  
1324.5827   48275   43.4173  -70.2197  32.0     8.7    13.767     29.283     1010.6        332.065122    324.933510    431.087390    421.828953    15.600000     2011-06-16T13:24:34.96Z  
1324.9168   48295   43.4186  -70.2186  32.0     8.7    13.722     29.298     1010.6        333.081525    325.941913    430.940490    421.703098    15.600000     2011-06-16T13:24:55.01Z  
1325.2494   48315   43.4200  -70.2174  33.0     8.7    13.703     29.353     1010.6        333.852959    326.706654    430.922409    421.698123    15.600000     2011-06-16T13:25:14.96Z  
1325.5835   48335   43.4213  -70.2162  33.0     8.8    13.720     29.428     1010.6        334.684828    327.515807    430.827912    421.599327    15.600000     2011-06-16T13:25:35.01Z  
1325.9162   48355   43.4226  -70.2151  33.0     8.7    13.711     29.438     1010.6        335.322308    328.136416    430.758306    421.534826    15.600000     2011-06-16T13:25:54.97Z  
1326.2502   48375   43.4239  -70.2138  34.0     8.8    13.696     29.435     1010.6        335.802388    328.605246    431.027486    421.789257    15.600000     2011-06-16T13:26:15.01Z  
1326.5829   48395   43.4252  -70.2127  32.0     8.7    13.673     29.421     1010.6        336.184347    328.988014    431.073229    421.848031    15.600000     2011-06-16T13:26:34.97Z  
1326.9170   48415   43.4266  -70.2116  31.0     8.7    13.642     29.381     1010.6        336.649118    329.450226    430.682820    421.472961    15.600000     2011-06-16T13:26:55.02Z  
1327.2496   48435   43.4279  -70.2105  31.0     8.7    13.614     29.366     1010.6        336.748426    329.561657    430.628983    421.436249    15.600000     2011-06-16T13:27:14.98Z  
1327.5837   48455   43.4292  -70.2093  33.0     8.7    13.621     29.320     1010.6        336.682801    329.495562    430.803867    421.607252    15.600000     2011-06-16T13:27:35.02Z  
1327.9163   48475   43.4306  -70.2081  31.0     8.7    13.638     29.291     1010.6        336.697836    329.500046    430.816358    421.606391    15.600000     2011-06-16T13:27:54.98Z  
1328.2504   48495   43.4319  -70.2070  32.0     8.7    13.647     29.294     1010.6        336.291853    329.098227    430.690077    421.477019    15.600000     2011-06-16T13:28:15.02Z  
1328.5830   48515   43.4332  -70.2058  32.0     8.8    13.653     29.308     1010.6        335.889129    328.705882    430.517901    421.310795    15.600000     2011-06-16T13:28:34.98Z  
1328.9171   48535   43.4346  -70.2047  32.0     8.8    13.680     29.329     1010.6        335.727564    328.535708    430.769061    421.541101    15.600000     2011-06-16T13:28:55.03Z  
1329.2498   48555   43.4359  -70.2035  33.0     8.8    13.682     29.362     1010.6        335.540150    328.349216    430.670142    421.440325    15.600000     2011-06-16T13:29:14.99Z  
1329.5838   48575   43.4373  -70.2024  32.0     8.8    13.700     29.318     1010.6        335.440101    328.251279    430.580509    421.352574    15.600000     2011-06-16T13:29:35.03Z  
1329.9165   48595   43.4386  -70.2012  31.0     8.8    13.738     29.304     1010.6        335.638379    328.434558    430.374234    421.136941    15.600000     2011-06-16T13:29:54.99Z  
1330.2506   48615   43.4400  -70.2001  32.0     8.8    13.753     29.310     1010.6        335.666985    328.456108    430.524642    421.275857    15.600000     2011-06-16T13:30:15.04Z  
1330.5832   48635   43.4413  -70.1989  33.0     8.9    13.790     29.327     1010.6        335.857686    328.633289    430.475374    421.215569    15.600000     2011-06-16T13:30:34.99Z  
1330.9173   48655   43.4427  -70.1978  30.0     8.8    13.817     29.354     1010.6        336.135328    328.897793    430.399882    421.132532    15.600000     2011-06-16T13:30:55.04Z  
1331.2499   48675   43.4441  -70.1967  30.0     8.9    13.830     29.367     1010.6        336.358654    329.110304    430.406968    421.131769    15.600000     2011-06-16T13:31:14.99Z  
1331.5840   48695   43.4454  -70.1955  35.0     8.8    13.796     29.361     1010.6        336.757369    329.513512    430.232799    420.978074    15.600000     2011-06-16T13:31:35.04Z  
1331.9166   48715   43.4467  -70.1943  34.0     8.8    13.769     29.361     1010.6        336.945204    329.705550    430.197452    420.955104    15.600000     2011-06-16T13:31:55.00Z  
1332.2507   48735   43.4480  -70.1931  33.0     8.7    13.756     29.391     1010.6        337.150849    329.913307    nd            nd            15.600000     2011-06-16T13:32:15.04Z  
1332.5834   48755   43.4493  -70.1918  38.0     8.7    13.722     29.400     1010.6        337.273154    330.041982    nd            nd            15.600000     2011-06-16T13:32:35.00Z  
1332.9160   48775   43.4505  -70.1905  36.0     8.7    13.695     29.410     1010.6        337.275819    330.053757    430.030341    420.824250    15.600000     2011-06-16T13:32:54.96Z  
1333.2501   48795   43.4518  -70.1893  35.0     8.7    13.672     29.439     1010.6        337.145467    329.934738    430.065606    420.865511    15.600000     2011-06-16T13:33:15.01Z  
1333.5827   48815   43.4531  -70.1880  36.0     8.7    13.638     29.497     1010.6        336.933722    329.743414    429.648521    420.477025    15.600000     2011-06-16T13:33:34.96Z  
1333.9168   48835   43.4544  -70.1867  36.0     8.7    13.579     29.579     1010.6        336.878916    329.713028    nd            nd            15.600000     2011-06-16T13:33:55.01Z  
1334.2494   48855   43.4556  -70.1855  36.0     8.6    13.521     29.617     1010.6        336.682421    329.538544    429.600693    420.488585    15.600000     2011-06-16T13:34:14.96Z  
1334.5835   48875   43.4569  -70.1842  36.0     8.6    13.501     29.644     1010.6        336.357335    329.232843    429.780378    420.674186    15.600000     2011-06-16T13:34:35.01Z  
1334.9162   48895   43.4581  -70.1829  37.0     8.6    13.488     29.619     1010.6        335.951661    328.840463    nd            nd            15.600000     2011-06-16T13:34:54.97Z  
1335.2502   48915   43.4594  -70.1816  37.0     8.7    13.475     29.589     1010.7        335.407123    328.312972    429.430237    420.344265    15.600000     2011-06-16T13:35:15.01Z  
1335.5829   48935   43.4606  -70.1803  37.0     8.6    13.482     29.563     1010.7        335.038798    327.951359    429.320761    420.238727    15.600000     2011-06-16T13:35:34.97Z  
1335.9170   48955   43.4619  -70.1791  37.0     8.7    13.474     29.558     1010.7        334.682917    327.606729    429.381183    420.302645    15.600000     2011-06-16T13:35:55.02Z  
1336.2496   48975   43.4631  -70.1778  36.0     8.6    13.460     29.568     1010.7        334.403852    327.343954    429.279266    420.216213    15.600000     2011-06-16T13:36:14.98Z  
1336.5837   48995   43.4644  -70.1766  36.0     8.7    13.459     29.575     1010.7        334.091643    327.040575    429.337888    420.276479    15.600000     2011-06-16T13:36:35.02Z  
1336.9163   49015   43.4657  -70.1754  34.0     8.6    13.457     29.553     1010.7        333.776620    326.738349    429.212061    420.161211    15.600000     2011-06-16T13:36:54.98Z  
1337.2504   49035   43.4669  -70.1741  37.0     8.6    13.441     29.523     1010.7        333.556426    326.523776    429.182246    420.133291    15.600000     2011-06-16T13:37:15.02Z  
1337.5830   49055   43.4682  -70.1728  37.0     8.6    13.438     29.493     1010.7        333.398668    326.373442    429.156182    420.113055    15.600000     2011-06-16T13:37:34.98Z  
1337.9171   49075   43.4694  -70.1716  35.0     8.6    13.433     29.474     1010.7        333.258992    326.243612    429.129108    420.095429    15.600000     2011-06-16T13:37:55.03Z  
1338.2498   49095   43.4707  -70.1704  36.0     8.6    13.415     29.461     1010.7        333.191181    326.178680    429.059034    420.028700    15.600000     2011-06-16T13:38:14.99Z  
1338.5838   49115   43.4719  -70.1691  37.0     8.6    13.410     29.451     1010.7        332.915949    325.914018    429.015440    419.992179    15.600000     2011-06-16T13:38:35.03Z  
1338.9165   49135   43.4731  -70.1678  39.0     8.5    13.407     29.447     1010.7        332.668828    325.671682    428.988309    419.965086    15.600000     2011-06-16T13:38:54.99Z  
1339.2506   49155   43.4743  -70.1664  40.0     8.6    13.404     29.446     1010.7        332.316123    325.325859    428.777497    419.758010    15.600000     2011-06-16T13:39:15.04Z  
1339.5832   49175   43.4755  -70.1651  39.0     8.6    13.393     29.447     1010.7        332.096838    325.113829    428.776049    419.760009    15.600000     2011-06-16T13:39:34.99Z  
1339.9173   49195   43.4768  -70.1637  37.0     8.6    13.378     29.449     1010.7        331.780308    324.813716    428.696938    419.695175    15.600000     2011-06-16T13:39:55.04Z  
1340.2499   49215   43.4780  -70.1624  38.0     8.6    13.358     29.450     1010.7        331.617522    324.655673    428.681529    419.681795    15.600000     2011-06-16T13:40:14.99Z  
1340.5840   49235   43.4792  -70.1612  37.0     8.6    13.347     29.456     1010.7        331.296484    324.343749    428.502416    419.509515    15.600000     2011-06-16T13:40:35.04Z  
1340.9166   49255   43.4804  -70.1598  38.0     8.6    13.338     29.463     1010.7        331.058972    324.111519    428.550363    419.556843    15.600000     2011-06-16T13:40:55.00Z  
1341.2493   49275   43.4816  -70.1585  40.0     8.6    13.315     29.468     1010.7        330.829176    323.897323    428.410143    419.433521    15.600000     2011-06-16T13:41:14.96Z  
1341.5834   49295   43.4828  -70.1571  40.0     8.6    13.348     29.447     1010.7        330.841096    323.895089    428.402851    419.408375    15.600000     2011-06-16T13:41:35.00Z  
1341.9160   49315   43.4840  -70.1557  42.0     8.6    13.407     29.394     1010.7        330.604995    323.647385    428.390380    419.374709    15.600000     2011-06-16T13:41:54.96Z  
1342.2501   49335   43.4851  -70.1543  40.0     8.6    13.465     29.366     1010.7        330.514671    323.542225    428.314345    419.278583    15.600000     2011-06-16T13:42:15.01Z  
1342.5827   49355   43.4863  -70.1530  40.0     8.6    13.516     29.361     1010.7        330.699221    323.706952    428.374500    419.316838    15.600000     2011-06-16T13:42:34.96Z  
1342.9168   49375   43.4875  -70.1516  41.0     8.6    13.557     29.358     1010.7        330.790462    323.780786    428.353334    419.276074    15.600000     2011-06-16T13:42:55.01Z  
1343.2494   49395   43.4887  -70.1502  40.0     8.5    13.591     29.354     1010.7        331.028868    324.004687    428.318916    419.230163    15.600000     2011-06-16T13:43:14.96Z  
1343.5835   49415   43.4898  -70.1488  42.0     8.6    13.623     29.348     1010.7        331.499265    324.453243    428.232823    419.130566    15.600000     2011-06-16T13:43:35.01Z  
1343.9162   49435   43.4910  -70.1474  42.0     8.6    13.636     29.347     1010.7        331.807435    324.750328    428.239875    419.131623    15.600000     2011-06-16T13:43:54.97Z  
1344.2502   49455   43.4921  -70.1460  42.0     8.5    13.675     29.355     1010.7        332.208978    325.132348    428.140499    419.020202    15.600000     2011-06-16T13:44:15.01Z  
1344.5829   49475   43.4933  -70.1446  42.0     8.5    13.727     29.351     1010.7        332.736180    325.627303    428.221123    419.072073    15.600000     2011-06-16T13:44:34.97Z  
1344.9170   49495   43.4944  -70.1431  42.0     8.6    13.753     29.342     1010.7        333.126651    326.006356    428.071142    418.921341    15.600000     2011-06-16T13:44:55.02Z  
1345.2496   49515   43.4956  -70.1417  42.0     8.6    13.762     29.336     1010.7        333.537791    326.402363    428.080402    418.923975    15.600000     2011-06-16T13:45:14.98Z  
1345.5837   49535   43.4967  -70.1403  41.0     8.6    13.804     29.339     1010.7        333.993602    326.834059    427.840286    418.668881    15.600000     2011-06-16T13:45:35.02Z  
1345.9163   49555   43.4978  -70.1388  44.0     8.6    13.852     29.342     1010.7        334.465865    327.279048    427.765046    418.595542    15.600000     2011-06-16T13:45:54.98Z  
1346.2504   49575   43.4990  -70.1374  43.0     8.6    13.884     29.342     1010.7        334.982150    327.777057    427.884004    418.682685    15.600000     2011-06-16T13:46:15.02Z  
1346.5830   49595   43.5001  -70.1359  42.0     8.6    13.903     29.347     1010.7        335.415617    328.190016    427.577702    418.364441    15.600000     2011-06-16T13:46:34.98Z  
1346.9171   49615   43.5012  -70.1345  43.0     8.6    13.936     29.361     1010.7        335.980559    328.736893    427.489851    418.273121    15.600000     2011-06-16T13:46:55.03Z  
1347.2498   49635   43.5024  -70.1330  44.0     8.6    13.964     29.373     1010.7        336.547355    329.280861    427.439301    418.210193    15.600000     2011-06-16T13:47:14.99Z  
1347.5838   49655   43.5035  -70.1315  43.0     8.6    13.980     29.371     1010.7        336.907326    329.626657    427.557562    418.316886    15.600000     2011-06-16T13:47:35.03Z  
1347.9165   49675   43.5046  -70.1300  46.0     8.6    13.983     29.368     1010.7        337.498301    330.201386    427.216557    417.978214    15.600000     2011-06-16T13:47:54.99Z  
1348.2506   49695   43.5057  -70.1285  47.0     8.6    14.002     29.365     1010.6        338.074386    330.752804    427.119627    417.869482    15.600000     2011-06-16T13:48:15.04Z  
1348.5832   49715   43.5067  -70.1269  48.0     8.7    14.024     29.365     1010.6        338.478135    331.140440    427.068581    417.810239    15.600000     2011-06-16T13:48:34.99Z  
1348.9173   49735   43.5078  -70.1254  45.0     8.6    14.051     29.380     1010.6        338.846116    331.491789    426.909195    417.645531    15.600000     2011-06-16T13:48:55.04Z  
1349.2499   49755   43.5089  -70.1239  45.0     8.6    14.078     29.388     1010.6        339.164955    331.792248    426.790890    417.513246    15.600000     2011-06-16T13:49:14.99Z  
1349.5840   49775   43.5100  -70.1223  46.0     8.6    14.083     29.389     1010.6        339.422048    332.035094    426.617901    417.333137    15.600000     2011-06-16T13:49:35.04Z  
1349.9166   49795   43.5110  -70.1208  47.0     8.6    14.075     29.397     1010.6        339.846114    332.452814    426.395367    417.119062    15.600000     2011-06-16T13:49:55.00Z  
1350.2493   49815   43.5121  -70.1192  46.0     8.6    14.067     29.440     1010.6        340.204991    332.801248    426.217203    416.941471    15.600000     2011-06-16T13:50:14.96Z  
1350.5834   49835   43.5132  -70.1177  45.0     8.6    14.043     29.445     1010.6        340.537757    333.135274    426.147428    416.883858    15.600000     2011-06-16T13:50:35.00Z  
1350.9160   49855   43.5142  -70.1162  48.0     8.5    14.060     29.375     1010.6        340.500989    333.091469    426.093292    416.821089    15.600000     2011-06-16T13:50:54.96Z  
1351.2501   49875   43.5153  -70.1146  48.0     8.6    14.080     29.354     1010.6        340.720050    333.296134    426.072348    416.788560    15.600000     2011-06-16T13:51:15.01Z  
1351.5827   49895   43.5163  -70.1130  49.0     8.5    14.092     29.381     1010.6        340.679147    333.252748    426.034061    416.748398    15.600000     2011-06-16T13:51:34.96Z  
1351.9168   49915   43.5173  -70.1115  49.0     8.5    14.123     29.385     1010.6        340.657094    333.213686    425.802242    416.510973    15.600000     2011-06-16T13:51:55.01Z  
1352.2494   49935   43.5182  -70.1098  53.0     8.5    14.140     29.379     1010.6        340.767699    333.314129    425.936025    416.617085    15.600000     2011-06-16T13:52:14.96Z  
1352.5835   49955   43.5191  -70.1080  55.0     8.6    14.155     29.380     1010.5        340.755502    333.291297    425.749112    416.422219    15.600000     2011-06-16T13:52:35.01Z  
1352.9162   49975   43.5200  -70.1063  54.0     8.6    14.165     29.384     1010.5        340.777404    333.312339    425.750117    416.425394    15.600000     2011-06-16T13:52:54.97Z  
1353.2502   49995   43.5209  -70.1046  56.0     8.6    14.172     29.384     1010.6        340.790071    333.324156    425.702974    416.376685    15.600000     2011-06-16T13:53:15.01Z  
1353.5829   50015   43.5218  -70.1028  56.0     8.6    14.175     29.373     1010.6        340.738886    333.275258    425.862075    416.535187    15.600000     2011-06-16T13:53:34.97Z  
1353.9170   50035   43.5226  -70.1011  54.0     8.6    14.195     29.371     1010.5        340.761985    333.286759    425.673672    416.337198    15.600000     2011-06-16T13:53:55.02Z  
1354.2496   50055   43.5236  -70.0994  50.0     8.6    14.199     29.400     1010.5        340.946378    333.466816    425.431352    416.097514    15.600000     2011-06-16T13:54:14.98Z  
1354.5837   50075   43.5247  -70.0978  48.0     8.7    14.176     29.437     1010.5        340.961501    333.486929    425.551159    416.222070    15.600000     2011-06-16T13:54:35.02Z  
1354.9163   50095   43.5258  -70.0964  43.0     8.7    14.185     29.473     1010.5        340.948382    333.472939    425.895068    416.566858    15.600000     2011-06-16T13:54:54.98Z  
1355.2504   50115   43.5271  -70.0950  38.0     8.7    14.212     29.461     1010.6        341.141930    333.655216    425.553740    416.212048    15.600000     2011-06-16T13:55:15.02Z  
1355.5830   50135   43.5284  -70.0939  31.0     8.7    14.229     29.498     1010.5        341.368752    333.870531    425.590901    416.242587    15.600000     2011-06-16T13:55:34.98Z  
1355.9171   50155   43.5298  -70.0929  25.0     8.7    14.272     29.482     1010.5        341.478757    333.960615    425.816914    416.441816    15.600000     2011-06-16T13:55:55.03Z  
1356.2498   50175   43.5313  -70.0921  22.0     8.8    14.332     29.461     1010.6        341.687637    334.149275    425.716349    416.323240    15.600000     2011-06-16T13:56:14.99Z  
1356.5838   50195   43.5327  -70.0913  24.0     8.8    14.365     29.491     1010.5        342.178251    334.617463    425.751365    416.343807    15.600000     2011-06-16T13:56:35.03Z  
1356.9165   50215   43.5342  -70.0904  24.0     8.8    14.316     29.533     1010.6        342.552245    335.003994    425.819361    416.436147    15.600000     2011-06-16T13:56:54.99Z  
1357.2506   50235   43.5356  -70.0895  24.0     8.8    14.237     29.591     1010.6        343.192961    335.654362    425.667466    416.317087    15.600000     2011-06-16T13:57:15.04Z  
1357.5832   50255   43.5371  -70.0886  23.0     8.8    14.087     29.688     1010.6        343.491950    336.002792    425.733074    416.450673    15.600000     2011-06-16T13:57:34.99Z  
1357.9173   50275   43.5385  -70.0878  24.0     8.8    13.962     29.814     1010.6        343.791568    336.335616    425.563454    416.333955    15.600000     2011-06-16T13:57:55.04Z  
1358.2499   50295   43.5399  -70.0869  24.0     8.7    13.807     30.031     1010.6        343.602741    336.202204    425.423810    416.260881    15.600000     2011-06-16T13:58:14.99Z  
1358.5840   50315   43.5414  -70.0860  23.0     8.7    13.811     29.771     1010.6        343.040850    335.648389    425.487288    416.317982    15.600000     2011-06-16T13:58:35.04Z  
1358.9166   50335   43.5428  -70.0852  23.0     8.7    13.971     29.539     1010.5        342.353015    334.913750    425.496676    416.250579    15.600000     2011-06-16T13:58:55.00Z  
1359.2493   50355   43.5442  -70.0843  24.0     8.7    14.060     29.479     1010.5        341.353948    333.911410    425.311251    416.038053    15.600000     2011-06-16T13:59:14.96Z  
1359.5834   50375   43.5457  -70.0834  24.0     8.8    14.107     29.464     1010.5        341.070155    333.618092    425.272939    415.980781    15.600000     2011-06-16T13:59:35.00Z  
1359.9002   50394   43.5471  -70.0826  24.0     8.7    14.154     29.462     1010.5        340.954263    333.486038    nd            nd            16.033333     2011-06-16T13:59:54.01Z  
1400.2501   50415   43.5485  -70.0816  25.0     8.7    14.188     29.461     1010.5        341.102163    333.618427    nd            nd            18.200000     2011-06-16T14:00:15.01Z  
1400.5827   50435   43.5500  -70.0807  24.0     8.8    14.188     29.469     1010.5        341.296806    333.805298    nd            nd            18.200000     2011-06-16T14:00:34.96Z  
1400.9168   50455   43.5514  -70.0799  23.0     8.7    14.196     29.454     1010.5        341.604159    334.100786    nd            nd            18.200000     2011-06-16T14:00:55.01Z  
1401.2494   50475   43.5529  -70.0790  23.0     8.7    14.243     29.426     1010.5        341.765558    334.241189    nd            nd            18.200000     2011-06-16T14:01:14.96Z  
1401.5835   50495   43.5543  -70.0782  23.0     8.7    14.276     29.417     1010.5        342.066633    334.522940    nd            nd            18.200000     2011-06-16T14:01:35.01Z  
1401.9162   50515   43.5558  -70.0773  23.0     8.8    14.250     29.458     1010.5        342.229074    334.688209    424.755511    415.397007    18.200000     2011-06-16T14:01:54.97Z  
1402.2502   50535   43.5572  -70.0764  25.0     8.8    14.208     29.496     1010.5        342.580300    335.046856    424.498324    415.163343    18.200000     2011-06-16T14:02:15.01Z  
1402.5829   50555   43.5587  -70.0755  25.0     8.7    14.186     29.509     1010.5        342.830809    335.298927    424.329547    415.007037    18.200000     2011-06-16T14:02:34.97Z  
1402.9170   50575   43.5601  -70.0746  25.0     8.8    14.164     29.536     1010.5        343.291765    335.756164    424.131005    414.820773    18.200000     2011-06-16T14:02:55.02Z  
1403.2496   50595   43.5615  -70.0737  23.0     8.8    14.078     29.641     1010.5        343.591208    336.077537    424.119407    414.844603    18.200000     2011-06-16T14:03:14.98Z  
1403.5837   50615   43.5630  -70.0729  22.0     8.8    13.974     29.742     1010.5        344.090483    336.596879    423.884833    414.653332    18.200000     2011-06-16T14:03:35.02Z  
1403.9163   50635   43.5644  -70.0720  25.0     8.8    13.950     29.797     1010.5        344.516914    337.021156    423.996043    414.771142    18.200000     2011-06-16T14:03:54.98Z  
1404.2504   50655   43.5659  -70.0712  24.0     8.8    13.923     29.827     1010.5        344.395498    336.908471    nd            nd            18.200000     2011-06-16T14:04:15.02Z  
1404.5830   50675   43.5673  -70.0703  24.0     8.8    13.908     29.735     1010.5        344.138454    336.662348    423.697920    414.482227    18.200000     2011-06-16T14:04:34.98Z  
1404.9171   50695   43.5688  -70.0694  23.0     8.9    13.814     29.811     1010.5        344.092370    336.644908    423.789995    414.617444    18.200000     2011-06-16T14:04:55.03Z  
1405.2498   50715   43.5703  -70.0685  25.0     8.9    13.652     29.926     1010.5        343.536957    336.153227    423.643094    414.537503    18.200000     2011-06-16T14:05:14.99Z  
1405.5838   50735   43.5717  -70.0676  23.0     8.9    13.503     30.056     1010.5        342.884175    335.566390    423.638969    414.597602    18.200000     2011-06-16T14:05:35.03Z  
1405.9165   50755   43.5732  -70.0667  23.0     8.9    13.286     30.221     1010.5        341.946939    334.713429    423.570971    414.610695    18.200000     2011-06-16T14:05:54.99Z  
1406.2506   50775   43.5747  -70.0659  23.0     9.0    13.116     30.298     1010.5        340.982427    333.825951    423.541202    414.651875    18.200000     2011-06-16T14:06:15.04Z  
1406.5832   50795   43.5762  -70.0649  25.0     8.9    12.950     30.448     1010.5        339.601573    332.523502    423.507049    414.680078    18.200000     2011-06-16T14:06:34.99Z  
1406.9173   50815   43.5776  -70.0640  25.0     9.0    12.766     30.593     1010.5        338.140730    331.152410    423.416879    414.661691    18.200000     2011-06-16T14:06:55.04Z  
1407.2499   50835   43.5791  -70.0631  23.0     9.0    12.791     30.414     1010.5        336.313454    329.353481    nd            nd            18.200000     2011-06-16T14:07:14.99Z  
1407.5840   50855   43.5806  -70.0622  25.0     9.0    13.007     30.187     1010.5        334.434297    327.448035    423.432409    414.582297    18.200000     2011-06-16T14:07:35.04Z  
1407.9166   50875   43.5821  -70.0613  23.0     9.0    13.069     30.160     1010.5        332.637514    325.671655    423.298879    414.434299    18.200000     2011-06-16T14:07:55.00Z  
1408.2507   50895   43.5836  -70.0604  24.0     9.0    13.087     30.205     1010.5        331.849959    324.899818    423.239448    414.375130    18.200000     2011-06-16T14:08:15.04Z  
1408.5834   50915   43.5850  -70.0596  23.0     8.9    13.091     30.265     1010.5        331.600199    324.655584    423.597363    414.742509    18.200000     2011-06-16T14:08:35.00Z  
1408.9160   50935   43.5865  -70.0587  23.0     9.0    13.232     30.229     1010.5        331.498171    324.511352    423.251970    414.362314    18.200000     2011-06-16T14:08:54.96Z  
1409.2501   50955   43.5880  -70.0578  25.0     9.0    13.259     30.174     1010.5        331.688334    324.690546    422.933198    413.993230    18.200000     2011-06-16T14:09:15.01Z  
1409.5827   50975   43.5895  -70.0568  25.0     9.1    13.181     30.206     1010.5        332.117971    325.133118    422.920454    414.025763    18.200000     2011-06-16T14:09:34.96Z  
1409.9168   50995   43.5909  -70.0560  23.0     8.5    13.068     30.227     1010.5        332.839139    325.885546    422.853383    413.995580    18.200000     2011-06-16T14:09:55.01Z  
1410.2494   51015   43.5917  -70.0556  15.0     4.1    12.944     30.267     1010.6        333.088474    326.175877    nd            nd            18.200000     2011-06-16T14:10:14.96Z  
1410.5835   51035   43.5922  -70.0555  15.0     2.7    13.005     30.124     1010.6        333.031622    326.102692    nd            nd            18.200000     2011-06-16T14:10:35.01Z  
1410.9162   51055   43.5926  -70.0553  17.0     2.6    13.066     30.092     1010.6        332.571854    325.631295    nd            nd            18.200000     2011-06-16T14:10:54.97Z  
1411.2502   51075   43.5930  -70.0551  18.0     2.6    13.206     30.028     1010.6        331.916140    324.951641    nd            nd            18.200000     2011-06-16T14:11:15.01Z  
1411.5829   51095   43.5935  -70.0549  16.0     2.5    13.445     29.978     1010.6        331.367828    324.338600    nd            nd            18.200000     2011-06-16T14:11:34.97Z  
1411.9170   51115   43.5939  -70.0547  15.0     2.5    13.424     30.020     1010.6        331.002291    323.991417    nd            nd            18.200000     2011-06-16T14:11:55.02Z  
1412.2496   51135   43.5944  -70.0546  15.0     2.5    13.645     29.803     1010.6        331.162069    324.079994    nd            nd            18.200000     2011-06-16T14:12:14.98Z  
1412.5837   51155   43.5948  -70.0544  16.0     2.5    13.803     29.790     1010.6        331.613647    324.474584    nd            nd            18.200000     2011-06-16T14:12:35.02Z  
1412.9163   51175   43.5952  -70.0542  17.0     2.7    13.888     29.717     1010.6        332.134304    324.954232    nd            nd            18.200000     2011-06-16T14:12:54.98Z  
1413.2504   51195   43.5962  -70.0537  23.0     6.2    13.885     29.785     1010.5        333.096565    325.889407    nd            nd            18.200000     2011-06-16T14:13:15.02Z  
1413.5830   51215   43.5976  -70.0528  23.0     8.2    13.569     30.011     1010.5        334.239921    327.105839    423.098488    414.092865    18.200000     2011-06-16T14:13:34.98Z  
1413.9171   51235   43.5990  -70.0520  23.0     8.6    13.218     30.159     1010.5        335.170353    328.128011    422.969241    414.081962    18.200000     2011-06-16T14:13:55.03Z  
1414.2498   51255   43.6005  -70.0511  24.0     8.9    13.101     30.081     1010.5        335.754752    328.736767    422.926965    414.086757    18.200000     2011-06-16T14:14:14.99Z  
1414.5838   51275   43.6020  -70.0503  23.0     9.0    13.357     29.868     1010.5        335.304068    328.214616    422.950257    414.007525    18.200000     2011-06-16T14:14:35.03Z  
1414.9165   51295   43.6035  -70.0494  23.0     9.1    13.262     30.016     1010.5        334.044939    327.011969    423.102960    414.195202    18.200000     2011-06-16T14:14:54.99Z  
1415.2506   51315   43.6049  -70.0485  24.0     9.0    13.233     29.963     1010.6        333.102069    326.100006    422.840027    413.935541    18.200000     2011-06-16T14:15:15.04Z  
1415.5832   51335   43.6064  -70.0476  22.0     9.0    13.272     29.926     1010.6        332.468757    325.473560    422.992331    414.096240    18.200000     2011-06-16T14:15:34.99Z  
1415.9173   51355   43.6080  -70.0468  22.0     9.0    13.421     29.787     1010.6        331.826090    324.798593    422.840676    413.874336    18.200000     2011-06-16T14:15:55.04Z  
1416.2499   51375   43.6094  -70.0459  24.0     9.0    13.681     29.613     1010.6        331.257771    324.162004    423.058091    413.999933    18.200000     2011-06-16T14:16:14.99Z  
1416.5840   51395   43.6109  -70.0450  23.0     9.0    13.784     29.579     1010.6        331.405557    324.277077    422.722049    413.608050    18.200000     2011-06-16T14:16:35.04Z  
1416.9166   51415   43.6124  -70.0440  29.0     8.9    13.901     29.524     1010.6        332.036202    324.857574    422.817576    413.676130    18.200000     2011-06-16T14:16:55.00Z  
1417.2507   51435   43.6137  -70.0428  32.0     8.8    14.069     29.476     1010.6        333.328442    326.067838    423.080524    413.876936    18.200000     2011-06-16T14:17:15.04Z  
1417.5834   51455   43.6150  -70.0416  34.0     8.9    14.135     29.426     1010.6        334.787494    327.472885    422.508183    413.273775    18.200000     2011-06-16T14:17:35.00Z  
1417.9160   51475   43.6164  -70.0404  32.0     8.9    14.300     29.260     1010.6        336.364662    328.957740    422.585891    413.280217    18.200000     2011-06-16T14:17:54.96Z  
1418.2501   51495   43.6177  -70.0392  35.0     8.9    14.426     29.229     1010.6        337.773158    330.298169    422.494633    413.144638    18.200000     2011-06-16T14:18:15.01Z  
1418.5827   51515   43.6190  -70.0380  32.0     8.9    14.509     29.214     1010.6        339.386083    331.850846    422.406428    413.027793    18.200000     2011-06-16T14:18:34.96Z  
1418.9168   51535   43.6204  -70.0368  32.0     8.9    14.562     29.205     1010.6        341.310705    333.715801    422.362967    412.964373    18.200000     2011-06-16T14:18:55.01Z  
1419.2494   51555   43.6217  -70.0356  34.0     8.9    14.711     29.167     1010.6        343.216602    335.531404    422.267207    412.811838    18.200000     2011-06-16T14:19:14.96Z  
1419.5835   51575   43.6231  -70.0343  35.0     8.9    14.834     29.137     1010.6        345.017421    337.247286    422.301825    412.791052    18.200000     2011-06-16T14:19:35.01Z  
1419.9162   51595   43.6243  -70.0330  36.0     8.8    14.850     29.138     1010.6        346.893359    339.076841    422.179235    412.666194    18.200000     2011-06-16T14:19:54.97Z  
1420.2502   51615   43.6257  -70.0318  34.0     8.9    14.821     29.146     1010.6        348.931575    341.079315    422.221922    412.720446    18.200000     2011-06-16T14:20:15.01Z  
1420.5829   51635   43.6270  -70.0306  32.0     9.0    14.802     29.151     1010.6        350.853656    342.963685    422.162457    412.668785    18.200000     2011-06-16T14:20:34.97Z  
1420.9170   51655   43.6284  -70.0295  31.0     8.9    14.826     29.156     1010.6        352.454910    344.523702    422.128036    412.628892    18.200000     2011-06-16T14:20:55.02Z  
1421.2496   51675   43.6298  -70.0283  33.0     8.9    14.878     29.159     1010.6        353.499945    345.527719    422.207802    412.685961    18.200000     2011-06-16T14:21:14.98Z  
1421.5837   51695   43.6311  -70.0271  34.0     8.9    14.875     29.156     1010.6        354.345211    346.353649    421.940956    412.424796    18.200000     2011-06-16T14:21:35.02Z  
1421.9163   51715   43.6324  -70.0258  36.0     8.9    14.865     29.156     1010.6        355.154516    347.150232    422.037616    412.525855    18.200000     2011-06-16T14:21:54.98Z  
1422.2504   51735   43.6337  -70.0245  36.0     8.9    14.852     29.160     1010.6        355.956260    347.936304    422.092894    412.582732    18.200000     2011-06-16T14:22:15.02Z  
1422.5830   51755   43.6350  -70.0232  35.0     8.9    14.882     29.163     1010.6        356.549779    348.506218    421.960760    412.441462    18.200000     2011-06-16T14:22:34.98Z  
1422.9171   51775   43.6364  -70.0220  33.0     9.0    14.983     29.167     1010.6        356.952737    348.859254    422.016300    412.447484    18.200000     2011-06-16T14:22:55.03Z  
1423.2498   51795   43.6377  -70.0208  32.0     8.9    15.035     29.170     1010.6        357.493196    349.371110    422.275253    412.683745    18.200000     2011-06-16T14:23:14.99Z  
1423.5838   51815   43.6390  -70.0196  35.0     9.0    15.007     29.176     1010.6        357.997177    349.873161    422.228653    412.646926    18.200000     2011-06-16T14:23:35.03Z  
1423.9165   51835   43.6404  -70.0183  33.0     9.0    14.921     29.179     1010.6        358.973120    350.861549    422.103471    412.564999    18.200000     2011-06-16T14:23:54.99Z  
1424.2506   51855   43.6417  -70.0171  34.0     8.9    14.852     29.189     1010.6        359.726967    351.621747    422.250111    412.737280    18.200000     2011-06-16T14:24:15.04Z  
1424.5832   51875   43.6431  -70.0159  34.0     9.0    14.779     29.188     1010.6        360.115611    352.027886    422.270737    412.785726    18.200000     2011-06-16T14:24:34.99Z  
1424.9173   51895   43.6444  -70.0146  33.0     9.0    14.757     29.187     1010.6        360.133880    352.052581    422.402360    412.921623    18.200000     2011-06-16T14:24:55.04Z  
1425.2499   51915   43.6458  -70.0135  30.0     8.5    14.737     29.180     1010.6        359.970055    351.909661    422.578456    413.110930    18.200000     2011-06-16T14:25:14.99Z  
1425.5840   51935   43.6465  -70.0131  22.0     4.2    14.735     29.176     1010.7        359.385216    351.347613    nd            nd            18.200000     2011-06-16T14:25:35.04Z  
1425.9166   51955   43.6468  -70.0130  14.0     1.6    14.756     29.175     1010.6        358.834267    350.798935    nd            nd            18.200000     2011-06-16T14:25:55.00Z  
1426.2493   51975   43.6470  -70.0129  40.0     0.9    14.763     29.173     1010.6        358.520737    350.488625    nd            nd            18.200000     2011-06-16T14:26:14.96Z  
1426.5834   51995   43.6472  -70.0129  138.0    1.2    14.772     29.171     1010.6        358.082813    350.051851    nd            nd            18.200000     2011-06-16T14:26:35.00Z  
1426.9160   52015   43.6475  -70.0122  58.0     3.8    14.823     29.174     1010.6        357.888338    349.835746    nd            nd            18.200000     2011-06-16T14:26:54.96Z  
1427.2501   52035   43.6481  -70.0110  52.0     5.7    14.868     29.175     1010.6        357.754739    349.691963    nd            nd            18.200000     2011-06-16T14:27:15.01Z  
1427.5827   52055   43.6491  -70.0099  39.0     7.7    14.893     29.174     1010.6        357.894017    349.803513    423.483363    413.904287    18.200000     2011-06-16T14:27:34.96Z  
1427.9168   52075   43.6505  -70.0087  31.0     9.1    14.888     29.167     1010.6        358.086272    349.992802    nd            nd            18.200000     2011-06-16T14:27:55.01Z  
1428.2494   52095   43.6520  -70.0076  28.0     9.1    14.853     29.150     1010.6        358.551290    350.458945    nd            nd            18.200000     2011-06-16T14:28:14.96Z  
1428.5835   52115   43.6534  -70.0065  32.0     9.0    14.832     29.136     1010.6        358.955944    350.865081    nd            nd            18.200000     2011-06-16T14:28:35.01Z  
1428.9162   52135   43.6548  -70.0052  34.0     9.1    14.799     29.109     1010.6        359.246263    351.161951    nd            nd            18.200000     2011-06-16T14:28:54.97Z  
1429.2502   52155   43.6561  -70.0039  34.0     9.1    14.783     29.089     1010.6        359.013369    350.944283    nd            nd            18.200000     2011-06-16T14:29:15.01Z  
1429.5829   52175   43.6575  -70.0027  33.0     9.1    14.786     29.081     1010.6        358.499170    350.436934    nd            nd            18.200000     2011-06-16T14:29:34.97Z  
1429.9170   52195   43.6589  -70.0015  32.0     9.1    14.828     29.077     1010.6        357.411520    349.358117    nd            nd            18.200000     2011-06-16T14:29:55.02Z  
1430.2496   52215   43.6603  -70.0004  31.0     9.1    14.933     29.069     1010.6        356.407176    348.340484    nd            nd            18.200000     2011-06-16T14:30:14.98Z  
1430.5837   52235   43.6616  -69.9991  33.0     9.1    15.002     29.073     1010.6        355.438312    347.367108    nd            nd            18.200000     2011-06-16T14:30:35.02Z  
1430.9163   52255   43.6630  -69.9979  34.0     9.1    14.941     29.091     1010.6        354.701926    346.669425    nd            nd            18.200000     2011-06-16T14:30:54.98Z  
1431.2504   52275   43.6644  -69.9966  35.0     9.1    14.944     29.109     1010.6        354.395640    346.364373    nd            nd            18.200000     2011-06-16T14:31:15.02Z  
1431.5830   52295   43.6657  -69.9953  32.0     9.2    14.984     29.133     1010.6        354.223999    346.186569    423.743871    414.121813    18.200000     2011-06-16T14:31:34.98Z  
1431.9171   52315   43.6671  -69.9941  34.0     9.2    15.014     29.154     1010.6        354.033682    345.991959    nd            nd            18.200000     2011-06-16T14:31:55.03Z  
1432.2498   52335   43.6685  -69.9928  35.0     9.1    15.000     29.172     1010.6        354.098034    346.063997    423.479001    413.873417    18.200000     2011-06-16T14:32:14.99Z  
1432.5838   52355   43.6698  -69.9915  34.0     9.2    14.967     29.186     1010.6        354.483687    346.454602    423.646985    414.051235    18.200000     2011-06-16T14:32:35.03Z  
1432.9165   52375   43.6712  -69.9903  32.0     9.1    14.959     29.205     1010.6        354.935716    346.899116    423.852181    414.255039    18.200000     2011-06-16T14:32:54.99Z  
1433.2506   52395   43.6726  -69.9890  34.0     9.2    14.990     29.231     1010.6        355.205163    347.148620    423.820712    414.207767    18.200000     2011-06-16T14:33:15.04Z  
1433.5832   52415   43.6740  -69.9878  33.0     9.2    15.062     29.250     1010.6        355.255271    347.170842    423.834890    414.189707    18.200000     2011-06-16T14:33:34.99Z  
1433.9173   52435   43.6753  -69.9865  34.0     9.2    15.207     29.247     1010.6        355.219964    347.082739    424.053796    414.339644    18.200000     2011-06-16T14:33:55.04Z  
1434.2499   52455   43.6767  -69.9852  34.0     9.2    15.246     29.236     1010.6        355.332119    347.174120    424.131547    414.393891    18.200000     2011-06-16T14:34:14.99Z  
1434.5840   52475   43.6777  -69.9836  56.0     8.8    15.271     29.220     1010.5        355.682571    347.493781    424.073841    414.310393    18.200000     2011-06-16T14:34:35.04Z  
1434.9166   52495   43.6773  -69.9816  111.0    8.4    15.232     29.202     1010.5        356.006941    347.822665    nd            nd            18.200000     2011-06-16T14:34:55.00Z  
1435.2493   52515   43.6768  -69.9795  101.0    8.7    15.196     29.199     1010.6        356.240687    348.075367    nd            nd            18.200000     2011-06-16T14:35:14.96Z  
1435.5834   52535   43.6769  -69.9773  87.0     8.9    15.201     29.191     1010.6        356.353530    348.183778    424.231028    414.504200    18.200000     2011-06-16T14:35:35.00Z  
1435.9160   52555   43.6770  -69.9751  86.0     8.9    15.130     29.194     1010.6        356.316336    348.180805    424.039477    414.357560    18.200000     2011-06-16T14:35:54.96Z  
1436.2501   52575   43.6771  -69.9729  88.0     8.9    15.112     29.194     1010.6        356.106203    347.978272    424.185394    414.503482    18.200000     2011-06-16T14:36:15.01Z  
1436.5827   52595   43.6771  -69.9707  89.0     8.9    15.125     29.191     1010.6        355.867232    347.743749    424.351211    414.664389    18.200000     2011-06-16T14:36:34.96Z  
1436.9168   52615   43.6771  -69.9685  90.0     8.9    15.113     29.180     1010.6        355.386623    347.275510    424.538032    414.822801    18.200000     2011-06-16T14:36:55.01Z  
1437.2494   52635   43.6770  -69.9663  93.0     8.9    15.097     29.143     1010.6        355.006388    346.906530    424.086875    414.405150    18.200000     2011-06-16T14:37:14.96Z  
1437.5835   52655   43.6769  -69.9641  95.0     8.9    14.971     29.108     1010.6        354.650495    346.608952    nd            nd            18.200000     2011-06-16T14:37:35.01Z  
1437.9162   52675   43.6768  -69.9619  95.0     8.9    14.826     29.087     1010.6        354.285630    346.305213    424.041013    414.491387    18.200000     2011-06-16T14:37:54.97Z  
1438.2502   52695   43.6766  -69.9597  95.0     8.9    14.811     29.083     1010.6        353.575076    345.617325    423.937163    414.395689    18.200000     2011-06-16T14:38:15.01Z  
1438.5829   52715   43.6765  -69.9575  96.0     8.9    15.075     29.075     1010.6        352.392016    344.367110    423.873249    414.221731    18.200000     2011-06-16T14:38:34.97Z  
1438.9170   52735   43.6763  -69.9553  95.0     8.9    15.154     29.066     1010.6        351.306633    343.280070    423.611531    413.932849    18.200000     2011-06-16T14:38:55.02Z  
1439.2496   52755   43.6761  -69.9531  97.0     8.9    15.078     29.055     1010.6        350.687032    342.703707    423.289771    413.653542    18.200000     2011-06-16T14:39:14.98Z  
1439.5837   52775   43.6760  -69.9509  95.0     8.9    15.060     29.051     1010.6        350.888537    342.907253    423.507172    413.873994    18.200000     2011-06-16T14:39:35.02Z  
1439.9163   52795   43.6758  -69.9487  95.0     8.9    15.146     29.043     1010.6        351.191077    343.179133    423.060659    413.440172    18.200000     2011-06-16T14:39:54.98Z  
1440.2504   52815   43.6757  -69.9465  93.0     9.0    15.175     29.034     1010.6        351.056551    343.038407    423.024732    413.360125    18.200000     2011-06-16T14:40:15.02Z  
1440.5830   52835   43.6756  -69.9443  95.0     9.0    15.245     29.022     1010.6        351.068515    343.026403    422.933608    413.245137    18.200000     2011-06-16T14:40:34.98Z  
1440.9171   52855   43.6754  -69.9420  96.0     9.0    15.332     29.006     1010.6        351.323781    343.244799    422.862936    413.138745    18.200000     2011-06-16T14:40:55.03Z  
1441.2498   52875   43.6753  -69.9398  94.0     8.9    15.312     28.992     1010.6        351.536783    343.465608    422.896130    413.186453    18.200000     2011-06-16T14:41:14.99Z  
1441.5838   52895   43.6752  -69.9376  95.0     9.0    15.256     28.989     1010.6        351.868005    343.810472    422.751855    413.071013    18.200000     2011-06-16T14:41:35.03Z  
1441.9165   52915   43.6750  -69.9354  97.0     9.0    15.139     28.986     1010.7        352.397610    344.371283    422.720900    413.091196    18.200000     2011-06-16T14:41:54.99Z  
1442.2506   52935   43.6748  -69.9332  97.0     9.0    15.039     28.985     1010.7        352.741757    344.743854    422.897558    413.307561    18.200000     2011-06-16T14:42:15.04Z  
1442.5832   52955   43.6746  -69.9310  95.0     9.0    14.962     28.988     1010.7        352.652240    344.693484    422.474563    412.939983    18.200000     2011-06-16T14:42:34.99Z  
1442.9173   52975   43.6746  -69.9287  90.0     9.0    15.015     28.982     1010.7        352.257115    344.290395    422.314383    412.763119    18.200000     2011-06-16T14:42:55.04Z  
1443.2499   52995   43.6745  -69.9265  93.0     9.0    14.966     28.976     1010.7        351.640853    343.705555    422.514091    412.978836    18.200000     2011-06-16T14:43:14.99Z  
1443.5840   53015   43.6743  -69.9243  97.0     9.0    14.864     28.988     1010.7        351.030737    343.150343    422.444950    412.954418    18.200000     2011-06-16T14:43:35.04Z  
1443.9166   53035   43.6743  -69.9221  89.0     9.0    14.815     29.005     1010.7        350.876319    343.022912    421.686442    412.261254    18.200000     2011-06-16T14:43:55.00Z  
1444.2493   53055   43.6747  -69.9199  74.0     9.0    14.821     29.039     1010.7        350.637340    342.786120    421.616231    412.183458    18.200000     2011-06-16T14:44:14.96Z  
1444.5834   53075   43.6754  -69.9179  64.0     9.1    14.916     29.077     1010.7        350.198769    342.330243    421.427535    411.948396    18.200000     2011-06-16T14:44:35.00Z  
1444.9160   53095   43.6763  -69.9159  60.0     9.1    14.996     29.099     1010.7        349.805899    341.915592    420.831655    411.344266    18.200000     2011-06-16T14:44:54.96Z  
1445.2501   53115   43.6771  -69.9140  60.0     9.0    14.933     29.108     1010.7        349.720030    341.860238    421.008296    411.543053    18.200000     2011-06-16T14:45:15.01Z  
1445.5827   53135   43.6779  -69.9120  60.0     9.0    14.927     29.113     1010.7        349.952879    342.086858    420.519690    411.067176    18.200000     2011-06-16T14:45:34.96Z  
1445.9168   53155   43.6787  -69.9101  60.0     9.1    15.052     29.117     1010.7        350.109935    342.196884    420.780909    411.280773    18.200000     2011-06-16T14:45:55.01Z  
1446.2494   53175   43.6795  -69.9081  62.0     9.1    15.015     29.155     1010.7        350.176222    342.274975    420.309078    410.825271    18.200000     2011-06-16T14:46:14.96Z  
1446.5835   53195   43.6803  -69.9061  59.0     9.2    14.844     29.166     1010.7        350.311315    342.467668    420.378582    410.945797    18.200000     2011-06-16T14:46:35.01Z  
1446.9162   53215   43.6812  -69.9042  59.0     9.2    14.634     29.136     1010.7        350.934696    343.151567    419.682890    410.400598    18.200000     2011-06-16T14:46:54.97Z  
1447.2502   53235   43.6820  -69.9022  59.0     9.2    14.474     29.104     1010.8        352.681338    344.919661    419.636104    410.339907    18.200000     2011-06-16T14:47:15.01Z  
1447.5829   53255   43.6829  -69.9003  59.0     9.1    14.278     29.081     1010.8        354.512447    346.780216    nd            nd            18.200000     2011-06-16T14:47:34.97Z  
1447.9170   53275   43.6837  -69.8983  60.0     9.2    14.178     29.065     1010.8        355.909896    348.180125    nd            nd            18.200000     2011-06-16T14:47:55.02Z  
1448.2496   53295   43.6845  -69.8963  62.0     9.2    14.188     29.044     1010.8        356.483070    348.745184    nd            nd            18.200000     2011-06-16T14:48:14.98Z  
1448.5837   53315   43.6852  -69.8943  62.0     9.2    14.403     28.935     1010.8        356.455270    348.646479    nd            nd            18.200000     2011-06-16T14:48:35.02Z  
1448.9163   53335   43.6859  -69.8923  65.0     9.1    14.520     28.814     1010.8        356.174362    348.330080    nd            nd            18.200000     2011-06-16T14:48:54.98Z  
1449.2504   53355   43.6865  -69.8902  71.0     9.1    14.578     28.724     1010.8        356.241540    348.380402    nd            nd            18.200000     2011-06-16T14:49:15.02Z  
1449.5830   53375   43.6869  -69.8880  75.0     9.1    14.537     28.681     1010.8        356.978709    349.112712    nd            nd            18.200000     2011-06-16T14:49:34.98Z  
1449.9171   53395   43.6874  -69.8858  74.0     9.1    14.466     28.710     1010.8        357.586205    349.734357    411.156867    402.148617    18.200000     2011-06-16T14:49:55.03Z  
1450.2498   53415   43.6878  -69.8837  75.0     9.0    14.458     28.704     1010.8        358.146234    350.286795    411.315375    402.294580    18.200000     2011-06-16T14:50:14.99Z  
1450.5838   53435   43.6882  -69.8815  74.0     9.0    14.598     28.595     1010.8        358.269698    350.357922    nd            nd            18.200000     2011-06-16T14:50:35.03Z  
1450.9165   53455   43.6886  -69.8793  76.0     9.0    14.649     28.518     1010.8        358.161282    350.233029    nd            nd            18.200000     2011-06-16T14:50:54.99Z  
1451.2506   53475   43.6891  -69.8772  74.0     8.7    14.687     28.503     1010.9        357.968122    350.047575    409.921711    400.842360    18.200000     2011-06-16T14:51:15.04Z  
1451.5832   53495   43.6893  -69.8757  78.0     6.2    14.814     28.404     1010.9        358.125345    350.181557    nd            nd            18.200000     2011-06-16T14:51:34.99Z  
1451.9173   53515   43.6895  -69.8745  81.0     4.6    14.860     28.364     1010.9        358.227682    350.266855    nd            nd            18.200000     2011-06-16T14:51:55.04Z  
1452.2499   53535   43.6896  -69.8739  78.0     2.4    14.831     28.366     1011.0        358.694945    350.739087    nd            nd            18.200000     2011-06-16T14:52:14.99Z  
1452.5840   53555   43.6896  -69.8737  69.0     0.8    14.823     28.366     1011.0        359.325393    351.360089    nd            nd            18.200000     2011-06-16T14:52:35.04Z  
1452.9166   53575   43.6897  -69.8733  68.0     2.2    14.781     28.352     1010.9        359.846623    351.867890    nd            nd            18.200000     2011-06-16T14:52:55.00Z  
1453.2507   53595   43.6899  -69.8721  76.0     5.2    14.755     27.949     1010.9        360.366206    352.374243    nd            nd            18.200000     2011-06-16T14:53:15.04Z  
1453.5834   53615   43.6903  -69.8703  74.0     7.6    14.854     26.931     1010.8        360.551449    352.490688    nd            nd            18.200000     2011-06-16T14:53:35.00Z  
1453.9160   53635   43.6904  -69.8682  90.0     8.4    14.987     25.941     1010.8        361.103823    352.979110    406.628375    397.469425    18.200000     2011-06-16T14:53:54.96Z  
1454.2501   53655   43.6899  -69.8662  109.0    8.5    14.977     25.483     1010.8        362.482929    354.330034    406.869931    397.713363    18.200000     2011-06-16T14:54:15.01Z  
1454.5827   53675   43.6893  -69.8643  113.0    8.5    14.967     25.116     1010.8        366.504959    358.260683    406.435611    397.291910    18.200000     2011-06-16T14:54:34.96Z  
1454.9168   53695   43.6888  -69.8623  109.0    8.5    14.973     24.897     1010.8        372.413071    364.039904    406.301905    397.177820    18.200000     2011-06-16T14:54:55.01Z  
1455.2494   53715   43.6883  -69.8602  108.0    8.6    15.023     24.738     1010.8        378.708390    370.167516    nd            nd            18.200000     2011-06-16T14:55:14.96Z  
1455.5835   53735   43.6878  -69.8582  106.0    8.5    14.989     24.681     1010.8        384.704668    376.048058    406.377303    397.237291    18.200000     2011-06-16T14:55:35.01Z  
1455.9162   53755   43.6877  -69.8561  95.0     8.5    15.034     24.409     1010.8        390.129812    381.336439    406.407933    397.247666    18.200000     2011-06-16T14:55:54.97Z  
1456.2502   53775   43.6875  -69.8541  99.0     8.1    15.126     24.214     1010.9        394.502856    385.592214    406.466341    397.276601    18.200000     2011-06-16T14:56:15.01Z  
1456.5829   53795   43.6872  -69.8528  107.0    4.9    15.129     24.124     1011.0        398.731924    389.757189    nd            nd            18.200000     2011-06-16T14:56:34.97Z  
1456.9170   53815   43.6871  -69.8524  117.0    1.7    15.109     24.070     1011.0        402.651234    393.601635    nd            nd            18.200000     2011-06-16T14:56:55.02Z  
1457.2496   53835   43.6870  -69.8523  140.0    0.5    15.142     23.978     1011.0        405.543810    396.419029    nd            nd            18.200000     2011-06-16T14:57:14.98Z  
1457.5837   53855   43.6870  -69.8523  193.0    0.3    15.306     23.807     1011.0        407.923875    398.677037    nd            nd            18.200000     2011-06-16T14:57:35.02Z  
1457.9163   53875   43.6869  -69.8523  189.0    0.6    15.567     23.633     1011.0        409.970256    400.562424    nd            nd            18.200000     2011-06-16T14:57:54.98Z  
1458.2504   53895   43.6866  -69.8526  216.0    2.0    15.756     23.586     1010.9        412.246499    402.685404    nd            nd            18.200000     2011-06-16T14:58:15.02Z  
1458.5830   53915   43.6860  -69.8535  227.0    5.4    15.796     23.620     1010.9        415.180945    405.534353    nd            nd            18.200000     2011-06-16T14:58:34.98Z  
1458.9171   53935   43.6854  -69.8550  244.0    7.1    15.868     23.567     1010.9        418.839453    409.062752    nd            nd            18.200000     2011-06-16T14:58:55.03Z  
1459.2498   53955   43.6850  -69.8571  256.0    8.6    16.049     23.486     1010.9        421.560192    411.624813    nd            nd            18.200000     2011-06-16T14:59:14.99Z  
1459.5838   53975   43.6846  -69.8593  253.0    9.5    16.234     23.533     1010.9        424.435276    414.345350    405.600334    395.956586    18.200000     2011-06-16T14:59:35.03Z  
1459.9006   53994   43.6840  -69.8615  250.0    9.7    16.283     23.762     1010.9        426.934595    416.756908    nd            nd            18.266667     2011-06-16T14:59:54.04Z  
1500.2506   54015   43.6834  -69.8638  250.0    9.6    16.067     24.290     1010.9        430.177081    420.036235    nd            nd            18.600000     2011-06-16T15:00:15.04Z  
1500.5832   54035   43.6828  -69.8661  250.0    9.5    15.774     24.693     1010.9        433.483976    423.409464    406.300963    396.891563    18.600000     2011-06-16T15:00:34.99Z  
1500.9173   54055   43.6821  -69.8683  249.0    9.5    15.346     25.175     1010.9        436.229203    426.292273    406.114491    396.780560    18.600000     2011-06-16T15:00:55.04Z  
1501.2499   54075   43.6816  -69.8705  254.0    9.5    15.116     25.201     1010.9        436.846451    426.998548    nd            nd            18.600000     2011-06-16T15:01:14.99Z  
1501.5840   54095   43.6812  -69.8728  253.0    9.5    15.137     25.152     1010.9        435.777587    425.952293    nd            nd            18.600000     2011-06-16T15:01:35.04Z  
1501.9166   54115   43.6807  -69.8751  256.0    9.4    15.051     25.528     1010.9        432.758835    423.047202    nd            nd            18.600000     2011-06-16T15:01:55.00Z  
1502.2507   54135   43.6804  -69.8773  259.0    9.3    14.998     26.067     1011.0        428.878236    419.289889    nd            nd            18.600000     2011-06-16T15:02:15.04Z  
1502.5834   54155   43.6801  -69.8796  261.0    9.2    14.834     27.739     1011.0        425.313017    415.886167    nd            nd            18.600000     2011-06-16T15:02:35.00Z  
1502.9160   54175   43.6799  -69.8818  261.0    9.0    14.669     28.282     1011.0        421.945306    412.675982    nd            nd            18.600000     2011-06-16T15:02:54.96Z  
1503.2501   54195   43.6796  -69.8840  260.0    9.1    14.749     28.344     1011.0        417.776067    408.563882    409.461422    400.392074    18.600000     2011-06-16T15:03:15.01Z  
1503.5827   54215   43.6793  -69.8862  259.0    9.1    15.036     28.353     1011.0        410.861012    401.682770    409.534331    400.385648    18.600000     2011-06-16T15:03:34.96Z  
1503.9168   54235   43.6792  -69.8884  267.0    8.9    15.043     28.459     1011.0        402.050649    393.071609    409.498272    400.353011    18.600000     2011-06-16T15:03:55.01Z  
1504.2494   54255   43.6791  -69.8906  266.0    8.9    14.955     28.511     1011.0        393.525339    384.768758    409.366164    400.256802    18.600000     2011-06-16T15:04:14.96Z  
1504.5835   54275   43.6787  -69.8928  257.0    9.0    14.886     28.567     1011.0        386.743230    378.161082    409.365616    400.272920    18.600000     2011-06-16T15:04:35.01Z  
1504.9162   54295   43.6783  -69.8949  255.0    8.9    14.676     28.678     1011.0        381.738572    373.354934    nd            nd            18.600000     2011-06-16T15:04:54.97Z  
1505.2502   54315   43.6779  -69.8971  254.0    9.0    14.442     28.732     1011.0        377.945753    369.730728    409.669635    400.757441    18.600000     2011-06-16T15:05:15.01Z  
1505.5829   54335   43.6775  -69.8992  257.0    9.0    14.353     28.769     1011.0        374.550397    366.443116    409.932498    401.059336    18.600000     2011-06-16T15:05:34.97Z  
1505.9170   54355   43.6771  -69.9014  257.0    9.0    14.276     28.860     1011.0        371.368720    363.362630    409.867330    401.031245    18.600000     2011-06-16T15:05:55.02Z  
1506.2496   54375   43.6767  -69.9036  254.0    9.1    14.271     28.891     1011.0        368.358687    360.413663    409.858728    401.018509    18.600000     2011-06-16T15:06:14.98Z  
1506.5837   54395   43.6763  -69.9057  254.0    9.0    14.450     28.913     1011.0        365.521110    357.573512    409.850985    400.939392    18.600000     2011-06-16T15:06:35.02Z  
1506.9163   54415   43.6758  -69.9079  254.0    9.0    14.548     29.028     1011.0        363.122234    355.191010    409.975475    401.005364    18.600000     2011-06-16T15:06:54.98Z  
1507.2504   54435   43.6754  -69.9100  254.0    9.1    14.506     29.124     1011.0        361.275109    353.384790    409.967413    401.013129    18.600000     2011-06-16T15:07:15.02Z  
1507.5830   54455   43.6750  -69.9122  255.0    9.0    14.561     29.154     1011.0        360.534567    352.651613    409.901754    400.939332    18.600000     2011-06-16T15:07:34.98Z  
1507.9171   54475   43.6745  -69.9144  252.0    9.2    14.631     29.181     1011.0        360.442068    352.529089    410.044441    401.037532    18.600000     2011-06-16T15:07:55.03Z  
1508.2498   54495   43.6740  -69.9165  254.0    8.9    14.708     29.214     1011.0        360.661443    352.732361    410.437553    401.422612    18.600000     2011-06-16T15:08:14.99Z  
1508.5838   54515   43.6738  -69.9177  262.0    4.3    14.855     29.227     1011.1        361.152127    353.182267    nd            nd            18.600000     2011-06-16T15:08:35.03Z  
1508.9165   54535   43.6738  -69.9180  281.0    1.0    14.972     29.182     1011.1        361.812134    353.786390    nd            nd            18.600000     2011-06-16T15:08:54.99Z  
1509.2506   54555   43.6739  -69.9179  38.0     0.2    15.101     29.143     1011.1        363.011949    354.913380    nd            nd            18.600000     2011-06-16T15:09:15.04Z  
1509.5832   54575   43.6739  -69.9179  14.0     0.2    15.155     29.167     1011.1        364.187620    356.045457    nd            nd            18.600000     2011-06-16T15:09:34.99Z  
1509.9173   54595   43.6739  -69.9179  60.0     0.2    14.607     29.346     1011.1        364.178920    356.238812    nd            nd            18.600000     2011-06-16T15:09:55.04Z  
1510.2499   54615   43.6740  -69.9179  281.0    0.2    14.083     29.397     1011.1        363.416007    355.681731    nd            nd            18.600000     2011-06-16T15:10:14.99Z  
1510.5840   54635   43.6740  -69.9179  351.0    0.2    13.805     29.378     1011.1        362.172550    354.559530    nd            nd            18.600000     2011-06-16T15:10:35.04Z  
1510.9166   54655   43.6740  -69.9179  352.0    0.2    13.702     29.333     1011.1        360.149775    352.616487    nd            nd            18.600000     2011-06-16T15:10:55.00Z  
1511.2493   54675   43.6741  -69.9179  351.0    0.2    13.601     29.377     1011.1        357.178735    349.741239    nd            nd            18.600000     2011-06-16T15:11:14.96Z  
1511.5834   54695   43.6741  -69.9179  350.0    0.2    13.488     29.387     1011.1        353.911916    346.580860    nd            nd            18.600000     2011-06-16T15:11:35.00Z  
1511.9160   54715   43.6741  -69.9179  351.0    0.2    13.471     29.314     1011.1        350.806061    343.542333    nd            nd            18.600000     2011-06-16T15:11:54.96Z  
1512.2501   54735   43.6742  -69.9179  345.0    0.2    13.473     29.305     1011.1        347.919219    340.712033    nd            nd            18.600000     2011-06-16T15:12:15.01Z  
1512.5827   54755   43.6742  -69.9180  350.0    0.2    13.503     29.276     1011.1        345.507143    338.341170    nd            nd            18.600000     2011-06-16T15:12:34.96Z  
1512.9168   54775   43.6742  -69.9180  334.0    0.2    13.556     29.255     1011.1        343.451511    336.308541    nd            nd            18.600000     2011-06-16T15:12:55.01Z  
1513.2494   54795   43.6743  -69.9180  353.0    0.2    13.608     29.251     1011.1        342.015363    334.884043    nd            nd            18.600000     2011-06-16T15:13:14.96Z  
1513.5835   54815   43.6743  -69.9180  351.0    0.2    13.685     29.232     1011.1        340.854210    333.723611    nd            nd            18.600000     2011-06-16T15:13:35.01Z  
1513.9162   54835   43.6744  -69.9180  338.0    0.2    13.759     29.221     1011.1        340.087438    332.947532    nd            nd            18.600000     2011-06-16T15:13:54.97Z  
1514.2502   54855   43.6744  -69.9180  251.0    0.2    13.774     29.226     1011.1        339.601453    332.462506    nd            nd            18.600000     2011-06-16T15:14:15.01Z  
1514.5829   54875   43.6744  -69.9180  180.0    0.2    13.712     29.249     1011.1        339.285754    332.172246    nd            nd            18.600000     2011-06-16T15:14:34.97Z  
1514.9170   54895   43.6745  -69.9180  109.0    0.2    13.634     29.261     1011.1        339.172925    332.086829    nd            nd            18.600000     2011-06-16T15:14:55.02Z  
1515.2496   54915   43.6745  -69.9180  233.0    0.2    13.584     29.266     1011.1        339.057664    331.984000    nd            nd            18.600000     2011-06-16T15:15:14.98Z  
1515.5837   54935   43.6746  -69.9180  285.0    0.2    13.570     29.269     1011.0        339.310080    332.232680    nd            nd            18.600000     2011-06-16T15:15:35.02Z  
1515.9163   54955   43.6746  -69.9180  303.0    0.2    13.586     29.260     1011.0        339.338974    332.254000    nd            nd            18.600000     2011-06-16T15:15:54.98Z  
1516.2504   54975   43.6746  -69.9180  352.0    0.2    13.622     29.253     1011.0        339.400161    332.298331    nd            nd            18.600000     2011-06-16T15:16:15.02Z  
1516.5830   54995   43.6747  -69.9180  352.0    0.2    13.623     29.261     1011.0        339.451375    332.345811    nd            nd            18.600000     2011-06-16T15:16:34.98Z  
1516.9171   55015   43.6747  -69.9180  352.0    0.2    13.596     29.259     1011.0        339.458590    332.358284    nd            nd            18.600000     2011-06-16T15:16:55.03Z  
1517.2498   55035   43.6747  -69.9180  349.0    0.2    13.585     29.252     1011.0        339.322534    332.228019    nd            nd            18.600000     2011-06-16T15:17:14.99Z  
1517.5838   55055   43.6748  -69.9180  348.0    0.2    13.572     29.254     1011.0        339.131192    332.044713    nd            nd            18.600000     2011-06-16T15:17:35.03Z  
1517.9165   55075   43.6748  -69.9180  344.0    0.2    13.542     29.269     1011.0        339.105232    332.031318    nd            nd            18.600000     2011-06-16T15:17:54.99Z  
1518.2506   55095   43.6748  -69.9180  343.0    0.2    13.510     29.285     1011.0        339.021802    331.959008    nd            nd            18.600000     2011-06-16T15:18:15.04Z  
1518.5832   55115   43.6749  -69.9180  345.0    0.2    13.495     29.288     1011.0        338.822341    331.768898    nd            nd            18.600000     2011-06-16T15:18:34.99Z  
1518.9173   55135   43.6749  -69.9180  346.0    0.2    13.489     29.294     1011.0        338.692172    331.644198    nd            nd            18.600000     2011-06-16T15:18:55.04Z  
1519.2499   55155   43.6749  -69.9181  345.0    0.2    13.476     29.305     1011.0        338.618435    331.578740    nd            nd            18.600000     2011-06-16T15:19:14.99Z  
1519.5840   55175   43.6750  -69.9181  349.0    0.2    13.503     29.289     1011.0        338.323434    331.283894    nd            nd            18.600000     2011-06-16T15:19:35.04Z  
1519.9166   55195   43.6750  -69.9181  349.0    0.2    13.545     29.286     1011.0        338.247403    331.197322    nd            nd            18.600000     2011-06-16T15:19:55.00Z  
1520.2493   55215   43.6750  -69.9181  347.0    0.2    13.577     29.284     1011.0        338.079492    331.025531    nd            nd            18.600000     2011-06-16T15:20:14.96Z  
1520.5834   55235   43.6751  -69.9181  349.0    0.2    13.604     29.272     1011.1        337.902276    330.848294    nd            nd            18.600000     2011-06-16T15:20:35.00Z  
1520.9160   55255   43.6751  -69.9181  285.0    0.2    13.628     29.266     1011.1        337.795192    330.735366    nd            nd            18.600000     2011-06-16T15:20:54.96Z  
1521.2501   55275   43.6751  -69.9181  303.0    0.2    13.631     29.267     1011.1        337.928428    330.866083    nd            nd            18.600000     2011-06-16T15:21:15.01Z  
1521.5827   55295   43.6752  -69.9181  216.0    0.2    13.619     29.269     1011.1        337.988427    330.930758    nd            nd            18.600000     2011-06-16T15:21:34.96Z  
1521.9168   55315   43.6752  -69.9181  284.0    0.2    13.547     29.301     1011.1        338.320850    331.280651    nd            nd            18.600000     2011-06-16T15:21:55.01Z  
1522.2494   55335   43.6752  -69.9181  319.0    0.2    13.452     29.340     1011.1        338.403882    331.392981    nd            nd            18.600000     2011-06-16T15:22:14.96Z  
1522.5835   55355   43.6753  -69.9181  318.0    0.2    13.384     29.362     1011.1        338.444550    331.454097    nd            nd            18.600000     2011-06-16T15:22:35.01Z  
1522.9162   55375   43.6753  -69.9181  350.0    0.2    13.360     29.360     1011.1        338.520579    331.536682    nd            nd            18.600000     2011-06-16T15:22:54.97Z  
1523.2502   55395   43.6754  -69.9181  350.0    0.2    13.400     29.330     1011.1        338.499259    331.507196    nd            nd            18.600000     2011-06-16T15:23:15.01Z  
1523.5829   55415   43.6754  -69.9181  352.0    0.2    13.462     29.320     1011.1        338.271034    331.266054    nd            nd            18.600000     2011-06-16T15:23:34.97Z  
1523.9170   55435   43.6754  -69.9181  352.0    0.2    13.445     29.348     1011.1        338.165818    331.169641    nd            nd            18.600000     2011-06-16T15:23:55.02Z  
1524.2496   55455   43.6755  -69.9181  351.0    0.2    13.494     29.305     1011.1        338.055565    331.045105    nd            nd            18.600000     2011-06-16T15:24:14.98Z  
1524.5837   55475   43.6755  -69.9181  348.0    0.2    13.553     29.287     1011.1        338.078671    331.053431    nd            nd            18.600000     2011-06-16T15:24:35.02Z  
1524.9163   55495   43.6755  -69.9182  350.0    0.2    13.542     29.318     1011.1        338.091158    331.068156    nd            nd            18.600000     2011-06-16T15:24:54.98Z  
1525.2504   55515   43.6756  -69.9182  348.0    0.2    13.494     29.344     1011.1        338.193848    331.186853    nd            nd            18.600000     2011-06-16T15:25:15.02Z  
1525.5830   55535   43.6756  -69.9182  349.0    0.2    13.466     29.355     1011.1        338.333160    331.333210    nd            nd            18.600000     2011-06-16T15:25:34.98Z  
1525.9171   55555   43.6756  -69.9182  352.0    0.2    13.420     29.374     1011.1        338.446412    331.458991    nd            nd            18.600000     2011-06-16T15:25:55.03Z  
1526.2498   55575   43.6757  -69.9182  320.0    0.2    13.432     29.348     1011.1        338.565225    331.572878    nd            nd            18.600000     2011-06-16T15:26:14.99Z  
1526.5838   55595   43.6757  -69.9182  268.0    0.2    13.519     29.288     1011.1        338.351490    331.335669    nd            nd            18.600000     2011-06-16T15:26:35.03Z  
1526.9165   55615   43.6757  -69.9182  216.0    0.2    13.629     29.251     1011.1        337.994417    330.951298    nd            nd            18.600000     2011-06-16T15:26:54.99Z  
1527.2506   55635   43.6758  -69.9182  357.0    0.2    13.678     29.248     1011.1        337.730771    330.680150    nd            nd            18.600000     2011-06-16T15:27:15.04Z  
1527.5832   55655   43.6758  -69.9182  353.0    0.2    13.661     29.266     1011.1        337.725541    330.680353    nd            nd            18.600000     2011-06-16T15:27:34.99Z  
1527.9173   55675   43.6758  -69.9182  309.0    0.4    13.654     29.271     1011.1        337.891281    330.844195    nd            nd            18.600000     2011-06-16T15:27:55.04Z  
1528.2499   55695   43.6757  -69.9186  246.0    1.5    13.694     29.247     1011.1        338.288739    331.222236    nd            nd            18.600000     2011-06-16T15:28:14.99Z  
1528.5840   55715   43.6757  -69.9188  247.0    0.9    13.807     29.217     1011.1        338.740667    331.628019    nd            nd            18.600000     2011-06-16T15:28:35.04Z  
1528.9166   55735   43.6756  -69.9189  255.0    0.5    13.941     29.218     1011.1        339.197423    332.031917    nd            nd            18.600000     2011-06-16T15:28:55.00Z  
1529.2493   55755   43.6756  -69.9190  268.0    0.3    14.421     29.175     1011.1        339.587954    332.256043    nd            nd            18.600000     2011-06-16T15:29:14.96Z  
1529.5834   55775   43.6756  -69.9191  282.0    0.3    14.903     29.145     1011.1        339.807767    332.308403    nd            nd            18.600000     2011-06-16T15:29:35.00Z  
1529.9160   55795   43.6756  -69.9191  299.0    0.2    15.129     29.141     1011.1        340.366331    332.778843    nd            nd            18.600000     2011-06-16T15:29:54.96Z  
1530.2501   55815   43.6757  -69.9192  305.0    0.2    15.080     29.167     1011.1        341.906882    334.303116    nd            nd            18.600000     2011-06-16T15:30:15.01Z  
1530.5827   55835   43.6757  -69.9192  310.0    0.2    14.735     29.228     1011.1        344.249821    336.712526    nd            nd            18.600000     2011-06-16T15:30:34.96Z  
1530.9168   55855   43.6757  -69.9192  319.0    0.2    14.465     29.262     1011.1        346.790661    339.292196    nd            nd            18.600000     2011-06-16T15:30:55.01Z  
1531.2494   55875   43.6757  -69.9192  326.0    0.2    14.125     29.334     1011.1        348.902926    341.472357    nd            nd            18.600000     2011-06-16T15:31:14.96Z  
1531.5835   55895   43.6757  -69.9192  326.0    0.2    13.830     29.366     1011.1        350.012619    342.656269    nd            nd            18.600000     2011-06-16T15:31:35.01Z  
1531.9162   55915   43.6758  -69.9193  331.0    0.2    13.670     29.376     1011.1        350.131935    342.824752    nd            nd            18.600000     2011-06-16T15:31:54.97Z  
1532.2502   55935   43.6758  -69.9193  335.0    0.2    13.601     29.367     1011.1        349.290780    342.020256    nd            nd            18.600000     2011-06-16T15:32:15.01Z  
1532.5829   55955   43.6758  -69.9193  337.0    0.2    13.543     29.375     1011.1        347.736070    340.514165    nd            nd            18.600000     2011-06-16T15:32:34.97Z  
1532.9170   55975   43.6759  -69.9193  345.0    0.2    13.523     29.369     1011.1        345.662219    338.485221    nd            nd            18.600000     2011-06-16T15:32:55.02Z  
1533.2496   55995   43.6759  -69.9193  344.0    0.2    13.556     29.332     1011.1        343.629330    336.481710    nd            nd            18.600000     2011-06-16T15:33:14.98Z  
1533.5837   56015   43.6759  -69.9193  349.0    0.2    13.635     29.292     1011.1        341.648027    334.513988    nd            nd            18.600000     2011-06-16T15:33:35.02Z  
1533.9163   56035   43.6760  -69.9193  348.0    0.2    13.752     29.255     1011.1        339.948332    332.808765    nd            nd            18.600000     2011-06-16T15:33:54.98Z  
1534.2504   56055   43.6760  -69.9193  348.0    0.2    13.809     29.243     1011.1        338.656188    331.520174    nd            nd            18.600000     2011-06-16T15:34:15.02Z  
1534.5830   56075   43.6760  -69.9194  345.0    0.2    13.833     29.240     1011.0        337.994797    330.861366    nd            nd            18.600000     2011-06-16T15:34:34.98Z  
1534.9171   56095   43.6761  -69.9194  348.0    0.2    13.852     29.231     1011.0        337.729697    330.594083    nd            nd            18.600000     2011-06-16T15:34:55.03Z  
1535.2498   56115   43.6761  -69.9194  354.0    0.2    13.836     29.235     1011.0        337.609893    330.480101    nd            nd            18.600000     2011-06-16T15:35:14.99Z  
1535.5838   56135   43.6761  -69.9194  351.0    0.2    13.805     29.245     1011.0        337.775451    330.650205    nd            nd            18.600000     2011-06-16T15:35:35.03Z  
1535.9165   56155   43.6762  -69.9194  349.0    0.2    13.768     29.248     1011.0        337.948503    330.828308    nd            nd            18.600000     2011-06-16T15:35:54.99Z  
1536.2506   56175   43.6762  -69.9194  349.0    0.2    13.795     29.235     1011.0        337.994642    330.866395    nd            nd            18.600000     2011-06-16T15:36:15.04Z  
1536.5832   56195   43.6762  -69.9194  346.0    0.2    13.819     29.237     1011.0        337.858705    330.725953    nd            nd            18.600000     2011-06-16T15:36:34.99Z  
1536.9173   56215   43.6763  -69.9194  348.0    0.2    13.807     29.244     1011.0        337.918966    330.787943    nd            nd            18.600000     2011-06-16T15:36:55.04Z  
1537.2499   56235   43.6763  -69.9194  348.0    0.2    13.819     29.232     1011.0        338.237346    331.094022    nd            nd            18.600000     2011-06-16T15:37:14.99Z  
1537.5840   56255   43.6763  -69.9194  346.0    0.2    13.916     29.210     1011.0        338.558927    331.376689    nd            nd            18.600000     2011-06-16T15:37:35.04Z  
1537.9166   56275   43.6764  -69.9195  342.0    0.2    13.950     29.225     1011.0        338.847011    331.644887    nd            nd            18.600000     2011-06-16T15:37:55.00Z  
1538.2507   56295   43.6764  -69.9195  343.0    0.2    13.897     29.242     1011.0        339.067751    331.874837    nd            nd            18.600000     2011-06-16T15:38:15.04Z  
1538.5834   56315   43.6764  -69.9195  345.0    0.2    13.853     29.256     1011.0        339.118985    331.941303    nd            nd            18.600000     2011-06-16T15:38:35.00Z  
1538.9160   56335   43.6765  -69.9195  347.0    0.2    13.764     29.290     1011.0        339.227951    332.077998    nd            nd            18.600000     2011-06-16T15:38:54.96Z  
1539.2501   56355   43.6765  -69.9195  347.0    0.2    13.669     29.316     1011.0        339.373237    332.249440    nd            nd            18.600000     2011-06-16T15:39:15.01Z  
1539.5827   56375   43.6765  -69.9195  344.0    0.2    13.611     29.317     1011.0        339.376094    332.272974    nd            nd            18.600000     2011-06-16T15:39:34.96Z  
1539.9168   56395   43.6766  -69.9196  344.0    0.2    13.614     29.299     1011.0        339.262532    332.158862    nd            nd            18.600000     2011-06-16T15:39:55.01Z  
1540.2494   56415   43.6766  -69.9196  338.0    0.2    13.615     29.288     1011.0        338.940267    331.844792    nd            nd            18.600000     2011-06-16T15:40:14.96Z  
1540.5835   56435   43.6766  -69.9196  335.0    0.2    13.602     29.292     1011.0        338.583087    331.499148    nd            nd            18.600000     2011-06-16T15:40:35.01Z  
1540.9162   56455   43.6767  -69.9196  336.0    0.2    13.611     29.292     1011.0        338.360129    331.278959    nd            nd            18.600000     2011-06-16T15:40:54.97Z  
1541.2502   56475   43.6767  -69.9196  338.0    0.2    13.614     29.297     1011.0        338.231602    331.149732    nd            nd            18.600000     2011-06-16T15:41:15.01Z  
1541.5829   56495   43.6767  -69.9196  344.0    0.2    13.614     29.299     1011.0        338.074544    330.998352    nd            nd            18.600000     2011-06-16T15:41:34.97Z  
1541.9170   56515   43.6768  -69.9196  346.0    0.2    13.598     29.303     1011.0        337.973023    330.904842    nd            nd            18.600000     2011-06-16T15:41:55.02Z  
1542.2496   56535   43.6768  -69.9197  348.0    0.2    13.582     29.299     1011.0        337.915584    330.853683    nd            nd            18.600000     2011-06-16T15:42:14.98Z  
1542.5837   56555   43.6768  -69.9197  349.0    0.2    13.594     29.283     1011.0        337.737227    330.675281    nd            nd            18.600000     2011-06-16T15:42:35.02Z  
1542.9163   56575   43.6769  -69.9197  349.0    0.2    13.626     29.272     1011.0        337.464096    330.398821    nd            nd            18.600000     2011-06-16T15:42:54.98Z  
1543.2504   56595   43.6769  -69.9197  347.0    0.2    13.657     29.266     1011.0        337.413253    330.335270    nd            nd            18.600000     2011-06-16T15:43:15.02Z  
1543.5830   56615   43.6770  -69.9197  348.0    0.2    13.630     29.284     1011.0        337.318361    330.251722    nd            nd            18.600000     2011-06-16T15:43:34.98Z  
1543.9171   56635   43.6770  -69.9197  351.0    0.2    13.573     29.310     1011.0        337.464724    330.411999    nd            nd            18.600000     2011-06-16T15:43:55.03Z  
1544.2498   56655   43.6770  -69.9197  352.0    0.2    13.523     29.329     1011.0        337.661992    330.618124    nd            nd            18.600000     2011-06-16T15:44:14.99Z  
1544.5838   56675   43.6771  -69.9197  355.0    0.2    13.488     29.339     1011.0        337.950469    330.911092    nd            nd            18.600000     2011-06-16T15:44:35.03Z  
1544.9165   56695   43.6771  -69.9197  353.0    0.2    13.471     29.324     1011.0        338.194435    331.152325    nd            nd            18.600000     2011-06-16T15:44:54.99Z  
1545.2506   56715   43.6771  -69.9197  354.0    0.2    13.522     29.288     1011.0        338.135489    331.077219    nd            nd            18.600000     2011-06-16T15:45:15.04Z  
1545.5832   56735   43.6772  -69.9197  351.0    0.2    13.549     29.283     1011.0        337.954676    330.887644    nd            nd            18.600000     2011-06-16T15:45:34.99Z  
1545.9173   56755   43.6772  -69.9197  350.0    0.2    13.547     29.284     1011.0        337.724911    330.661977    nd            nd            18.600000     2011-06-16T15:45:55.04Z  
1546.2499   56775   43.6772  -69.9197  350.0    0.2    13.552     29.282     1011.0        337.696824    330.629720    nd            nd            18.600000     2011-06-16T15:46:14.99Z  
1546.5840   56795   43.6773  -69.9197  353.0    0.2    13.581     29.273     1011.0        337.767259    330.689801    nd            nd            18.600000     2011-06-16T15:46:35.04Z  
1546.9166   56815   43.6773  -69.9198  356.0    0.2    13.718     29.236     1011.0        337.882362    330.757344    nd            nd            18.600000     2011-06-16T15:46:55.00Z  
1547.2507   56835   43.6774  -69.9198  109.0    0.2    13.826     29.226     1010.9        337.787420    330.625403    nd            nd            18.600000     2011-06-16T15:47:15.04Z  
1547.5834   56855   43.6774  -69.9197  74.0     0.2    13.796     29.244     1010.9        337.706213    330.558694    nd            nd            18.600000     2011-06-16T15:47:35.00Z  
1547.9160   56875   43.6774  -69.9198  356.0    0.2    13.681     29.271     1010.9        337.559914    330.450693    nd            nd            18.600000     2011-06-16T15:47:54.96Z  
1548.2501   56895   43.6775  -69.9198  350.0    0.2    13.604     29.282     1010.9        337.730523    330.642221    nd            nd            18.600000     2011-06-16T15:48:15.01Z  
1548.5827   56915   43.6775  -69.9198  351.0    0.2    13.621     29.267     1010.9        337.707113    330.611214    nd            nd            18.600000     2011-06-16T15:48:34.96Z  
1548.9168   56935   43.6775  -69.9198  350.0    0.2    13.672     29.255     1010.9        337.719685    330.605058    nd            nd            18.600000     2011-06-16T15:48:55.01Z  
1549.2494   56955   43.6776  -69.9198  346.0    0.2    13.657     29.265     1010.9        337.717804    330.607770    nd            nd            18.600000     2011-06-16T15:49:14.96Z  
1549.5835   56975   43.6776  -69.9198  342.0    0.2    13.637     29.272     1010.9        337.551325    330.445389    nd            nd            18.600000     2011-06-16T15:49:35.01Z  
1549.9162   56995   43.6777  -69.9198  343.0    0.2    13.626     29.282     1010.9        337.505858    330.403655    nd            nd            18.600000     2011-06-16T15:49:54.97Z  
1550.2502   57015   43.6777  -69.9198  346.0    0.2    13.633     29.277     1010.9        337.497275    330.387351    nd            nd            18.600000     2011-06-16T15:50:15.01Z  
1550.5829   57035   43.6777  -69.9199  350.0    0.2    13.660     29.276     1010.9        337.349271    330.233514    nd            nd            18.600000     2011-06-16T15:50:34.97Z  
1550.9170   57055   43.6778  -69.9199  302.0    0.5    13.612     29.300     1010.9        337.161526    330.057766    nd            nd            18.600000     2011-06-16T15:50:55.02Z  
1551.2496   57075   43.6775  -69.9206  240.0    3.4    13.619     29.278     1010.8        336.969361    329.858381    nd            nd            18.600000     2011-06-16T15:51:14.98Z  
1551.5837   57095   43.6769  -69.9217  236.0    5.8    13.733     29.247     1010.8        336.893833    329.738983    nd            nd            18.600000     2011-06-16T15:51:35.02Z  
1551.9163   57115   43.6762  -69.9231  233.0    6.9    14.045     29.210     1010.8        336.746409    329.494511    nd            nd            18.600000     2011-06-16T15:51:54.98Z  
1552.2504   57135   43.6754  -69.9245  235.0    7.2    14.696     29.149     1010.8        336.747044    329.268829    nd            nd            18.600000     2011-06-16T15:52:15.02Z  
1552.5830   57155   43.6749  -69.9264  251.0    8.2    15.053     29.127     1010.8        337.023914    329.411151    nd            nd            18.600000     2011-06-16T15:52:34.98Z  
1552.9171   57175   43.6744  -69.9285  250.0    8.7    15.234     29.119     1010.7        338.148903    330.442256    nd            nd            18.600000     2011-06-16T15:52:55.03Z  
1553.2498   57195   43.6740  -69.9306  256.0    8.8    15.330     29.109     1010.7        340.489659    332.698288    nd            nd            18.600000     2011-06-16T15:53:14.99Z  
1553.5838   57215   43.6737  -69.9328  259.0    8.8    15.327     29.085     1010.7        343.326972    335.472148    nd            nd            18.600000     2011-06-16T15:53:35.03Z  
1553.9165   57235   43.6735  -69.9350  265.0    9.0    15.272     29.060     1010.7        346.341340    338.435056    nd            nd            18.600000     2011-06-16T15:53:54.99Z  
1554.2506   57255   43.6735  -69.9372  268.0    8.9    15.164     29.044     1010.8        348.799398    340.883249    nd            nd            18.600000     2011-06-16T15:54:15.04Z  
1554.5832   57275   43.6735  -69.9394  271.0    9.0    15.153     29.032     1010.7        351.024596    343.056859    419.928765    410.388145    18.600000     2011-06-16T15:54:34.99Z  
1554.9173   57295   43.6736  -69.9417  272.0    9.1    15.198     29.020     1010.8        352.604192    344.594260    nd            nd            18.600000     2011-06-16T15:54:55.04Z  
1555.2499   57315   43.6736  -69.9439  273.0    9.2    15.223     29.017     1010.8        353.487940    345.445091    418.972699    409.439379    18.600000     2011-06-16T15:55:14.99Z  
1555.5840   57335   43.6737  -69.9462  272.0    9.2    15.299     29.019     1010.7        353.945911    345.857966    419.204169    409.626586    18.600000     2011-06-16T15:55:35.04Z  
1555.9166   57355   43.6739  -69.9485  276.0    9.1    15.422     29.017     1010.8        354.314849    346.181720    nd            nd            18.600000     2011-06-16T15:55:55.00Z  
1556.2493   57375   43.6740  -69.9507  274.0    9.2    15.524     29.017     1010.7        354.609265    346.421852    nd            nd            18.600000     2011-06-16T15:56:14.96Z  
1556.5834   57395   43.6742  -69.9530  275.0    9.3    15.465     29.018     1010.7        355.082235    346.907758    418.901757    409.257657    18.600000     2011-06-16T15:56:35.00Z  
1556.9160   57415   43.6744  -69.9553  277.0    9.1    15.473     29.017     1010.8        355.685405    347.500371    418.774894    409.137946    18.600000     2011-06-16T15:56:54.96Z  
1557.2501   57435   43.6745  -69.9575  275.0    9.1    15.439     29.016     1010.8        356.496946    348.305822    418.720044    409.099136    18.600000     2011-06-16T15:57:15.01Z  
1557.5827   57455   43.6747  -69.9598  275.0    9.2    15.389     29.017     1010.8        357.106939    348.919013    418.825372    409.222238    18.600000     2011-06-16T15:57:34.96Z  
1557.9168   57475   43.6748  -69.9620  275.0    9.1    15.343     29.026     1010.8        357.419608    349.241652    418.863535    409.279616    18.600000     2011-06-16T15:57:55.01Z  
1558.2494   57495   43.6750  -69.9643  276.0    9.2    15.238     29.036     1010.8        357.652764    349.512903    418.749426    409.218953    18.600000     2011-06-16T15:58:14.96Z  
1558.5835   57515   43.6751  -69.9666  274.0    9.2    15.154     29.044     1010.8        357.425512    349.316030    418.915088    409.407781    18.600000     2011-06-16T15:58:35.01Z  
1558.9162   57535   43.6752  -69.9688  274.0    9.1    15.155     29.049     1010.8        357.273146    349.173184    418.922272    409.424529    18.600000     2011-06-16T15:58:54.97Z  
1559.2502   57555   43.6753  -69.9711  274.0    9.2    15.191     29.059     1010.8        356.708488    348.605848    419.079780    409.560283    18.600000     2011-06-16T15:59:15.01Z  
1559.5829   57575   43.6754  -69.9733  275.0    9.2    15.211     29.073     1010.8        356.027109    347.932357    419.191983    409.659972    18.600000     2011-06-16T15:59:34.97Z  
1559.8997   57594   43.6756  -69.9755  274.0    9.2    15.252     29.080     1010.8        355.123610    347.035265    nd            nd            18.933333     2011-06-16T15:59:53.98Z  
1600.2496   57615   43.6756  -69.9779  274.0    9.2    15.391     29.086     1010.8        354.562104    346.440391    419.039495    409.440737    20.600000     2011-06-16T16:00:14.98Z  
1600.5837   57635   43.6758  -69.9802  274.0    9.1    15.453     29.094     1010.8        354.098075    345.964456    419.143698    409.515882    20.600000     2011-06-16T16:00:35.02Z  
1600.9163   57655   43.6759  -69.9824  274.0    9.2    15.443     29.105     1010.8        354.091692    345.960451    419.130751    409.504742    20.600000     2011-06-16T16:00:54.98Z  
1601.2504   57675   43.6759  -69.9847  272.0    9.2    15.455     29.116     1010.8        354.329963    346.182102    419.184430    409.550980    20.600000     2011-06-16T16:01:15.02Z  
1601.5830   57695   43.6761  -69.9870  275.0    9.2    15.544     29.135     1010.8        354.897888    346.704576    419.202827    409.518949    20.600000     2011-06-16T16:01:34.98Z  
1601.9171   57715   43.6762  -69.9893  274.0    9.2    15.738     29.166     1010.7        355.459015    347.168258    419.299576    409.519715    20.600000     2011-06-16T16:01:55.03Z  
1602.2498   57735   43.6763  -69.9915  275.0    9.1    15.858     29.201     1010.8        355.855909    347.517703    419.286605    409.460950    20.600000     2011-06-16T16:02:14.99Z  
1602.5838   57755   43.6764  -69.9938  272.0    9.4    15.842     29.220     1010.7        356.424934    348.071463    419.225693    409.400268    20.600000     2011-06-16T16:02:35.03Z  
1602.9165   57775   43.6765  -69.9961  274.0    9.2    15.820     29.225     1010.7        357.495453    349.124376    419.333812    409.514638    20.600000     2011-06-16T16:02:54.99Z  
1603.2506   57795   43.6767  -69.9984  275.0    9.2    15.853     29.223     1010.7        358.924283    350.507036    419.295269    409.461224    20.600000     2011-06-16T16:03:15.04Z  
1603.5832   57815   43.6767  -70.0007  273.0    9.2    15.906     29.222     1010.7        360.209943    351.743574    419.302404    409.447038    20.600000     2011-06-16T16:03:34.99Z  
1603.9173   57835   43.6769  -70.0029  274.0    9.1    15.925     29.232     1010.7        361.392628    352.884019    419.416344    409.541542    20.600000     2011-06-16T16:03:55.04Z  
1604.2499   57855   43.6770  -70.0052  274.0    9.2    15.946     29.249     1010.7        362.304812    353.772901    419.704424    409.826094    20.600000     2011-06-16T16:04:14.99Z  
1604.5840   57875   43.6772  -70.0074  276.0    9.2    15.996     29.259     1010.7        363.280976    354.703761    419.116171    409.218370    20.600000     2011-06-16T16:04:35.04Z  
1604.9166   57895   43.6774  -70.0097  278.0    9.1    15.977     29.243     1010.7        364.134534    355.549930    419.257245    409.373015    20.600000     2011-06-16T16:04:55.00Z  
1605.2493   57915   43.6776  -70.0119  276.0    9.1    15.849     29.218     1010.7        364.859470    356.305501    419.350633    409.519039    20.600000     2011-06-16T16:05:14.96Z  
1605.5834   57935   43.6778  -70.0141  278.0    9.0    15.742     29.191     1010.7        365.616199    357.090010    419.137797    409.360845    20.600000     2011-06-16T16:05:35.00Z  
1605.9160   57955   43.6780  -70.0164  276.0    9.1    15.694     29.156     1010.7        366.299057    357.773332    419.345988    409.586527    20.600000     2011-06-16T16:05:54.96Z  
1606.2501   57975   43.6781  -70.0186  276.0    9.2    15.583     29.133     1010.7        366.706601    358.213057    419.219404    409.509492    20.600000     2011-06-16T16:06:15.01Z  
1606.5827   57995   43.6783  -70.0209  277.0    9.1    15.430     29.128     1010.7        366.632597    358.205230    419.280678    409.643070    20.600000     2011-06-16T16:06:34.96Z  
1606.9168   58015   43.6785  -70.0231  276.0    9.2    15.330     29.132     1010.7        366.385943    357.998430    419.418599    409.816950    20.600000     2011-06-16T16:06:55.01Z  
1607.2494   58035   43.6787  -70.0254  278.0    9.1    15.278     29.143     1010.7        365.874696    357.514177    419.367552    409.784605    20.600000     2011-06-16T16:07:14.96Z  
1607.5835   58055   43.6791  -70.0276  281.0    9.1    15.211     29.150     1010.7        365.034922    356.725422    nd            nd            20.600000     2011-06-16T16:07:35.01Z  
1607.9162   58075   43.6795  -70.0298  287.0    9.2    15.259     29.146     1010.7        363.700071    355.390095    419.252377    409.666679    20.600000     2011-06-16T16:07:54.97Z  
1608.2502   58095   43.6803  -70.0318  300.0    9.1    15.359     29.183     1010.7        362.509710    354.197861    419.361114    409.743068    20.600000     2011-06-16T16:08:15.01Z  
1608.5829   58115   43.6813  -70.0335  311.0    9.0    15.516     29.216     1010.7        361.470679    353.122092    419.408483    409.721655    20.600000     2011-06-16T16:08:34.97Z  
1608.9170   58135   43.6826  -70.0349  320.0    9.2    15.615     29.223     1010.7        360.759976    352.381100    419.495865    409.761405    20.600000     2011-06-16T16:08:55.02Z  
1609.2496   58155   43.6840  -70.0362  326.0    9.3    15.678     29.202     1010.7        360.712651    352.304048    419.208477    409.432596    20.600000     2011-06-16T16:09:14.98Z  
1609.5837   58175   43.6855  -70.0370  323.0    9.1    15.694     29.198     1010.7        361.640430    353.197402    419.222226    409.434792    20.600000     2011-06-16T16:09:35.02Z  
1609.9163   58195   43.6871  -70.0365  16.0     9.1    15.642     29.206     1010.6        363.276076    354.807719    419.101660    409.331858    20.600000     2011-06-16T16:09:54.98Z  
1610.2504   58215   43.6886  -70.0357  21.0     9.3    15.616     29.217     1010.6        365.501474    356.995661    419.262962    409.505947    20.600000     2011-06-16T16:10:15.02Z  
1610.5830   58235   43.6901  -70.0347  24.0     9.2    15.624     29.220     1010.6        367.557658    358.998487    419.188973    409.427403    20.600000     2011-06-16T16:10:34.98Z  
1610.9171   58255   43.6917  -70.0338  23.0     9.3    15.646     29.215     1010.6        369.435762    360.826203    419.193213    409.424007    20.600000     2011-06-16T16:10:55.03Z  
1611.2498   58275   43.6932  -70.0329  25.0     9.3    15.715     29.207     1010.7        370.932716    362.263552    418.965090    409.169813    20.600000     2011-06-16T16:11:14.99Z  
1611.5838   58295   43.6947  -70.0319  25.0     9.3    15.787     29.192     1010.7        372.158724    363.434786    418.980153    409.159992    20.600000     2011-06-16T16:11:35.03Z  
1611.9165   58315   43.6962  -70.0308  28.0     9.2    15.811     29.156     1010.7        373.309479    364.545542    418.958892    409.123201    20.600000     2011-06-16T16:11:54.99Z  
1612.2506   58335   43.6976  -70.0297  27.0     9.0    15.842     29.121     1010.7        374.370681    365.572242    418.941305    409.095305    20.600000     2011-06-16T16:12:15.04Z  
1612.5832   58355   43.6991  -70.0287  27.0     9.1    15.696     29.144     1010.7        375.232922    366.468589    418.879651    409.095751    20.600000     2011-06-16T16:12:34.99Z  
1612.9173   58375   43.7005  -70.0277  28.0     9.1    15.242     29.217     1010.6        375.278659    366.690808    418.789757    409.206143    20.600000     2011-06-16T16:12:55.04Z  
1613.2499   58395   43.7020  -70.0266  27.0     9.2    14.986     29.241     1010.6        374.780876    366.297529    418.781245    409.301874    20.600000     2011-06-16T16:13:14.99Z  
1613.5840   58415   43.7035  -70.0256  27.0     9.2    14.771     29.234     1010.6        374.041222    365.657272    418.752856    409.366655    20.600000     2011-06-16T16:13:35.04Z  
1613.9166   58435   43.7050  -70.0246  24.0     9.2    14.757     29.200     1010.7        372.814271    364.469912    418.649436    409.279588    20.600000     2011-06-16T16:13:55.00Z  
1614.2493   58455   43.7065  -70.0237  23.0     9.2    14.928     29.149     1010.7        370.914245    362.547891    418.750513    409.270736    20.600000     2011-06-16T16:14:14.96Z  
1614.5834   58475   43.7080  -70.0228  23.0     9.1    15.152     29.080     1010.7        368.260720    359.867824    418.655836    409.114252    20.600000     2011-06-16T16:14:35.00Z  
1614.9160   58495   43.7095  -70.0220  23.0     9.1    15.495     29.047     1010.7        365.567650    357.109213    418.554723    408.892205    20.600000     2011-06-16T16:14:54.96Z  
1615.2501   58515   43.7110  -70.0210  25.0     9.2    15.802     29.020     1010.7        363.172377    354.657563    418.801622    408.967656    20.600000     2011-06-16T16:15:15.01Z  
1615.5827   58535   43.7126  -70.0201  23.0     9.1    16.013     29.003     1010.7        361.221626    352.672986    418.671386    408.763038    20.600000     2011-06-16T16:15:34.96Z  
1615.9168   58555   43.7140  -70.0191  28.0     9.1    16.148     28.988     1010.7        360.097562    351.521123    418.600839    408.630930    20.600000     2011-06-16T16:15:55.01Z  
1616.2494   58575   43.7155  -70.0180  28.0     9.1    16.230     28.973     1010.7        359.863587    351.266259    418.547777    408.548366    20.600000     2011-06-16T16:16:14.96Z  
1616.5835   58595   43.7169  -70.0170  26.0     9.1    16.285     28.961     1010.7        360.131688    351.510344    418.629096    408.607271    20.600000     2011-06-16T16:16:35.01Z  
1616.9162   58615   43.7184  -70.0160  25.0     9.2    16.262     28.952     1010.7        360.659102    352.033222    418.613804    408.598995    20.600000     2011-06-16T16:16:54.97Z  
1617.2502   58635   43.7199  -70.0150  26.0     9.2    16.033     28.949     1010.7        361.357500    352.809001    418.772045    408.865191    20.600000     2011-06-16T16:17:15.01Z  
1617.5829   58655   43.7214  -70.0140  26.0     9.2    15.840     28.957     1010.7        362.075601    353.588658    418.767904    408.937704    20.600000     2011-06-16T16:17:34.97Z  
1617.9170   58675   43.7229  -70.0130  25.0     9.2    15.618     28.974     1010.7        362.397533    353.993621    418.787401    409.086493    20.600000     2011-06-16T16:17:55.02Z  
1618.2496   58695   43.7244  -70.0120  27.0     9.3    15.281     29.009     1010.7        362.141979    353.870066    418.670639    409.107451    20.600000     2011-06-16T16:18:14.98Z  
1618.5837   58715   43.7259  -70.0110  26.0     9.4    14.995     29.025     1010.7        361.489625    353.333270    418.726274    409.278401    20.600000     2011-06-16T16:18:35.02Z  
1618.9163   58735   43.7275  -70.0100  25.0     9.4    14.925     29.019     1010.7        360.807301    352.690005    418.890614    409.466494    20.600000     2011-06-16T16:18:54.98Z  
1619.2504   58755   43.7290  -70.0090  24.0     9.3    14.952     29.029     1010.7        360.296991    352.187212    419.043475    409.605871    20.600000     2011-06-16T16:19:15.02Z  
1619.5830   58775   43.7305  -70.0081  24.0     9.3    14.926     29.033     1010.7        359.939968    351.844670    418.675166    409.260290    20.600000     2011-06-16T16:19:34.98Z  
1619.9171   58795   43.7318  -70.0073  24.0     7.5    14.965     29.024     1010.8        360.029086    351.954955    418.831243    409.443182    20.600000     2011-06-16T16:19:55.03Z  
1620.2498   58815   43.7326  -70.0068  22.0     4.7    15.067     29.016     1010.8        360.479054    352.356376    nd            nd            20.600000     2011-06-16T16:20:14.99Z  
1620.5838   58835   43.7333  -70.0064  25.0     4.4    15.080     29.010     1010.8        360.930576    352.791063    nd            nd            20.600000     2011-06-16T16:20:35.03Z  
1620.9165   58855   43.7340  -70.0059  25.0     4.4    15.124     29.006     1010.8        361.721794    353.549120    nd            nd            20.600000     2011-06-16T16:20:54.99Z  
1621.2506   58875   43.7347  -70.0055  27.0     4.4    15.212     29.002     1010.8        362.422828    354.196952    nd            nd            20.600000     2011-06-16T16:21:15.04Z  
1621.5832   58895   43.7355  -70.0049  29.0     4.8    15.302     29.003     1010.8        362.817923    354.545475    nd            nd            20.600000     2011-06-16T16:21:34.99Z  
1621.9173   58915   43.7363  -70.0043  26.0     5.3    15.335     29.005     1010.8        363.053202    354.760753    nd            nd            20.600000     2011-06-16T16:21:55.04Z  
1622.2499   58935   43.7373  -70.0037  26.0     5.7    15.274     29.009     1010.8        363.478839    355.201780    nd            nd            20.600000     2011-06-16T16:22:14.99Z  
1622.5840   58955   43.7382  -70.0031  24.0     5.7    15.156     29.011     1010.8        364.134783    355.884600    nd            nd            20.600000     2011-06-16T16:22:35.04Z  
1622.9166   58975   43.7391  -70.0025  26.0     5.6    15.118     29.016     1010.8        364.419412    356.175294    nd            nd            20.600000     2011-06-16T16:22:55.00Z  
1623.2507   58995   43.7401  -70.0018  27.0     6.1    14.985     29.033     1010.8        364.501436    356.297795    nd            nd            20.600000     2011-06-16T16:23:15.04Z  
1623.5834   59015   43.7412  -70.0010  27.0     7.2    14.690     29.095     1010.8        364.167155    356.076396    nd            nd            20.600000     2011-06-16T16:23:35.00Z  
1623.9160   59035   43.7424  -70.0003  24.0     7.3    14.459     29.108     1010.8        363.610317    355.614865    nd            nd            20.600000     2011-06-16T16:23:54.96Z  
1624.2501   59055   43.7436  -69.9996  22.0     7.3    14.413     29.077     1010.8        362.314370    354.367789    nd            nd            20.600000     2011-06-16T16:24:15.01Z  
1624.5827   59075   43.7448  -69.9988  24.0     7.4    14.586     29.001     1010.8        360.383850    352.414878    nd            nd            20.600000     2011-06-16T16:24:34.96Z  
1624.9168   59095   43.7460  -69.9980  28.0     7.4    14.884     28.958     1010.8        358.272900    350.247467    nd            nd            20.600000     2011-06-16T16:24:55.01Z  
1625.2494   59115   43.7472  -69.9971  28.0     7.4    15.040     28.945     1010.7        356.610223    348.554727    nd            nd            20.600000     2011-06-16T16:25:14.96Z  
1625.5835   59135   43.7482  -69.9964  26.0     6.1    15.068     28.940     1010.8        355.729877    347.697283    nd            nd            20.600000     2011-06-16T16:25:35.01Z  
1625.9162   59155   43.7490  -69.9959  25.0     4.5    15.171     28.916     1010.8        355.131477    347.068536    nd            nd            20.600000     2011-06-16T16:25:54.97Z  
1626.2502   59175   43.7497  -69.9955  24.0     4.3    15.303     28.919     1010.8        354.911708    346.809216    nd            nd            20.600000     2011-06-16T16:26:15.01Z  
1626.5829   59195   43.7504  -69.9951  23.0     4.3    15.346     28.928     1010.8        354.792072    346.676950    nd            nd            20.600000     2011-06-16T16:26:34.97Z  
1626.9170   59215   43.7511  -69.9947  22.0     4.2    15.391     28.938     1010.8        354.694626    346.566628    nd            nd            20.600000     2011-06-16T16:26:55.02Z  
1627.2496   59235   43.7518  -69.9943  23.0     4.2    15.375     28.966     1010.8        354.876587    346.754068    nd            nd            20.600000     2011-06-16T16:27:14.98Z  
1627.5837   59255   43.7525  -69.9939  23.0     4.2    15.351     28.978     1010.8        355.424573    347.299520    nd            nd            20.600000     2011-06-16T16:27:35.02Z  
1627.9163   59275   43.7532  -69.9935  24.0     4.2    15.311     28.992     1010.8        356.295701    348.163893    nd            nd            20.600000     2011-06-16T16:27:54.98Z  
1628.2504   59295   43.7539  -69.9931  22.0     4.2    15.325     28.999     1010.8        357.385067    349.223515    nd            nd            20.600000     2011-06-16T16:28:15.02Z  
1628.5830   59315   43.7546  -69.9927  24.0     4.2    15.331     29.008     1010.8        358.512498    350.325320    nd            nd            20.600000     2011-06-16T16:28:34.98Z  
1628.9171   59335   43.7552  -69.9922  24.0     4.2    15.226     29.018     1010.8        359.509990    351.339136    nd            nd            20.600000     2011-06-16T16:28:55.03Z  
1629.2498   59355   43.7559  -69.9918  23.0     4.2    15.121     29.022     1010.8        360.186460    352.036267    nd            nd            20.600000     2011-06-16T16:29:14.99Z  
1629.5838   59375   43.7566  -69.9914  23.0     4.2    15.058     29.021     1010.8        359.909405    351.787594    nd            nd            20.600000     2011-06-16T16:29:35.03Z  
1629.9165   59395   43.7573  -69.9910  26.0     4.2    15.034     29.023     1010.8        359.761935    351.651102    nd            nd            20.600000     2011-06-16T16:29:54.99Z  
1630.2506   59415   43.7579  -69.9905  27.0     3.9    14.958     29.033     1010.8        359.860226    351.776598    nd            nd            20.600000     2011-06-16T16:30:15.04Z  
1630.5832   59435   43.7584  -69.9902  25.0     2.3    14.867     29.041     1010.8        360.775039    352.702561    nd            nd            20.600000     2011-06-16T16:30:34.99Z  
1630.9173   59455   43.7586  -69.9901  28.0     1.5    14.800     29.047     1010.8        361.585372    353.518154    nd            nd            20.600000     2011-06-16T16:30:55.04Z  
1631.2499   59475   43.7588  -69.9899  31.0     1.6    14.723     29.058     1010.8        362.470616    354.409858    nd            nd            20.600000     2011-06-16T16:31:14.99Z  
1631.5840   59495   43.7592  -69.9896  27.0     2.2    14.622     29.065     1010.8        363.225860    355.179886    nd            nd            20.600000     2011-06-16T16:31:35.04Z  
1631.9166   59515   43.7596  -69.9892  35.0     3.2    14.530     29.066     1010.7        363.809552    355.778648    nd            nd            20.600000     2011-06-16T16:31:55.00Z  
1632.2507   59535   43.7601  -69.9887  35.0     3.6    14.485     29.069     1010.7        364.055075    356.035917    nd            nd            20.600000     2011-06-16T16:32:15.04Z  
1632.5834   59555   43.7606  -69.9883  32.0     3.0    14.545     29.060     1010.7        363.873626    355.835728    nd            nd            20.600000     2011-06-16T16:32:35.00Z  
1632.9160   59575   43.7610  -69.9879  33.0     2.7    14.778     29.035     1010.7        363.569432    355.452186    nd            nd            20.600000     2011-06-16T16:32:54.96Z  
1633.2501   59595   43.7614  -69.9876  29.0     2.6    14.966     29.024     1010.8        363.165458    354.997066    nd            nd            20.600000     2011-06-16T16:33:15.01Z  
1633.5827   59615   43.7619  -69.9875  181.0    2.3    15.018     29.020     1010.8        362.888258    354.709873    nd            nd            20.600000     2011-06-16T16:33:34.96Z  
1633.9168   59635   43.7619  -69.9876  258.0    0.7    14.963     29.016     1010.8        363.038869    354.874404    nd            nd            20.600000     2011-06-16T16:33:55.01Z  
1634.2494   59655   43.7619  -69.9879  264.0    1.0    14.902     29.016     1010.7        363.133142    354.984218    nd            nd            20.600000     2011-06-16T16:34:14.96Z  
1634.5835   59675   43.7619  -69.9881  267.0    1.0    14.834     29.019     1010.8        363.711334    355.578053    nd            nd            20.600000     2011-06-16T16:34:35.01Z  
1634.9162   59695   43.7619  -69.9883  260.0    0.7    14.787     29.015     1010.8        364.236283    356.107828    nd            nd            20.600000     2011-06-16T16:34:54.97Z  
1635.2502   59715   43.7619  -69.9884  269.0    0.4    14.772     29.017     1010.8        364.576878    356.445527    nd            nd            20.600000     2011-06-16T16:35:15.01Z  
1635.5829   59735   43.7619  -69.9884  184.0    0.5    14.757     29.019     1010.8        364.455199    356.335044    nd            nd            20.600000     2011-06-16T16:35:34.97Z  
1635.9170   59755   43.7619  -69.9885  229.0    0.4    14.778     29.014     1010.8        364.255407    356.130392    nd            nd            20.600000     2011-06-16T16:35:55.02Z  
1636.2496   59775   43.7618  -69.9885  206.0    0.5    14.739     29.018     1010.8        363.912793    355.811404    nd            nd            20.600000     2011-06-16T16:36:14.98Z  
1636.5837   59795   43.7618  -69.9885  238.0    0.2    14.716     29.018     1010.8        363.415375    355.329838    nd            nd            20.600000     2011-06-16T16:36:35.02Z  
1636.9163   59815   43.7619  -69.9885  137.0    0.5    14.759     29.016     1010.7        363.049982    354.944553    nd            nd            20.600000     2011-06-16T16:36:54.98Z  
1637.2504   59835   43.7619  -69.9883  89.0     0.8    14.803     29.019     1010.7        362.619396    354.509619    nd            nd            20.600000     2011-06-16T16:37:15.02Z  
1637.5830   59855   43.7619  -69.9882  112.0    0.3    14.802     29.017     1010.7        362.234360    354.128804    nd            nd            20.600000     2011-06-16T16:37:34.98Z  
1637.9171   59875   43.7619  -69.9882  143.0    0.1    14.755     29.029     1010.7        361.994181    353.912473    nd            nd            20.600000     2011-06-16T16:37:55.03Z  
1638.2498   59895   43.7619  -69.9882  88.0     0.3    14.677     29.041     1010.7        361.997433    353.950398    nd            nd            20.600000     2011-06-16T16:38:14.99Z  
1638.5838   59915   43.7619  -69.9881  59.0     0.4    14.745     29.026     1010.7        362.080918    354.006983    nd            nd            20.600000     2011-06-16T16:38:35.03Z  
1638.9165   59935   43.7619  -69.9880  44.0     0.3    14.820     29.018     1010.7        362.315892    354.207670    nd            nd            20.600000     2011-06-16T16:38:54.99Z  
1639.2506   59955   43.7620  -69.9880  31.0     0.3    14.831     29.016     1010.7        362.601486    354.482828    nd            nd            20.600000     2011-06-16T16:39:15.04Z  
1639.5832   59975   43.7620  -69.9880  18.0     0.3    14.808     29.017     1010.7        362.719090    354.603594    nd            nd            20.600000     2011-06-16T16:39:34.99Z  
1639.9173   59995   43.7621  -69.9879  9.0      0.2    14.762     29.021     1010.7        362.925802    354.819961    nd            nd            20.600000     2011-06-16T16:39:55.04Z  
1640.2499   60015   43.7621  -69.9879  145.0    0.2    14.694     29.025     1010.7        363.143917    355.054137    nd            nd            20.600000     2011-06-16T16:40:14.99Z  
1640.5840   60035   43.7621  -69.9879  355.0    0.3    14.697     29.020     1010.7        363.343204    355.246698    nd            nd            20.600000     2011-06-16T16:40:35.04Z  
1640.9166   60055   43.7622  -69.9880  350.0    0.3    14.726     29.015     1010.7        363.159056    355.053573    nd            nd            20.600000     2011-06-16T16:40:55.00Z  
1641.2493   60075   43.7622  -69.9880  346.0    0.3    14.727     29.018     1010.7        362.652908    354.556095    nd            nd            20.600000     2011-06-16T16:41:14.96Z  
1641.5834   60095   43.7623  -69.9880  346.0    0.3    14.662     29.028     1010.7        362.321532    354.258114    nd            nd            20.600000     2011-06-16T16:41:35.00Z  
1641.9160   60115   43.7623  -69.9880  345.0    0.3    14.616     29.030     1010.7        361.896185    353.857071    nd            nd            20.600000     2011-06-16T16:41:54.96Z  
1642.2501   60135   43.7623  -69.9880  343.0    0.3    14.627     29.025     1010.7        361.688636    353.649899    nd            nd            20.600000     2011-06-16T16:42:15.01Z  
1642.5827   60155   43.7624  -69.9880  342.0    0.3    14.664     29.020     1010.7        361.419530    353.375318    nd            nd            20.600000     2011-06-16T16:42:34.96Z  
1642.9168   60175   43.7624  -69.9880  343.0    0.3    14.691     29.019     1010.7        361.042595    352.996982    nd            nd            20.600000     2011-06-16T16:42:55.01Z  
1643.2494   60195   43.7625  -69.9881  343.0    0.3    14.721     29.017     1010.7        360.724272    352.675814    nd            nd            20.600000     2011-06-16T16:43:14.96Z  
1643.5835   60215   43.7625  -69.9881  344.0    0.3    14.757     29.013     1010.7        360.588281    352.530100    nd            nd            20.600000     2011-06-16T16:43:35.01Z  
1643.9162   60235   43.7626  -69.9881  343.0    0.3    14.778     29.012     1010.7        360.651220    352.586298    nd            nd            20.600000     2011-06-16T16:43:54.97Z  
1644.2502   60255   43.7626  -69.9881  346.0    0.3    14.803     29.012     1010.7        360.952823    352.871283    nd            nd            20.600000     2011-06-16T16:44:15.01Z  
1644.5829   60275   43.7627  -69.9881  346.0    0.3    14.830     29.011     1010.7        361.577232    353.472372    nd            nd            20.600000     2011-06-16T16:44:34.97Z  
1644.9170   60295   43.7627  -69.9882  345.0    0.3    14.851     29.011     1010.7        362.416073    354.285778    nd            nd            20.600000     2011-06-16T16:44:55.02Z  
1645.2496   60315   43.7628  -69.9882  346.0    0.3    14.857     29.012     1010.7        363.371463    355.219120    nd            nd            20.600000     2011-06-16T16:45:14.98Z  
1645.5837   60335   43.7628  -69.9882  347.0    0.2    14.856     29.013     1010.7        364.681034    356.499270    nd            nd            20.600000     2011-06-16T16:45:35.02Z  
1645.9163   60355   43.7628  -69.9882  347.0    0.3    14.846     29.015     1010.7        365.918361    357.712306    nd            nd            20.600000     2011-06-16T16:45:54.98Z  
1646.2504   60375   43.7629  -69.9882  352.0    0.3    14.835     29.018     1010.7        367.033416    358.806195    nd            nd            20.600000     2011-06-16T16:46:15.02Z  
1646.5830   60395   43.7629  -69.9882  354.0    0.2    14.807     29.025     1010.7        367.819913    359.587880    nd            nd            20.600000     2011-06-16T16:46:34.98Z  
1646.9171   60415   43.7630  -69.9882  355.0    0.2    14.764     29.031     1010.7        368.264616    360.038691    nd            nd            20.600000     2011-06-16T16:46:55.03Z  
1647.2498   60435   43.7630  -69.9882  355.0    0.2    14.708     29.041     1010.7        368.443295    360.233945    nd            nd            20.600000     2011-06-16T16:47:14.99Z  
1647.5838   60455   43.7630  -69.9882  356.0    0.2    14.637     29.051     1010.7        368.234998    360.056844    nd            nd            20.600000     2011-06-16T16:47:35.03Z  
1647.9165   60475   43.7631  -69.9882  357.0    0.2    14.577     29.054     1010.7        367.953797    359.802615    nd            nd            20.600000     2011-06-16T16:47:54.99Z  
1648.2506   60495   43.7631  -69.9882  357.0    0.2    14.563     29.050     1010.7        367.603546    359.462753    nd            nd            20.600000     2011-06-16T16:48:15.04Z  
1648.5832   60515   43.7632  -69.9882  354.0    0.2    14.566     29.046     1010.7        367.622451    359.479903    nd            nd            20.600000     2011-06-16T16:48:34.99Z  
1648.9173   60535   43.7632  -69.9882  349.0    0.2    14.581     29.037     1010.7        367.712737    359.560253    nd            nd            20.600000     2011-06-16T16:48:55.04Z  
1649.2499   60555   43.7632  -69.9882  345.0    0.2    14.606     29.032     1010.7        368.172520    359.999141    nd            nd            20.600000     2011-06-16T16:49:14.99Z  
1649.5840   60575   43.7633  -69.9883  313.0    0.4    14.620     29.033     1010.7        368.501689    360.309896    nd            nd            20.600000     2011-06-16T16:49:35.04Z  
1649.9166   60595   43.7631  -69.9885  221.0    1.4    14.618     29.036     1010.7        368.821652    360.620126    nd            nd            20.600000     2011-06-16T16:49:55.00Z  
1650.2493   60615   43.7628  -69.9883  152.0    1.9    14.620     29.037     1010.7        368.579972    360.381261    nd            nd            20.600000     2011-06-16T16:50:14.96Z  
1650.5834   60635   43.7625  -69.9880  143.0    2.2    14.657     29.028     1010.7        368.282649    360.076549    nd            nd            20.600000     2011-06-16T16:50:35.00Z  
1650.9160   60655   43.7622  -69.9877  154.0    2.2    14.766     29.013     1010.7        367.855454    359.617537    nd            nd            20.600000     2011-06-16T16:50:54.96Z  
1651.2501   60675   43.7618  -69.9876  164.0    2.2    14.821     29.023     1010.6        367.432473    359.180170    nd            nd            20.600000     2011-06-16T16:51:15.01Z  
1651.5827   60695   43.7615  -69.9874  155.0    2.1    14.857     29.023     1010.7        367.154726    358.901446    nd            nd            20.600000     2011-06-16T16:51:34.96Z  
1651.9168   60715   43.7613  -69.9873  132.0    0.7    14.917     29.024     1010.7        366.779245    358.510512    nd            nd            20.600000     2011-06-16T16:51:55.01Z  
1652.2494   60735   43.7613  -69.9872  97.0     0.1    14.943     29.024     1010.7        366.531510    358.256510    nd            nd            20.600000     2011-06-16T16:52:14.96Z  
1652.5835   60755   43.7613  -69.9872  56.0     0.1    14.854     29.033     1010.6        366.578839    358.333361    nd            nd            20.600000     2011-06-16T16:52:35.01Z  
1652.9162   60775   43.7614  -69.9872  27.0     0.1    14.638     29.055     1010.7        366.950235    358.778429    nd            nd            20.600000     2011-06-16T16:52:54.97Z  
1653.2502   60795   43.7614  -69.9872  10.0     0.2    14.489     29.061     1010.6        367.267996    359.141860    nd            nd            20.600000     2011-06-16T16:53:15.01Z  
1653.5829   60815   43.7614  -69.9872  180.0    0.2    14.392     29.080     1010.6        367.309435    359.216925    nd            nd            20.600000     2011-06-16T16:53:34.97Z  
1653.9170   60835   43.7614  -69.9872  346.0    0.2    14.286     29.104     1010.6        366.590557    358.549139    nd            nd            20.600000     2011-06-16T16:53:55.02Z  
1654.2496   60855   43.7615  -69.9872  338.0    0.2    14.210     29.112     1010.6        365.523545    357.528588    nd            nd            20.600000     2011-06-16T16:54:14.98Z  
1654.5837   60875   43.7615  -69.9872  334.0    0.2    14.191     29.114     1010.6        364.564860    356.601218    nd            nd            20.600000     2011-06-16T16:54:35.02Z  
1654.9163   60895   43.7615  -69.9872  331.0    0.2    14.181     29.118     1010.6        363.939757    355.987546    nd            nd            20.600000     2011-06-16T16:54:54.98Z  
1655.2504   60915   43.7615  -69.9872  326.0    0.2    14.180     29.105     1010.6        363.449942    355.506598    nd            nd            20.600000     2011-06-16T16:55:15.02Z  
1655.5830   60935   43.7616  -69.9873  322.0    0.2    14.228     29.073     1010.6        363.193887    355.239463    nd            nd            20.600000     2011-06-16T16:55:34.98Z  
1655.9171   60955   43.7616  -69.9873  316.0    0.2    14.278     29.066     1010.6        362.951218    354.983762    nd            nd            20.600000     2011-06-16T16:55:55.03Z  
1656.2498   60975   43.7616  -69.9873  316.0    0.2    14.326     29.060     1010.6        362.721011    354.741279    nd            nd            20.600000     2011-06-16T16:56:14.99Z  
1656.5838   60995   43.7616  -69.9874  310.0    0.2    14.376     29.053     1010.6        362.085096    354.100618    nd            nd            20.600000     2011-06-16T16:56:35.03Z  
1656.9165   61015   43.7617  -69.9874  307.0    0.2    14.428     29.053     1010.6        361.450757    353.461828    nd            nd            20.600000     2011-06-16T16:56:54.99Z  
1657.2506   61035   43.7617  -69.9874  305.0    0.1    14.429     29.057     1010.6        360.683834    352.714927    nd            nd            20.600000     2011-06-16T16:57:15.04Z  
1657.5832   61055   43.7617  -69.9874  310.0    0.1    14.429     29.056     1010.6        360.122302    352.163764    nd            nd            20.600000     2011-06-16T16:57:34.99Z  
1657.9173   61075   43.7617  -69.9875  317.0    0.1    14.412     29.072     1010.6        359.737325    351.790449    nd            nd            20.600000     2011-06-16T16:57:55.04Z  
1658.2499   61095   43.7617  -69.9875  317.0    0.1    14.393     29.081     1010.6        359.507493    351.568011    nd            nd            20.600000     2011-06-16T16:58:14.99Z  
1658.5840   61115   43.7618  -69.9875  316.0    0.2    14.369     29.086     1010.6        359.384251    351.453223    nd            nd            20.600000     2011-06-16T16:58:35.04Z  
1658.9166   61135   43.7618  -69.9875  314.0    0.2    14.353     29.089     1010.6        359.430046    351.501435    nd            nd            20.600000     2011-06-16T16:58:55.00Z  
1659.2493   61155   43.7618  -69.9876  310.0    0.2    14.341     29.089     1010.6        359.716630    351.785059    nd            nd            20.600000     2011-06-16T16:59:14.96Z  
1659.5834   61175   43.7618  -69.9876  307.0    0.2    14.343     29.086     1010.6        360.074769    352.134964    nd            nd            20.600000     2011-06-16T16:59:35.00Z  
1659.9002   61194   43.7618  -69.9877  308.0    0.2    14.374     29.076     1010.6        360.512813    352.552639    nd            nd            20.866667     2011-06-16T16:59:54.01Z  
1700.2501   61215   43.7619  -69.9877  309.0    0.2    14.424     29.064     1010.6        360.823894    352.838223    nd            nd            22.200000     2011-06-16T17:00:15.01Z  
1700.5827   61235   43.7619  -69.9877  310.0    0.2    14.469     29.056     1010.6        360.952225    352.946947    nd            nd            22.200000     2011-06-16T17:00:34.96Z  
1700.9168   61255   43.7619  -69.9878  310.0    0.2    14.506     29.051     1010.6        361.111258    353.092440    nd            nd            22.200000     2011-06-16T17:00:55.01Z  
1701.2494   61275   43.7619  -69.9878  317.0    0.2    14.533     29.046     1010.6        361.203808    353.171471    nd            nd            22.200000     2011-06-16T17:01:14.96Z  
1701.5835   61295   43.7620  -69.9878  316.0    0.2    14.565     29.040     1010.6        361.040523    353.002643    nd            nd            22.200000     2011-06-16T17:01:35.01Z  
1701.9162   61315   43.7620  -69.9878  319.0    0.2    14.597     29.034     1010.6        360.949090    352.902293    nd            nd            22.200000     2011-06-16T17:01:54.97Z  
1702.2502   61335   43.7621  -69.9878  109.0    0.8    14.630     29.031     1010.6        360.707829    352.647003    nd            nd            22.200000     2011-06-16T17:02:15.01Z  
1702.5829   61355   43.7621  -69.9874  104.0    2.0    14.664     29.029     1010.5        360.697838    352.612103    nd            nd            22.200000     2011-06-16T17:02:34.97Z  
1702.9170   61375   43.7615  -69.9875  198.0    3.6    14.694     29.027     1010.5        360.418531    352.325712    nd            nd            22.200000     2011-06-16T17:02:55.02Z  
1703.2496   61395   43.7608  -69.9882  214.0    4.7    14.715     29.032     1010.5        360.291753    352.198467    nd            nd            22.200000     2011-06-16T17:03:14.98Z  
1703.5837   61415   43.7601  -69.9889  216.0    4.8    14.687     29.044     1010.5        360.480936    352.393483    nd            nd            22.200000     2011-06-16T17:03:35.02Z  
1703.9163   61435   43.7594  -69.9896  218.0    4.8    14.656     29.035     1010.5        360.490107    352.414178    nd            nd            22.200000     2011-06-16T17:03:54.98Z  
1704.2504   61455   43.7587  -69.9904  218.0    4.8    14.838     29.032     1010.5        361.183881    353.022216    nd            nd            22.200000     2011-06-16T17:04:15.02Z  
1704.5830   61475   43.7580  -69.9911  215.0    4.8    14.958     29.049     1010.5        361.844090    353.627760    nd            nd            22.200000     2011-06-16T17:04:34.98Z  
1704.9171   61495   43.7573  -69.9917  215.0    4.8    14.904     29.063     1010.5        362.709334    354.490803    nd            nd            22.200000     2011-06-16T17:04:55.03Z  
1705.2498   61515   43.7567  -69.9925  220.0    4.7    14.966     29.052     1010.5        363.603928    355.341752    nd            nd            22.200000     2011-06-16T17:05:14.99Z  
1705.5838   61535   43.7560  -69.9931  214.0    4.7    15.011     29.045     1010.5        364.639352    356.336760    nd            nd            22.200000     2011-06-16T17:05:35.03Z  
1705.9165   61555   43.7553  -69.9938  213.0    4.7    15.051     29.032     1010.5        365.679532    357.347274    nd            nd            22.200000     2011-06-16T17:05:54.99Z  
1706.2506   61575   43.7545  -69.9944  212.0    4.7    15.062     29.030     1010.6        366.563279    358.211356    nd            nd            22.200000     2011-06-16T17:06:15.04Z  
1706.5832   61595   43.7539  -69.9950  214.0    4.5    15.137     29.022     1010.6        367.168025    358.777584    nd            nd            22.200000     2011-06-16T17:06:34.99Z  
1706.9173   61615   43.7532  -69.9956  213.0    4.5    15.322     28.997     1010.6        367.021543    358.567652    nd            nd            22.200000     2011-06-16T17:06:55.04Z  
1707.2499   61635   43.7525  -69.9961  207.0    4.5    15.476     28.966     1010.6        366.179367    357.687523    nd            nd            22.200000     2011-06-16T17:07:14.99Z  
1707.5840   61655   43.7517  -69.9966  204.0    4.5    15.522     28.960     1010.6        364.890049    356.407659    nd            nd            22.200000     2011-06-16T17:07:35.04Z  
1707.9166   61675   43.7510  -69.9970  200.0    4.5    15.501     28.961     1010.6        363.879426    355.426691    nd            nd            22.200000     2011-06-16T17:07:55.00Z  
1708.2507   61695   43.7502  -69.9974  204.0    5.0    15.490     28.955     1010.5        363.232362    354.788680    nd            nd            22.200000     2011-06-16T17:08:15.04Z  
1708.5834   61715   43.7492  -69.9980  201.0    5.6    15.529     28.942     1010.5        362.980012    354.525731    nd            nd            22.200000     2011-06-16T17:08:35.00Z  
1708.9160   61735   43.7484  -69.9984  200.0    5.1    15.585     28.932     1010.6        362.758894    354.294627    nd            nd            22.200000     2011-06-16T17:08:54.96Z  
1709.2501   61755   43.7476  -69.9988  199.0    4.2    15.633     28.926     1010.6        362.552930    354.073357    nd            nd            22.200000     2011-06-16T17:09:15.01Z  
1709.5827   61775   43.7469  -69.9991  199.0    4.1    15.590     28.937     1010.6        362.504275    354.045108    nd            nd            22.200000     2011-06-16T17:09:34.96Z  
1709.9168   61795   43.7463  -69.9994  199.0    4.1    15.547     28.948     1010.6        362.363224    353.924776    nd            nd            22.200000     2011-06-16T17:09:55.01Z  
1710.2494   61815   43.7456  -69.9997  198.0    4.1    15.532     28.959     1010.6        362.201085    353.772343    nd            nd            22.200000     2011-06-16T17:10:14.96Z  
1710.5835   61835   43.7449  -70.0000  199.0    4.1    15.549     28.967     1010.5        361.892967    353.460004    nd            nd            22.200000     2011-06-16T17:10:35.01Z  
1710.9162   61855   43.7442  -70.0004  199.0    4.1    15.578     28.973     1010.5        361.760590    353.319664    nd            nd            22.200000     2011-06-16T17:10:54.97Z  
1711.2502   61875   43.7435  -70.0007  197.0    4.1    15.517     28.979     1010.5        361.926134    353.501860    nd            nd            22.200000     2011-06-16T17:11:15.01Z  
1711.5829   61895   43.7428  -70.0011  204.0    4.1    15.428     28.984     1010.5        362.241694    353.835629    nd            nd            22.200000     2011-06-16T17:11:34.97Z  
1711.9170   61915   43.7420  -70.0016  204.0    5.1    15.319     28.992     1010.5        363.051433    354.659524    nd            nd            22.200000     2011-06-16T17:11:55.02Z  
1712.2496   61935   43.7409  -70.0022  204.0    6.9    15.223     29.006     1010.5        363.868385    355.482345    nd            nd            22.200000     2011-06-16T17:12:14.98Z  
1712.5837   61955   43.7397  -70.0030  205.0    7.5    15.115     29.022     1010.5        364.182934    355.828263    nd            nd            22.200000     2011-06-16T17:12:35.02Z  
1712.9163   61975   43.7384  -70.0037  202.0    7.7    15.060     29.044     1010.4        364.124577    355.784506    414.070189    404.572424    22.200000     2011-06-16T17:12:54.98Z  
1713.2504   61995   43.7371  -70.0045  204.0    8.2    15.108     29.035     1010.4        363.709425    355.355841    413.102502    403.611573    22.200000     2011-06-16T17:13:15.02Z  
1713.5830   62015   43.7357  -70.0054  205.0    8.3    15.094     29.033     1010.4        362.747436    354.425456    413.348850    403.865927    22.200000     2011-06-16T17:13:34.98Z  
1713.9171   62035   43.7343  -70.0062  204.0    8.3    15.037     29.032     1010.4        361.510207    353.237863    413.167468    403.712991    22.200000     2011-06-16T17:13:55.03Z  
1714.2498   62055   43.7329  -70.0071  204.0    8.6    15.012     29.022     1010.4        360.232445    351.998832    413.283871    403.837612    22.200000     2011-06-16T17:14:14.99Z  
1714.5838   62075   43.7315  -70.0079  203.0    8.7    14.978     29.016     1010.4        359.491383    351.289065    413.430017    403.996932    22.200000     2011-06-16T17:14:35.03Z  
1714.9165   62095   43.7300  -70.0084  192.0    8.7    14.907     29.033     1010.4        358.927859    350.764857    413.251060    403.852522    22.200000     2011-06-16T17:14:54.99Z  
1715.2506   62115   43.7284  -70.0088  191.0    8.7    14.714     29.062     1010.4        358.906575    350.805110    413.390828    404.041394    22.200000     2011-06-16T17:15:15.04Z  
1715.5832   62135   43.7269  -70.0093  191.0    8.6    14.620     29.061     1010.4        359.106316    351.034158    413.156550    403.874627    22.200000     2011-06-16T17:15:34.99Z  
1715.9173   62155   43.7254  -70.0097  193.0    8.6    14.669     29.055     1010.5        359.102195    351.025133    413.514756    404.221077    22.200000     2011-06-16T17:15:55.04Z  
1716.2499   62175   43.7239  -70.0106  205.0    8.6    14.688     29.050     1010.5        358.627047    350.559701    nd            nd            22.200000     2011-06-16T17:16:14.99Z  
1716.5840   62195   43.7226  -70.0117  214.0    8.6    14.676     29.049     1010.5        358.140439    350.090920    414.455369    405.142134    22.200000     2011-06-16T17:16:35.04Z  
1716.9166   62215   43.7213  -70.0129  212.0    8.7    14.687     29.052     1010.4        357.754992    349.696303    414.211823    404.891119    22.200000     2011-06-16T17:16:55.00Z  
1717.2507   62235   43.7200  -70.0140  208.0    8.7    14.745     29.048     1010.5        357.290753    349.233101    nd            nd            22.200000     2011-06-16T17:17:15.04Z  
1717.5834   62255   43.7186  -70.0150  208.0    8.7    14.863     29.043     1010.5        357.003519    348.907719    nd            nd            22.200000     2011-06-16T17:17:35.00Z  
1717.9160   62275   43.7172  -70.0160  209.0    8.7    14.863     29.044     1010.5        356.950279    348.854752    413.081260    403.703851    22.200000     2011-06-16T17:17:54.96Z  
1718.2501   62295   43.7158  -70.0171  209.0    8.7    14.893     29.030     1010.5        356.960453    348.858882    414.015733    404.606968    22.200000     2011-06-16T17:18:15.01Z  
1718.5827   62315   43.7145  -70.0181  209.0    8.7    15.130     28.991     1010.5        357.319485    349.123080    414.247661    404.745311    22.200000     2011-06-16T17:18:34.96Z  
1718.9168   62335   43.7131  -70.0192  209.0    8.8    15.483     28.967     1010.5        357.447943    349.112045    414.253191    404.592481    22.200000     2011-06-16T17:18:55.01Z  
1719.2494   62355   43.7117  -70.0203  209.0    9.0    15.820     28.964     1010.5        357.274666    348.822827    414.477937    404.672778    22.200000     2011-06-16T17:19:14.96Z  
1719.5835   62375   43.7103  -70.0214  210.0    9.0    16.092     28.965     1010.5        356.965230    348.414612    414.947085    405.007496    22.200000     2011-06-16T17:19:35.01Z  
1719.9162   62395   43.7089  -70.0225  212.0    9.0    16.129     28.976     1010.5        356.882341    348.317470    415.076030    405.114470    22.200000     2011-06-16T17:19:54.97Z  
1720.2502   62415   43.7075  -70.0237  212.0    9.0    16.136     28.991     1010.5        357.280331    348.701669    415.052162    405.080680    22.200000     2011-06-16T17:20:15.01Z  
1720.5829   62435   43.7061  -70.0249  212.0    9.0    16.078     29.006     1010.4        358.008551    349.430445    nd            nd            22.200000     2011-06-16T17:20:34.97Z  
1720.9170   62455   43.7048  -70.0261  211.0    9.0    15.927     29.042     1010.5        358.867196    350.327289    413.926872    404.117840    22.200000     2011-06-16T17:20:55.02Z  
1721.2496   62475   43.7034  -70.0272  211.0    9.0    15.705     29.101     1010.4        359.530411    351.051217    413.959254    404.196309    22.200000     2011-06-16T17:21:14.98Z  
1721.5837   62495   43.7020  -70.0283  211.0    8.9    15.582     29.140     1010.4        360.003441    351.554360    413.829115    404.117315    22.200000     2011-06-16T17:21:35.02Z  
1721.9163   62515   43.7006  -70.0295  212.0    8.9    15.477     29.179     1010.4        360.572623    352.152408    414.122164    404.451350    22.200000     2011-06-16T17:21:54.98Z  
1722.2504   62535   43.6993  -70.0307  214.0    8.8    15.394     29.172     1010.4        361.496115    353.085037    414.328165    404.687738    22.200000     2011-06-16T17:22:15.02Z  
1722.5830   62555   43.6984  -70.0324  235.0    8.8    15.548     29.139     1010.5        362.531421    354.052906    414.339242    404.649048    22.200000     2011-06-16T17:22:34.98Z  
1722.9171   62575   43.6976  -70.0343  240.0    8.9    15.704     29.133     1010.5        363.360586    354.802380    414.357182    404.604524    22.200000     2011-06-16T17:22:55.03Z  
1723.2498   62595   43.6968  -70.0362  240.0    8.9    15.808     29.167     1010.5        364.162130    355.545276    413.978057    404.190898    22.200000     2011-06-16T17:23:14.99Z  
1723.5838   62615   43.6960  -70.0381  239.0    8.9    15.919     29.201     1010.5        364.563424    355.897604    nd            nd            22.200000     2011-06-16T17:23:35.03Z  
1723.9165   62635   43.6951  -70.0400  239.0    9.0    15.923     29.224     1010.5        365.386048    356.700797    nd            nd            22.200000     2011-06-16T17:23:54.99Z  
1724.2506   62655   43.6943  -70.0420  241.0    9.0    15.826     29.240     1010.5        366.770928    358.093762    nd            nd            22.200000     2011-06-16T17:24:15.04Z  
1724.5832   62675   43.6939  -70.0441  260.0    8.9    15.615     29.254     1010.5        368.714006    360.075337    nd            nd            22.200000     2011-06-16T17:24:34.99Z  
1724.9173   62695   43.6940  -70.0463  274.0    9.0    15.447     29.263     1010.5        370.649165    362.032966    418.827268    409.110739    22.200000     2011-06-16T17:24:55.04Z  
1725.2499   62715   43.6943  -70.0485  281.0    9.0    15.376     29.275     1010.5        371.987950    363.363635    419.042655    409.326695    22.200000     2011-06-16T17:25:14.99Z  
1725.5840   62735   43.6948  -70.0506  287.0    8.9    15.360     29.291     1010.5        372.723173    364.095983    419.250380    409.546181    22.200000     2011-06-16T17:25:35.04Z  
1725.9166   62755   43.6955  -70.0526  300.0    9.0    15.305     29.307     1010.5        373.005728    364.378933    419.135447    409.441709    22.200000     2011-06-16T17:25:55.00Z  
1726.2493   62775   43.6966  -70.0542  315.0    8.7    15.109     29.315     1010.5        373.245399    364.688993    419.224372    409.613851    22.200000     2011-06-16T17:26:14.96Z  
1726.5834   62795   43.6979  -70.0553  329.0    8.9    14.935     29.319     1010.4        373.720237    365.207630    419.221335    409.669890    22.200000     2011-06-16T17:26:35.00Z  
1726.9160   62815   43.6993  -70.0565  328.0    8.9    14.894     29.313     1010.5        373.783384    365.297803    419.240844    409.723224    22.200000     2011-06-16T17:26:54.96Z  
1727.2501   62835   43.7007  -70.0576  332.0    9.0    15.001     29.294     1010.4        373.529102    364.989802    419.246230    409.661712    22.200000     2011-06-16T17:27:15.01Z  
1727.5827   62855   43.7023  -70.0582  345.0    9.0    15.148     29.259     1010.4        373.087819    364.501592    419.043409    409.399485    22.200000     2011-06-16T17:27:34.96Z  
1727.9168   62875   43.7038  -70.0587  345.0    8.6    15.204     29.188     1010.4        372.687739    364.097308    419.169201    409.506536    22.200000     2011-06-16T17:27:55.01Z  
1728.2494   62895   43.7051  -70.0592  346.0    7.6    15.140     29.128     1010.4        372.462056    363.902575    nd            nd            22.200000     2011-06-16T17:28:14.96Z  
1728.5835   62915   43.7063  -70.0596  345.0    6.7    14.972     29.135     1010.5        372.420325    363.938672    nd            nd            22.200000     2011-06-16T17:28:35.01Z  
1728.9162   62935   43.7073  -70.0600  345.0    5.3    14.451     29.422     1010.5        371.988858    363.705262    nd            nd            22.200000     2011-06-16T17:28:54.97Z  
1729.2502   62955   43.7082  -70.0603  346.0    5.1    13.897     29.572     1010.4        370.843284    362.779749    nd            nd            22.200000     2011-06-16T17:29:15.01Z  
1729.5829   62975   43.7090  -70.0606  345.0    5.0    13.692     29.495     1010.4        369.363871    361.402178    nd            nd            22.200000     2011-06-16T17:29:34.97Z  
1729.9170   62995   43.7099  -70.0609  345.0    5.0    13.656     29.438     1010.4        369.033597    361.088038    nd            nd            22.200000     2011-06-16T17:29:55.02Z  
1730.2496   63015   43.7108  -70.0613  345.0    5.0    13.745     29.399     1010.4        369.574366    361.583970    nd            nd            22.200000     2011-06-16T17:30:14.98Z  
1730.5837   63035   43.7117  -70.0616  346.0    5.1    13.882     29.351     1010.4        369.506149    361.469030    nd            nd            22.200000     2011-06-16T17:30:35.02Z  
1730.9163   63055   43.7125  -70.0618  350.0    4.9    14.009     29.325     1010.4        368.829883    360.762723    nd            nd            22.200000     2011-06-16T17:30:54.98Z  
1731.2504   63075   43.7132  -70.0620  346.0    3.7    14.123     29.311     1010.4        368.158668    360.072664    nd            nd            22.200000     2011-06-16T17:31:15.02Z  
1731.5830   63095   43.7135  -70.0621  311.0    1.2    14.151     29.309     1010.5        367.626428    359.553972    nd            nd            22.200000     2011-06-16T17:31:34.98Z  
1731.9171   63115   43.7135  -70.0621  112.0    0.4    14.182     29.297     1010.5        367.354014    359.279889    nd            nd            22.200000     2011-06-16T17:31:55.03Z  
1732.2498   63135   43.7134  -70.0620  122.0    0.3    14.220     29.296     1010.5        367.069403    358.982475    nd            nd            22.200000     2011-06-16T17:32:14.99Z  
1732.5838   63155   43.7134  -70.0619  135.0    0.2    14.102     29.316     1010.5        366.857402    358.814498    nd            nd            22.200000     2011-06-16T17:32:35.03Z  
1732.9165   63175   43.7134  -70.0619  162.0    0.1    14.064     29.309     1010.4        366.589964    358.558185    nd            nd            22.200000     2011-06-16T17:32:54.99Z  
1733.2506   63195   43.7134  -70.0619  194.0    0.1    14.079     29.306     1010.4        366.547876    358.504824    nd            nd            22.200000     2011-06-16T17:33:15.04Z  
1733.5832   63215   43.7134  -70.0619  208.0    0.1    14.096     29.304     1010.4        366.413004    358.356876    nd            nd            22.200000     2011-06-16T17:33:34.99Z  
1733.9173   63235   43.7134  -70.0620  215.0    0.1    14.097     29.306     1010.4        366.115152    358.061241    nd            nd            22.200000     2011-06-16T17:33:55.04Z  
1734.2499   63255   43.7134  -70.0620  222.0    0.1    14.102     29.306     1010.4        365.888870    357.836863    nd            nd            22.200000     2011-06-16T17:34:14.99Z  
1734.5840   63275   43.7133  -70.0620  233.0    0.1    14.101     29.307     1010.4        365.570870    357.525023    nd            nd            22.200000     2011-06-16T17:34:35.04Z  
1734.9166   63295   43.7133  -70.0620  242.0    0.1    14.121     29.306     1010.4        365.502158    357.449662    nd            nd            22.200000     2011-06-16T17:34:55.00Z  
1735.2493   63315   43.7133  -70.0620  246.0    0.1    14.127     29.308     1010.4        365.515042    357.455346    nd            nd            22.200000     2011-06-16T17:35:14.96Z  
1735.5834   63335   43.7133  -70.0621  246.0    0.1    14.124     29.308     1010.3        365.869523    357.799001    nd            nd            22.200000     2011-06-16T17:35:35.00Z  
1735.9160   63355   43.7133  -70.0621  251.0    0.1    14.133     29.306     1010.3        366.210741    358.124627    nd            nd            22.200000     2011-06-16T17:35:54.96Z  
1736.2501   63375   43.7133  -70.0621  251.0    0.1    14.130     29.306     1010.3        366.753600    358.654759    nd            nd            22.200000     2011-06-16T17:36:15.01Z  
1736.5827   63395   43.7133  -70.0621  257.0    0.1    14.117     29.308     1010.3        367.570393    359.457508    nd            nd            22.200000     2011-06-16T17:36:34.96Z  
1736.9168   63415   43.7133  -70.0622  253.0    0.1    14.107     29.308     1010.3        368.509181    360.377036    nd            nd            22.200000     2011-06-16T17:36:55.01Z  
1737.2494   63435   43.7133  -70.0622  252.0    0.1    14.101     29.307     1010.3        368.957800    360.820252    nd            nd            22.200000     2011-06-16T17:37:14.96Z  
1737.5835   63455   43.7133  -70.0622  251.0    0.1    14.109     29.306     1010.3        368.931559    360.792871    nd            nd            22.200000     2011-06-16T17:37:35.01Z  
1737.9162   63475   43.7133  -70.0622  117.0    0.2    14.126     29.304     1010.4        368.603565    360.476025    nd            nd            22.200000     2011-06-16T17:37:54.97Z  
1738.2502   63495   43.7133  -70.0622  101.0    0.2    14.138     29.303     1010.4        368.216251    360.098463    nd            nd            22.200000     2011-06-16T17:38:15.01Z  
1738.5829   63515   43.7133  -70.0621  156.0    0.1    14.133     29.306     1010.4        368.027420    359.915129    nd            nd            22.200000     2011-06-16T17:38:34.97Z  
1738.9170   63535   43.7133  -70.0621  211.0    0.1    14.106     29.313     1010.4        368.277711    360.163395    nd            nd            22.200000     2011-06-16T17:38:55.02Z  
1739.2496   63555   43.7132  -70.0622  228.0    0.2    14.073     29.318     1010.3        368.599207    360.474570    nd            nd            22.200000     2011-06-16T17:39:14.98Z  
1739.5837   63575   43.7132  -70.0622  192.0    0.1    14.071     29.316     1010.3        368.903232    360.763540    nd            nd            22.200000     2011-06-16T17:39:35.02Z  
1739.9163   63595   43.7132  -70.0621  81.0     0.2    14.098     29.313     1010.3        368.819194    360.690432    nd            nd            22.200000     2011-06-16T17:39:54.98Z  
1740.2504   63615   43.7132  -70.0621  113.0    0.1    14.078     29.319     1010.3        368.451492    360.337972    nd            nd            22.200000     2011-06-16T17:40:15.02Z  
1740.5830   63635   43.7132  -70.0621  177.0    0.1    14.024     29.326     1010.3        367.930439    359.840153    nd            nd            22.200000     2011-06-16T17:40:34.98Z  
1740.9171   63655   43.7132  -70.0621  214.0    0.1    14.011     29.324     1010.3        367.418892    359.340184    nd            nd            22.200000     2011-06-16T17:40:55.03Z  
1741.2498   63675   43.7132  -70.0621  238.0    0.2    14.032     29.319     1010.3        367.218107    359.127934    nd            nd            22.200000     2011-06-16T17:41:14.99Z  
1741.5838   63695   43.7132  -70.0621  119.0    0.1    14.058     29.317     1010.3        367.427062    359.328093    nd            nd            22.200000     2011-06-16T17:41:35.03Z  
1741.9165   63715   43.7132  -70.0621  121.0    0.1    14.070     29.318     1010.3        367.462551    359.361084    nd            nd            22.200000     2011-06-16T17:41:54.99Z  
1742.2506   63735   43.7131  -70.0621  186.0    0.1    14.061     29.320     1010.3        367.400610    359.300795    nd            nd            22.200000     2011-06-16T17:42:15.04Z  
1742.5832   63755   43.7131  -70.0621  218.0    0.1    14.058     29.322     1010.3        367.206883    359.100101    nd            nd            22.200000     2011-06-16T17:42:34.99Z  
1742.9173   63775   43.7131  -70.0621  234.0    0.2    14.053     29.322     1010.2        366.959717    358.850167    nd            nd            22.200000     2011-06-16T17:42:55.04Z  
1743.2499   63795   43.7131  -70.0622  232.0    0.2    14.065     29.320     1010.2        367.178737    359.047368    nd            nd            22.200000     2011-06-16T17:43:14.99Z  
1743.5840   63815   43.7131  -70.0622  236.0    0.2    14.056     29.323     1010.2        367.662015    359.514354    nd            nd            22.200000     2011-06-16T17:43:35.04Z  
1743.9166   63835   43.7131  -70.0622  248.0    0.2    14.009     29.331     1010.2        368.053672    359.911639    nd            nd            22.200000     2011-06-16T17:43:55.00Z  
1744.2493   63855   43.7131  -70.0623  249.0    0.2    13.953     29.337     1010.2        368.094502    359.967480    nd            nd            22.200000     2011-06-16T17:44:14.96Z  
1744.5834   63875   43.7130  -70.0623  249.0    0.2    13.958     29.331     1010.2        367.754519    359.633174    nd            nd            22.200000     2011-06-16T17:44:35.00Z  
1744.9160   63895   43.7130  -70.0624  221.0    0.5    14.003     29.325     1010.1        367.456667    359.322119    nd            nd            22.200000     2011-06-16T17:44:54.96Z  
1745.2501   63915   43.7129  -70.0625  205.0    0.6    14.033     29.324     1010.1        367.235149    359.095269    nd            nd            22.200000     2011-06-16T17:45:15.01Z  
1745.5827   63935   43.7128  -70.0625  207.0    0.5    14.044     29.323     1010.2        367.366566    359.221269    nd            nd            22.200000     2011-06-16T17:45:34.96Z  
1745.9168   63955   43.7127  -70.0626  212.0    0.4    14.056     29.323     1010.1        368.584794    360.406487    nd            nd            22.200000     2011-06-16T17:45:55.01Z  
1746.2494   63975   43.7127  -70.0626  217.0    0.4    14.011     29.332     1010.2        369.767736    361.582694    nd            nd            22.200000     2011-06-16T17:46:14.96Z  
1746.5835   63995   43.7126  -70.0627  221.0    0.4    13.958     29.334     1010.2        370.545108    362.363112    nd            nd            22.200000     2011-06-16T17:46:35.01Z  
1746.9162   64015   43.7126  -70.0627  230.0    0.3    13.989     29.327     1010.2        370.754744    362.556821    nd            nd            22.200000     2011-06-16T17:46:54.97Z  
1747.2502   64035   43.7125  -70.0628  237.0    0.3    14.037     29.321     1010.2        370.421402    362.211860    nd            nd            22.200000     2011-06-16T17:47:15.01Z  
1747.5829   64055   43.7125  -70.0629  238.0    0.3    14.061     29.322     1010.2        369.874115    361.667319    nd            nd            22.200000     2011-06-16T17:47:34.97Z  
1747.9170   64075   43.7125  -70.0629  237.0    0.3    14.054     29.326     1010.1        369.245251    361.052487    nd            nd            22.200000     2011-06-16T17:47:55.02Z  
1748.2496   64095   43.7125  -70.0630  234.0    0.2    13.997     29.336     1010.1        368.707759    360.547373    nd            nd            22.200000     2011-06-16T17:48:14.98Z  
1748.5837   64115   43.7124  -70.0630  231.0    0.2    13.951     29.338     1010.2        368.743279    360.602665    nd            nd            22.200000     2011-06-16T17:48:35.02Z  
1748.9163   64135   43.7124  -70.0630  231.0    0.2    13.928     29.340     1010.2        369.241334    361.095275    nd            nd            22.200000     2011-06-16T17:48:54.98Z  
1749.2504   64155   43.7124  -70.0631  231.0    0.3    13.900     29.341     1010.2        369.455440    361.315739    nd            nd            22.200000     2011-06-16T17:49:15.02Z  
1749.5830   64175   43.7123  -70.0631  230.0    0.3    13.904     29.338     1010.1        369.213919    361.072856    nd            nd            22.200000     2011-06-16T17:49:34.98Z  
1749.9171   64195   43.7123  -70.0632  231.0    0.3    13.931     29.333     1010.1        368.947636    360.800605    nd            nd            22.200000     2011-06-16T17:49:55.03Z  
1750.2498   64215   43.7123  -70.0632  230.0    0.3    13.969     29.330     1010.1        368.426133    360.273213    nd            nd            22.200000     2011-06-16T17:50:14.99Z  
1750.5838   64235   43.7123  -70.0633  230.0    0.3    13.981     29.331     1010.1        368.170425    360.014978    nd            nd            22.200000     2011-06-16T17:50:35.03Z  
1750.9165   64255   43.7122  -70.0633  233.0    0.3    13.984     29.331     1010.1        368.514006    360.349167    nd            nd            22.200000     2011-06-16T17:50:54.99Z  
1751.2506   64275   43.7122  -70.0634  238.0    0.3    13.992     29.329     1010.1        368.876112    360.703237    nd            nd            22.200000     2011-06-16T17:51:15.04Z  
1751.5832   64295   43.7122  -70.0634  239.0    0.3    14.007     29.328     1010.1        368.949037    360.771248    nd            nd            22.200000     2011-06-16T17:51:34.99Z  
1751.9173   64315   43.7122  -70.0635  238.0    0.3    14.014     29.328     1010.1        368.924677    360.742583    nd            nd            22.200000     2011-06-16T17:51:55.04Z  
1752.2499   64335   43.7121  -70.0635  237.0    0.3    14.040     29.323     1010.1        368.670756    360.486142    nd            nd            22.200000     2011-06-16T17:52:14.99Z  
1752.5840   64355   43.7121  -70.0636  241.0    0.3    14.070     29.320     1010.1        368.377731    360.192430    nd            nd            22.200000     2011-06-16T17:52:35.04Z  
1752.9166   64375   43.7121  -70.0636  242.0    0.3    14.070     29.323     1010.1        368.020262    359.844519    nd            nd            22.200000     2011-06-16T17:52:55.00Z  
1753.2507   64395   43.7121  -70.0637  242.0    0.3    14.060     29.323     1010.1        367.791342    359.623357    nd            nd            22.200000     2011-06-16T17:53:15.04Z  
1753.5834   64415   43.7120  -70.0637  242.0    0.3    14.086     29.317     1010.1        367.788924    359.615009    nd            nd            22.200000     2011-06-16T17:53:35.00Z  
1753.9160   64435   43.7120  -70.0638  242.0    0.3    14.120     29.315     1010.1        367.823100    359.637417    nd            nd            22.200000     2011-06-16T17:53:54.96Z  
1754.2501   64455   43.7120  -70.0638  241.0    0.3    14.159     29.311     1010.2        368.221984    360.023099    nd            nd            22.200000     2011-06-16T17:54:15.01Z  
1754.5827   64475   43.7120  -70.0639  238.0    0.2    14.200     29.309     1010.2        368.624944    360.404794    nd            nd            22.200000     2011-06-16T17:54:34.96Z  
1754.9168   64495   43.7120  -70.0639  238.0    0.2    14.230     29.310     1010.2        369.524683    361.276912    nd            nd            22.200000     2011-06-16T17:54:55.01Z  
1755.2494   64515   43.7119  -70.0640  240.0    0.2    14.232     29.312     1010.2        370.213947    361.949176    nd            nd            22.200000     2011-06-16T17:55:14.96Z  
1755.5835   64535   43.7119  -70.0640  240.0    0.2    14.211     29.316     1010.2        371.127415    362.852774    nd            nd            22.200000     2011-06-16T17:55:35.01Z  
1755.9162   64555   43.7119  -70.0642  245.0    1.1    14.186     29.319     1010.2        371.529266    363.257897    nd            nd            22.200000     2011-06-16T17:55:54.97Z  
1756.2502   64575   43.7121  -70.0645  325.0    2.6    14.170     29.321     1010.2        372.200586    363.905881    nd            nd            22.200000     2011-06-16T17:56:15.01Z  
1756.5829   64595   43.7130  -70.0645  3.0      5.4    14.169     29.321     1010.1        373.016392    364.699277    nd            nd            22.200000     2011-06-16T17:56:34.97Z  
1756.9170   64615   43.7143  -70.0646  353.0    7.2    14.225     29.312     1010.1        373.244699    364.897843    nd            nd            22.200000     2011-06-16T17:56:55.02Z  
1757.2496   64635   43.7157  -70.0649  355.0    7.9    14.229     29.323     1010.1        373.445320    365.093750    nd            nd            22.200000     2011-06-16T17:57:14.98Z  
1757.5837   64655   43.7171  -70.0648  38.0     7.9    14.169     29.326     1010.1        373.385773    365.051337    nd            nd            22.200000     2011-06-16T17:57:35.02Z  
1757.9163   64675   43.7186  -70.0647  2.0      8.0    14.134     29.329     1010.1        373.352196    365.033046    nd            nd            22.200000     2011-06-16T17:57:54.98Z  
1758.2504   64695   43.7200  -70.0648  250.0    8.2    13.995     29.352     1010.1        373.030062    364.768827    433.627281    424.029422    22.200000     2011-06-16T17:58:15.02Z  
1758.5830   64715   43.7216  -70.0649  354.0    8.6    13.883     29.370     1010.1        372.554930    364.348691    nd            nd            22.200000     2011-06-16T17:58:34.98Z  
1758.9171   64735   43.7230  -70.0657  333.0    8.6    13.809     29.378     1010.2        371.985767    363.829084    nd            nd            22.200000     2011-06-16T17:58:55.03Z  
1759.2498   64755   43.7242  -70.0671  318.0    8.7    13.804     29.372     1010.2        371.402284    363.257375    nd            nd            22.200000     2011-06-16T17:59:14.99Z  
1759.5838   64775   43.7251  -70.0689  305.0    8.8    13.864     29.365     1010.2        370.255156    362.117287    nd            nd            22.200000     2011-06-16T17:59:35.03Z  
1759.9006   64794   43.7258  -70.0708  296.0    8.9    13.932     29.361     1010.2        368.587823    360.457704    nd            nd            22.133333     2011-06-16T17:59:54.04Z  
1800.2506   64815   43.7264  -70.0729  290.0    8.9    14.070     29.356     1010.2        366.611773    358.477616    nd            nd            21.800000     2011-06-16T18:00:15.04Z  
1800.5832   64835   43.7268  -70.0751  284.0    9.0    14.243     29.352     1010.2        364.599935    356.450239    417.521481    408.192978    21.800000     2011-06-16T18:00:34.99Z  
1800.9173   64855   43.7268  -70.0773  262.0    8.9    14.391     29.356     1010.1        363.030809    354.851451    417.147297    407.736645    21.800000     2011-06-16T18:00:55.04Z  
1801.2499   64875   43.7260  -70.0792  239.0    8.9    14.475     29.370     1010.1        362.158859    353.958147    417.103928    407.658956    21.800000     2011-06-16T18:01:14.99Z  
1801.5840   64895   43.7251  -70.0811  240.0    9.0    14.382     29.398     1010.1        362.074432    353.913984    416.971605    407.573786    21.800000     2011-06-16T18:01:35.04Z  
1801.9166   64915   43.7244  -70.0831  242.0    9.0    14.147     29.412     1010.1        363.028993    354.938079    416.903167    407.611427    21.800000     2011-06-16T18:01:55.00Z  
1802.2507   64935   43.7236  -70.0850  243.0    9.0    13.942     29.420     1010.1        364.960336    356.903193    416.841078    407.638484    21.800000     2011-06-16T18:02:15.04Z  
1802.5834   64955   43.7229  -70.0870  240.0    9.0    14.111     29.383     1010.1        367.600633    359.418532    416.736404    407.460632    21.800000     2011-06-16T18:02:35.00Z  
1802.9160   64975   43.7218  -70.0887  228.0    9.0    14.336     29.357     1010.1        370.180657    361.858710    416.780869    407.411273    21.800000     2011-06-16T18:02:54.96Z  
1803.2501   64995   43.7206  -70.0902  224.0    8.9    14.456     29.347     1010.1        371.881320    363.477624    416.737660    407.320254    21.800000     2011-06-16T18:03:15.01Z  
1803.5827   65015   43.7195  -70.0918  225.0    9.0    14.516     29.345     1010.1        372.532587    364.086141    416.530897    407.086810    21.800000     2011-06-16T18:03:34.96Z  
1803.9168   65035   43.7183  -70.0933  224.0    9.0    14.559     29.348     1010.1        372.530562    364.065164    416.590313    407.123630    21.800000     2011-06-16T18:03:55.01Z  
1804.2494   65055   43.7171  -70.0948  222.0    9.1    14.620     29.351     1010.1        372.159335    363.677357    416.221328    406.747263    21.800000     2011-06-16T18:04:14.96Z  
1804.5835   65075   43.7159  -70.0964  222.0    9.2    14.679     29.357     1010.1        371.726365    363.237313    416.307175    406.797875    21.800000     2011-06-16T18:04:35.01Z  
1804.9162   65095   43.7147  -70.0979  224.0    9.3    14.627     29.380     1010.1        371.440013    362.972399    416.242612    406.749430    21.800000     2011-06-16T18:04:54.97Z  
1805.2502   65115   43.7135  -70.0996  226.0    9.2    14.464     29.404     1010.1        371.805158    363.388362    416.658377    407.241682    21.800000     2011-06-16T18:05:15.01Z  
1805.5829   65135   43.7124  -70.1012  226.0    9.2    14.331     29.416     1010.1        372.565507    364.177506    416.431990    407.055223    21.800000     2011-06-16T18:05:34.97Z  
1805.9170   65155   43.7111  -70.1027  222.0    9.2    14.266     29.405     1010.0        373.705037    365.301955    416.531514    407.165376    21.800000     2011-06-16T18:05:55.02Z  
1806.2496   65175   43.7098  -70.1042  218.0    9.2    14.225     29.395     1010.0        375.162463    366.725755    416.554830    407.187213    21.800000     2011-06-16T18:06:14.98Z  
1806.5837   65195   43.7085  -70.1055  216.0    9.2    14.124     29.406     1010.0        376.491871    368.059464    416.380219    407.054348    21.800000     2011-06-16T18:06:35.02Z  
1806.9163   65215   43.7072  -70.1069  217.0    9.1    14.047     29.422     1010.0        376.939182    368.519300    416.310424    407.009624    21.800000     2011-06-16T18:06:54.98Z  
1807.2504   65235   43.7059  -70.1083  218.0    9.2    14.057     29.432     1010.0        376.253493    367.849102    416.227358    406.929914    21.800000     2011-06-16T18:07:15.02Z  
1807.5830   65255   43.7046  -70.1097  219.0    9.1    14.090     29.421     1010.0        375.144190    366.746153    416.013269    406.701312    21.800000     2011-06-16T18:07:34.98Z  
1807.9171   65275   43.7033  -70.1111  218.0    9.1    14.111     29.396     1010.0        374.698899    366.294384    nd            nd            21.800000     2011-06-16T18:07:55.03Z  
1808.2498   65295   43.7021  -70.1125  218.0    9.1    14.199     29.392     1009.9        374.800069    366.357198    415.327801    405.969742    21.800000     2011-06-16T18:08:14.99Z  
1808.5838   65315   43.7009  -70.1140  226.0    9.1    14.236     29.388     1009.9        374.489829    366.033437    415.311987    405.930360    21.800000     2011-06-16T18:08:35.03Z  
1808.9165   65335   43.6999  -70.1159  234.0    9.1    14.230     29.382     1009.9        373.492319    365.065820    nd            nd            21.800000     2011-06-16T18:08:54.99Z  
1809.2506   65355   43.6990  -70.1177  235.0    9.1    14.333     29.370     1009.9        371.991495    363.558673    417.660717    408.153820    21.800000     2011-06-16T18:09:15.04Z  
1809.5832   65375   43.6980  -70.1196  234.0    9.1    14.492     29.353     1009.9        370.427640    361.965356    417.771228    408.227300    21.800000     2011-06-16T18:09:34.99Z  
1809.9173   65395   43.6969  -70.1212  225.0    9.1    14.463     29.357     1009.9        369.103552    360.666660    417.906185    408.353544    21.800000     2011-06-16T18:09:55.04Z  
1810.2499   65415   43.6956  -70.1226  220.0    9.1    14.488     29.369     1009.9        368.314655    359.883197    417.713715    408.146198    21.800000     2011-06-16T18:10:14.99Z  
1810.5840   65435   43.6943  -70.1240  217.0    9.2    14.539     29.368     1009.9        367.754114    359.315811    417.613870    408.031434    21.800000     2011-06-16T18:10:35.04Z  
1810.9166   65455   43.6930  -70.1254  217.0    9.1    14.495     29.391     1009.8        367.303067    358.889809    417.406864    407.845874    21.800000     2011-06-16T18:10:55.00Z  
1811.2493   65475   43.6917  -70.1267  218.0    9.1    14.494     29.382     1009.8        367.289093    358.865812    417.438410    407.867038    21.800000     2011-06-16T18:11:14.96Z  
1811.5834   65495   43.6904  -70.1282  219.0    9.1    14.474     29.365     1009.8        367.573851    359.142897    417.295058    407.722037    21.800000     2011-06-16T18:11:35.00Z  
1811.9160   65515   43.6892  -70.1296  219.0    9.2    14.435     29.384     1009.8        368.116428    359.685846    417.506993    407.945194    21.800000     2011-06-16T18:11:54.96Z  
1812.2501   65535   43.6879  -70.1310  219.0    9.1    14.374     29.399     1009.8        368.416253    360.005320    417.520841    407.988773    21.800000     2011-06-16T18:12:15.01Z  
1812.5827   65555   43.6866  -70.1324  219.0    9.1    14.367     29.409     1009.8        368.455820    360.045429    417.817242    408.278679    21.800000     2011-06-16T18:12:34.96Z  
1812.9168   65575   43.6853  -70.1338  219.0    9.1    14.352     29.400     1009.8        368.205582    359.808603    417.572548    408.049674    21.800000     2011-06-16T18:12:55.01Z  
1813.2494   65595   43.6840  -70.1352  218.0    9.0    14.373     29.379     1009.8        367.808461    359.412500    417.574879    408.060437    21.800000     2011-06-16T18:13:14.96Z  
1813.5835   65615   43.6828  -70.1366  218.0    9.0    14.639     29.361     1009.8        367.642458    359.153129    nd            nd            21.800000     2011-06-16T18:13:35.01Z  
1813.9162   65635   43.6815  -70.1380  218.0    9.0    14.733     29.361     1009.8        367.546485    359.031370    nd            nd            21.800000     2011-06-16T18:13:54.97Z  
1814.2502   65655   43.6802  -70.1393  218.0    9.0    14.909     29.328     1009.8        367.710818    359.122231    nd            nd            21.800000     2011-06-16T18:14:15.01Z  
1814.5829   65675   43.6789  -70.1407  217.0    9.1    14.945     29.323     1009.8        368.467984    359.846005    nd            nd            21.800000     2011-06-16T18:14:34.97Z  
1814.9170   65695   43.6776  -70.1420  217.0    9.0    14.948     29.312     1009.8        369.482799    360.835236    nd            nd            21.800000     2011-06-16T18:14:55.02Z  
1815.2496   65715   43.6763  -70.1434  218.0    9.0    14.950     29.309     1009.8        370.464086    361.790897    nd            nd            21.800000     2011-06-16T18:15:14.98Z  
1815.5837   65735   43.6750  -70.1448  219.0    8.9    14.851     29.312     1009.8        370.833977    362.182316    nd            nd            21.800000     2011-06-16T18:15:35.02Z  
1815.9163   65755   43.6738  -70.1462  218.0    8.9    14.813     29.324     1009.8        370.915402    362.270016    nd            nd            21.800000     2011-06-16T18:15:54.98Z  
1816.2504   65775   43.6725  -70.1474  216.0    8.9    15.083     29.319     1009.8        370.253444    361.521480    419.393866    409.474220    21.800000     2011-06-16T18:16:15.02Z  
1816.5830   65795   43.6712  -70.1488  218.0    8.9    15.199     29.306     1009.8        369.502107    360.746598    419.743442    409.795011    21.800000     2011-06-16T18:16:34.98Z  
1816.9171   65815   43.6699  -70.1501  217.0    8.9    15.217     29.288     1009.8        369.728702    360.962710    419.710592    409.759489    21.800000     2011-06-16T18:16:55.03Z  
1817.2498   65835   43.6687  -70.1515  221.0    8.9    15.172     29.280     1009.8        370.161264    361.405119    419.740181    409.806458    21.800000     2011-06-16T18:17:14.99Z  
1817.5838   65855   43.6678  -70.1534  239.0    8.9    15.045     29.285     1009.8        370.992416    362.275554    419.928100    410.072942    21.800000     2011-06-16T18:17:35.03Z  
1817.9165   65875   43.6671  -70.1554  244.0    9.0    14.958     29.280     1009.8        371.777262    363.078327    419.877462    410.049218    21.800000     2011-06-16T18:17:54.99Z  
1818.2506   65895   43.6665  -70.1574  246.0    9.0    14.917     29.260     1009.8        372.060965    363.372821    420.074314    410.266516    21.800000     2011-06-16T18:18:15.04Z  
1818.5832   65915   43.6658  -70.1594  247.0    8.9    14.871     29.235     1009.8        372.135957    363.464445    420.135803    410.345724    21.800000     2011-06-16T18:18:34.99Z  
1818.9173   65935   43.6653  -70.1615  251.0    8.8    14.825     29.235     1009.8        371.991215    363.339041    420.172330    410.399434    21.800000     2011-06-16T18:18:55.04Z  
1819.2499   65955   43.6649  -70.1636  258.0    8.8    14.761     29.262     1009.8        372.002545    363.374916    420.181852    410.436757    21.800000     2011-06-16T18:19:14.99Z  
1819.5840   65975   43.6652  -70.1657  285.0    8.8    14.434     29.335     1009.8        372.247189    363.737272    420.240494    410.555266    21.800000     2011-06-16T18:19:35.04Z  
1819.9166   65995   43.6661  -70.1675  305.0    8.6    14.140     29.412     1009.8        374.083876    365.637431    nd            nd            21.800000     2011-06-16T18:19:55.00Z  
1820.2493   66015   43.6671  -70.1691  313.0    8.5    14.008     29.416     1009.8        375.485729    367.051056    420.589208    411.138401    21.800000     2011-06-16T18:20:14.96Z  
1820.5834   66035   43.6682  -70.1706  316.0    8.6    14.125     29.195     1009.8        377.130752    368.610769    420.717823    411.213089    21.800000     2011-06-16T18:20:35.00Z  
1820.9160   66055   43.6694  -70.1719  321.0    8.4    14.306     28.868     1009.8        378.260927    369.644541    420.577877    410.997521    21.800000     2011-06-16T18:20:54.96Z  
1821.2501   66075   43.6707  -70.1730  332.0    8.7    14.380     28.773     1009.8        379.748456    371.061668    420.633982    411.017585    21.800000     2011-06-16T18:21:15.01Z  
1821.5827   66095   43.6721  -70.1739  332.0    8.7    14.384     28.771     1009.8        380.806930    372.094792    420.249127    410.629159    21.800000     2011-06-16T18:21:34.96Z  
1821.9168   66115   43.6735  -70.1750  330.0    8.5    14.391     28.749     1009.8        381.798226    373.065354    420.059353    410.448808    21.800000     2011-06-16T18:21:55.01Z  
1822.2494   66135   43.6748  -70.1760  334.0    8.6    14.391     28.714     1009.7        382.715022    373.948098    420.119059    410.495255    21.800000     2011-06-16T18:22:14.96Z  
1822.5835   66155   43.6763  -70.1766  344.0    8.6    14.327     28.739     1009.7        383.664214    374.888439    419.881427    410.277175    21.800000     2011-06-16T18:22:35.01Z  
1822.9162   66175   43.6779  -70.1770  349.0    8.7    14.319     28.704     1009.7        385.030071    376.218457    419.737962    410.131998    21.800000     2011-06-16T18:22:54.97Z  
1823.2502   66195   43.6794  -70.1774  352.0    8.5    14.357     28.643     1009.7        386.390613    377.537922    419.727105    410.110136    21.800000     2011-06-16T18:23:15.01Z  
1823.5829   66215   43.6806  -70.1776  350.0    6.3    14.437     28.562     1009.8        387.062985    378.183173    nd            nd            21.800000     2011-06-16T18:23:34.97Z  
1823.9170   66235   43.6814  -70.1779  343.0    4.9    14.585     28.472     1009.8        387.695315    378.750347    nd            nd            21.800000     2011-06-16T18:23:55.02Z  
1824.2496   66255   43.6818  -70.1784  305.0    2.8    14.721     28.518     1009.8        388.035085    379.047718    nd            nd            21.800000     2011-06-16T18:24:14.98Z  
1824.5837   66275   43.6818  -70.1786  290.0    0.5    14.741     28.689     1009.8        388.901445    379.861764    nd            nd            21.800000     2011-06-16T18:24:35.02Z  
1824.9163   66295   43.6818  -70.1786  276.0    0.2    14.599     28.861     1009.7        390.150892    381.117303    nd            nd            21.800000     2011-06-16T18:24:54.98Z  
1825.2504   66315   43.6818  -70.1787  266.0    0.2    14.506     28.916     1009.7        391.227892    382.213290    nd            nd            21.800000     2011-06-16T18:25:15.02Z  
1825.5830   66335   43.6818  -70.1787  260.0    0.3    14.327     29.020     1009.7        391.906367    382.939886    nd            nd            21.800000     2011-06-16T18:25:34.98Z  
1825.9171   66355   43.6818  -70.1788  259.0    0.3    14.192     29.033     1009.7        392.077135    383.162250    nd            nd            21.800000     2011-06-16T18:25:55.03Z  
1826.2498   66375   43.6818  -70.1789  258.0    0.3    14.154     29.020     1009.7        391.135536    382.257680    nd            nd            21.800000     2011-06-16T18:26:14.99Z  
1826.5838   66395   43.6818  -70.1789  261.0    0.3    14.140     29.012     1009.7        389.670379    380.831876    nd            nd            21.800000     2011-06-16T18:26:35.03Z  
1826.9165   66415   43.6818  -70.1790  264.0    0.3    14.156     28.996     1009.7        388.095014    379.284325    nd            nd            21.800000     2011-06-16T18:26:54.99Z  
1827.2506   66435   43.6818  -70.1791  263.0    0.3    14.165     28.999     1009.7        386.793685    378.016850    nd            nd            21.800000     2011-06-16T18:27:15.04Z  
1827.5832   66455   43.6818  -70.1791  264.0    0.3    14.161     29.005     1009.8        386.356610    377.596248    nd            nd            21.800000     2011-06-16T18:27:34.99Z  
1827.9173   66475   43.6818  -70.1792  259.0    0.3    14.154     29.012     1009.7        386.738739    377.970292    nd            nd            21.800000     2011-06-16T18:27:55.04Z  
1828.2499   66495   43.6818  -70.1793  257.0    0.3    14.140     29.016     1009.7        387.145862    378.372386    nd            nd            21.800000     2011-06-16T18:28:14.99Z  
1828.5840   66515   43.6817  -70.1793  256.0    0.3    14.132     29.025     1009.7        387.774501    378.987902    nd            nd            21.800000     2011-06-16T18:28:35.04Z  
1828.9166   66535   43.6817  -70.1794  253.0    0.3    14.112     29.038     1009.7        388.275480    379.489276    nd            nd            21.800000     2011-06-16T18:28:55.00Z  
1829.2493   66555   43.6817  -70.1795  247.0    0.3    14.096     29.044     1009.8        388.532187    379.751425    nd            nd            21.800000     2011-06-16T18:29:14.96Z  
1829.5834   66575   43.6817  -70.1795  244.0    0.3    14.092     29.045     1009.8        388.253115    379.482056    nd            nd            21.800000     2011-06-16T18:29:35.00Z  
1829.9160   66595   43.6817  -70.1796  243.0    0.3    14.083     29.052     1009.8        387.852396    379.098018    nd            nd            21.800000     2011-06-16T18:29:54.96Z  
1830.2501   66615   43.6816  -70.1797  240.0    0.3    14.070     29.059     1009.8        387.168479    378.435043    nd            nd            21.800000     2011-06-16T18:30:15.01Z  
1830.5827   66635   43.6816  -70.1797  239.0    0.3    14.052     29.073     1009.8        386.653363    377.944615    nd            nd            21.800000     2011-06-16T18:30:34.96Z  
1830.9168   66655   43.6816  -70.1798  236.0    0.3    14.013     29.103     1009.8        386.174872    377.496684    nd            nd            21.800000     2011-06-16T18:30:55.01Z  
1831.2494   66675   43.6815  -70.1799  233.0    0.3    13.989     29.103     1009.8        385.059071    376.419786    nd            nd            21.800000     2011-06-16T18:31:14.96Z  
1831.5835   66695   43.6815  -70.1799  235.0    0.3    14.002     29.087     1009.8        383.908326    375.287894    nd            nd            21.800000     2011-06-16T18:31:35.01Z  
1831.9162   66715   43.6815  -70.1800  235.0    0.3    14.048     29.072     1009.8        382.539328    373.938012    nd            nd            21.800000     2011-06-16T18:31:54.97Z  
1832.2502   66735   43.6814  -70.1801  237.0    0.3    14.079     29.071     1009.8        381.455586    372.866985    nd            nd            21.800000     2011-06-16T18:32:15.01Z  
1832.5829   66755   43.6814  -70.1801  237.0    0.3    14.081     29.075     1009.8        380.625461    372.060156    nd            nd            21.800000     2011-06-16T18:32:34.97Z  
1832.9170   66775   43.6814  -70.1802  238.0    0.3    14.122     29.053     1009.9        380.107336    371.540397    nd            nd            21.800000     2011-06-16T18:32:55.02Z  
1833.2496   66795   43.6813  -70.1802  237.0    0.3    14.191     29.033     1009.9        379.961556    371.374416    nd            nd            21.800000     2011-06-16T18:33:14.98Z  
1833.5837   66815   43.6813  -70.1803  235.0    0.3    14.234     29.028     1009.9        380.599972    371.982679    nd            nd            21.800000     2011-06-16T18:33:35.02Z  
1833.9163   66835   43.6813  -70.1804  234.0    0.3    14.263     29.021     1009.9        382.011598    373.354001    nd            nd            21.800000     2011-06-16T18:33:54.98Z  
1834.2504   66855   43.6813  -70.1804  234.0    0.3    14.289     29.014     1009.9        383.343352    374.649227    nd            nd            21.800000     2011-06-16T18:34:15.02Z  
1834.5830   66875   43.6812  -70.1805  235.0    0.3    14.305     29.013     1009.9        384.615092    375.885086    nd            nd            21.800000     2011-06-16T18:34:34.98Z  
1834.9171   66895   43.6812  -70.1805  235.0    0.3    14.291     29.022     1009.9        385.384676    376.640289    nd            nd            21.800000     2011-06-16T18:34:55.03Z  
1835.2498   66915   43.6812  -70.1806  234.0    0.3    14.300     29.015     1009.9        385.578941    376.826289    nd            nd            21.800000     2011-06-16T18:35:14.99Z  
1835.5838   66935   43.6811  -70.1807  236.0    0.3    14.319     29.011     1009.9        385.386760    376.633864    nd            nd            21.800000     2011-06-16T18:35:35.03Z  
1835.9165   66955   43.6811  -70.1807  236.0    0.3    14.331     29.008     1009.9        385.194139    376.442818    nd            nd            21.800000     2011-06-16T18:35:54.99Z  
1836.2506   66975   43.6811  -70.1808  236.0    0.3    14.341     29.005     1009.9        384.996318    376.248725    nd            nd            21.800000     2011-06-16T18:36:15.04Z  
1836.5832   66995   43.6810  -70.1809  235.0    0.3    14.350     29.006     1009.9        384.992804    376.240483    nd            nd            21.800000     2011-06-16T18:36:34.99Z  
1836.9173   67015   43.6810  -70.1809  236.0    0.5    14.353     29.004     1009.9        385.129604    376.378558    nd            nd            21.800000     2011-06-16T18:36:55.04Z  
1837.2499   67035   43.6809  -70.1812  252.0    1.1    14.358     29.004     1009.9        385.232385    376.495006    nd            nd            21.800000     2011-06-16T18:37:14.99Z  
1837.5840   67055   43.6810  -70.1810  103.0    2.0    14.362     29.002     1009.8        385.293268    376.509924    nd            nd            21.800000     2011-06-16T18:37:35.04Z  
1837.9166   67075   43.6814  -70.1800  66.0     4.6    14.366     29.002     1009.8        385.246421    376.460471    nd            nd            21.800000     2011-06-16T18:37:55.00Z  
1838.2507   67095   43.6816  -70.1791  72.0     3.2    14.379     29.002     1009.9        385.043706    376.281307    nd            nd            21.800000     2011-06-16T18:38:15.04Z  
1838.5834   67115   43.6816  -70.1789  89.0     0.6    14.397     29.005     1009.9        385.034104    376.273422    nd            nd            21.800000     2011-06-16T18:38:35.00Z  
1838.9160   67135   43.6816  -70.1789  104.0    0.1    14.407     29.018     1009.9        385.073013    376.318304    nd            nd            21.800000     2011-06-16T18:38:54.96Z  
1839.2501   67155   43.6816  -70.1789  199.0    0.1    14.384     29.046     1009.9        384.910251    376.172759    nd            nd            21.800000     2011-06-16T18:39:15.01Z  
1839.5827   67175   43.6816  -70.1789  217.0    0.2    14.353     29.056     1010.0        384.553787    375.837410    nd            nd            21.800000     2011-06-16T18:39:34.96Z  
1839.9168   67195   43.6815  -70.1790  216.0    0.3    14.333     29.063     1010.0        384.086259    375.392782    nd            nd            21.800000     2011-06-16T18:39:55.01Z  
1840.2494   67215   43.6815  -70.1790  217.0    0.4    14.327     29.065     1010.0        383.453769    374.784541    nd            nd            21.800000     2011-06-16T18:40:14.96Z  
1840.5835   67235   43.6814  -70.1791  218.0    0.4    14.328     29.059     1010.0        382.853492    374.199608    nd            nd            21.800000     2011-06-16T18:40:35.01Z  
1840.9162   67255   43.6814  -70.1791  222.0    0.4    14.340     29.053     1010.0        382.303562    373.659552    nd            nd            21.800000     2011-06-16T18:40:54.97Z  
1841.2502   67275   43.6813  -70.1792  223.0    0.5    14.361     29.048     1010.0        381.946168    373.310521    nd            nd            21.800000     2011-06-16T18:41:15.01Z  
1841.5829   67295   43.6812  -70.1793  221.0    0.5    14.385     29.045     1010.0        381.617030    372.983864    nd            nd            21.800000     2011-06-16T18:41:34.97Z  
1841.9170   67315   43.6812  -70.1794  218.0    0.5    14.396     29.040     1010.0        381.554054    372.923071    nd            nd            21.800000     2011-06-16T18:41:55.02Z  
1842.2496   67335   43.6811  -70.1795  215.0    0.5    14.398     29.038     1010.1        381.374253    372.754865    nd            nd            21.800000     2011-06-16T18:42:14.98Z  
1842.5837   67355   43.6810  -70.1795  214.0    0.5    14.397     29.037     1010.1        381.232803    372.623769    nd            nd            21.800000     2011-06-16T18:42:35.02Z  
1842.9163   67375   43.6809  -70.1796  213.0    0.5    14.399     29.035     1010.1        381.093440    372.490142    nd            nd            21.800000     2011-06-16T18:42:54.98Z  
1843.2504   67395   43.6808  -70.1797  213.0    0.5    14.399     29.033     1010.1        380.845970    372.253606    nd            nd            21.800000     2011-06-16T18:43:15.02Z  
1843.5830   67415   43.6808  -70.1798  214.0    0.5    14.390     29.031     1010.1        380.879332    372.284329    nd            nd            21.800000     2011-06-16T18:43:34.98Z  
1843.9171   67435   43.6807  -70.1798  216.0    0.5    14.366     29.022     1010.1        380.708715    372.120946    nd            nd            21.800000     2011-06-16T18:43:55.03Z  
1844.2498   67455   43.6806  -70.1799  216.0    0.5    14.348     29.017     1010.1        380.470186    371.890771    nd            nd            21.800000     2011-06-16T18:44:14.99Z  
1844.5838   67475   43.6805  -70.1800  217.0    0.5    14.350     29.018     1010.1        380.202503    371.627202    nd            nd            21.800000     2011-06-16T18:44:35.03Z  
1844.9165   67495   43.6805  -70.1800  225.0    0.3    14.364     29.027     1010.1        380.089400    371.509266    nd            nd            21.800000     2011-06-16T18:44:54.99Z  
1845.2506   67515   43.6805  -70.1801  218.0    0.3    14.378     29.033     1010.1        379.888881    371.311630    nd            nd            21.800000     2011-06-16T18:45:15.04Z  
1845.5832   67535   43.6804  -70.1801  220.0    0.3    14.390     29.036     1010.1        379.889305    371.304643    nd            nd            21.800000     2011-06-16T18:45:34.99Z  
1845.9173   67555   43.6804  -70.1802  220.0    0.4    14.394     29.038     1010.0        379.938824    371.337845    nd            nd            21.800000     2011-06-16T18:45:55.04Z  
1846.2499   67575   43.6803  -70.1802  219.0    0.4    14.375     29.043     1010.0        380.230393    371.621790    nd            nd            21.800000     2011-06-16T18:46:14.99Z  
1846.5840   67595   43.6802  -70.1803  216.0    0.4    14.317     29.051     1010.0        380.441763    371.845058    nd            nd            21.800000     2011-06-16T18:46:35.04Z  
1846.9166   67615   43.6802  -70.1803  214.0    0.4    14.297     29.042     1010.0        380.481738    371.886478    nd            nd            21.800000     2011-06-16T18:46:55.00Z  
1847.2507   67635   43.6801  -70.1804  214.0    0.5    14.317     29.016     1010.0        380.275151    371.672008    nd            nd            21.800000     2011-06-16T18:47:15.04Z  
1847.5834   67655   43.6800  -70.1805  217.0    0.5    14.347     28.996     1010.0        379.964954    371.354253    nd            nd            21.800000     2011-06-16T18:47:35.00Z  
1847.9160   67675   43.6800  -70.1805  220.0    0.5    14.368     28.988     1009.9        379.569109    370.957179    nd            nd            21.800000     2011-06-16T18:47:54.96Z  
1848.2501   67695   43.6799  -70.1806  221.0    0.5    14.387     28.986     1009.9        379.261587    370.650042    nd            nd            21.800000     2011-06-16T18:48:15.01Z  
1848.5827   67715   43.6798  -70.1807  221.0    0.5    14.403     28.983     1009.9        378.958573    370.347096    nd            nd            21.800000     2011-06-16T18:48:34.96Z  
1848.9168   67735   43.6798  -70.1808  221.0    0.5    14.418     28.980     1009.9        378.737676    370.122502    nd            nd            21.800000     2011-06-16T18:48:55.01Z  
1849.2494   67755   43.6799  -70.1810  321.0    2.1    14.420     28.980     1010.0        378.691842    370.087675    nd            nd            21.800000     2011-06-16T18:49:14.96Z  
1849.5835   67775   43.6797  -70.1821  250.0    5.3    14.412     28.981     1009.9        378.505286    369.900416    nd            nd            21.800000     2011-06-16T18:49:35.01Z  
1849.9162   67795   43.6791  -70.1836  239.0    6.7    14.404     28.983     1009.9        378.332083    369.735855    nd            nd            21.800000     2011-06-16T18:49:54.97Z  
1850.2502   67815   43.6785  -70.1850  243.0    6.5    14.388     28.988     1010.0        378.236524    369.661429    nd            nd            21.800000     2011-06-16T18:50:15.01Z  
1850.5829   67835   43.6780  -70.1864  240.0    6.4    14.348     29.020     1010.0        378.196742    369.646298    nd            nd            21.800000     2011-06-16T18:50:34.97Z  
1850.9170   67855   43.6774  -70.1877  236.0    6.0    14.290     29.039     1010.1        378.631153    370.110805    nd            nd            21.800000     2011-06-16T18:50:55.02Z  
1851.2496   67875   43.6768  -70.1887  230.0    5.2    14.364     28.980     1010.1        379.063718    370.513342    nd            nd            21.800000     2011-06-16T18:51:14.98Z  
1851.5837   67895   43.6762  -70.1896  227.0    5.2    14.486     28.835     1010.1        379.928281    371.322108    nd            nd            21.800000     2011-06-16T18:51:35.02Z  
1851.9163   67915   43.6755  -70.1905  224.0    5.1    14.568     28.642     1010.1        381.197065    372.539926    nd            nd            21.800000     2011-06-16T18:51:54.98Z  
1852.2504   67935   43.6748  -70.1914  219.0    5.2    14.722     28.412     1010.1        382.422862    373.686242    nd            nd            21.800000     2011-06-16T18:52:15.02Z  
1852.5830   67955   43.6740  -70.1921  216.0    5.1    14.930     28.299     1010.2        383.160594    374.333381    nd            nd            21.800000     2011-06-16T18:52:34.98Z  
1852.9171   67975   43.6733  -70.1929  218.0    5.0    14.979     28.308     1010.2        383.889521    375.034658    nd            nd            21.800000     2011-06-16T18:52:55.03Z  
1853.2498   67995   43.6727  -70.1937  224.0    4.7    14.994     28.323     1010.2        385.109063    376.219345    nd            nd            21.800000     2011-06-16T18:53:14.99Z  
1853.5838   68015   43.6721  -70.1945  228.0    4.7    15.005     28.333     1010.2        387.484666    378.532591    nd            nd            21.800000     2011-06-16T18:53:35.03Z  
1853.9165   68035   43.6716  -70.1955  235.0    4.6    14.994     28.343     1010.2        390.676455    381.657533    nd            nd            21.800000     2011-06-16T18:53:54.99Z  
1854.2506   68055   43.6712  -70.1965  240.0    4.7    15.020     28.340     1010.2        392.903894    383.818850    nd            nd            21.800000     2011-06-16T18:54:15.04Z  
1854.5832   68075   43.6708  -70.1975  240.0    4.6    15.011     28.407     1010.2        394.501885    385.388484    nd            nd            21.800000     2011-06-16T18:54:34.99Z  
1854.9173   68095   43.6703  -70.1984  233.0    4.7    14.905     28.474     1010.2        395.781650    386.682496    nd            nd            21.800000     2011-06-16T18:54:55.04Z  
1855.2499   68115   43.6697  -70.1993  228.0    4.7    14.891     28.438     1010.2        396.745314    387.634737    nd            nd            21.800000     2011-06-16T18:55:14.99Z  
1855.5840   68135   43.6692  -70.2001  228.0    4.7    14.931     28.365     1010.2        398.064025    388.904327    nd            nd            21.800000     2011-06-16T18:55:35.04Z  
1855.9166   68155   43.6686  -70.2010  229.0    4.6    14.953     28.340     1010.2        399.672362    390.465419    nd            nd            21.800000     2011-06-16T18:55:55.00Z  
1856.2493   68175   43.6680  -70.2018  225.0    4.6    15.053     28.253     1010.2        401.319320    392.025096    nd            nd            21.800000     2011-06-16T18:56:14.96Z  
1856.5834   68195   43.6674  -70.2025  215.0    4.6    15.338     28.134     1010.2        402.901624    393.449333    nd            nd            21.800000     2011-06-16T18:56:35.00Z  
1856.9160   68215   43.6666  -70.2031  207.0    4.6    15.446     28.174     1010.2        404.193454    394.668523    nd            nd            21.800000     2011-06-16T18:56:54.96Z  
1857.2501   68235   43.6659  -70.2036  206.0    4.7    15.272     28.284     1010.2        404.880533    395.414605    nd            nd            21.800000     2011-06-16T18:57:15.01Z  
1857.5827   68255   43.6651  -70.2040  203.0    4.7    15.199     28.266     1010.2        405.310751    395.866645    nd            nd            21.800000     2011-06-16T18:57:34.96Z  
1857.9168   68275   43.6644  -70.2045  202.0    4.5    15.255     28.207     1010.2        405.749275    396.270780    nd            nd            21.800000     2011-06-16T18:57:55.01Z  
1858.2494   68295   43.6637  -70.2049  211.0    4.1    15.281     28.212     1010.2        406.288248    396.793777    nd            nd            21.800000     2011-06-16T18:58:14.96Z  
1858.5835   68315   43.6632  -70.2057  232.0    3.9    15.267     28.227     1010.2        407.331308    397.825215    nd            nd            21.800000     2011-06-16T18:58:35.01Z  
1858.9162   68335   43.6628  -70.2064  217.0    4.2    15.258     28.249     1010.2        408.062366    398.542394    nd            nd            21.800000     2011-06-16T18:58:54.97Z  
1859.2502   68355   43.6620  -70.2062  169.0    4.6    15.213     28.279     1010.2        408.831075    399.304851    nd            nd            21.800000     2011-06-16T18:59:15.01Z  
1859.5829   68375   43.6611  -70.2059  163.0    4.8    15.129     28.312     1010.2        408.740204    399.247631    nd            nd            21.800000     2011-06-16T18:59:34.97Z  
1859.8838   68393   43.6604  -70.2055  161.0    4.7    15.046     28.318     1010.2        408.021136    398.573682    nd            nd            22.112500     2011-06-16T18:59:53.03Z  
nd          nd      nd       nd        nd       nd     nd         nd         nd            nd            nd            nd            nd            nd            nd                
nd          nd      nd       nd        nd       nd     nd         nd         nd            nd            nd            nd            nd            nd            nd                
nd          nd      nd       nd        nd       nd     nd         nd         nd            nd            nd            nd            nd            nd            nd                
nd          nd      nd       nd        nd       nd     nd         nd         nd            nd            nd            nd            nd            nd            nd                
nd          nd      nd       nd        nd       nd     nd         nd         nd            nd            nd            nd            nd            nd            nd                
nd          nd      nd       nd        nd       nd     nd         nd         nd            nd            nd            nd            nd            nd            nd                
nd          nd      nd       nd        nd       nd     nd         nd         nd            nd            nd            nd            nd            nd            nd                
nd          nd      nd       nd        nd       nd     nd         nd         nd            nd            nd            nd            nd            nd            nd                
nd          nd      nd       nd        nd       nd     nd         nd         nd            nd            nd            nd            nd            nd            nd                
nd          nd      nd       nd        nd       nd     nd         nd         nd            nd            nd            nd            nd            nd            nd                
nd          nd      nd       nd        nd       nd     nd         nd         nd            nd            nd            nd            nd            nd            nd                
nd          nd      nd       nd        nd       nd     nd         nd         nd            nd            nd            nd            nd            nd            nd                
nd          nd      nd       nd        nd       nd     nd         nd         nd            nd            nd            nd            nd            nd            nd                
nd          nd      nd       nd        nd       nd     nd         nd         nd            nd            nd            nd            nd            nd            nd                
nd          nd      nd       nd        nd       nd     nd         nd         nd            nd            nd            nd            nd            nd            nd                
nd          nd      nd       nd        nd       nd     nd         nd         nd            nd            nd            nd            nd            nd            nd                
nd          nd      nd       nd        nd       nd     nd         nd         nd            nd            nd            nd            nd            nd            nd                
nd          nd      nd       nd        nd       nd     nd         nd         nd            nd            nd            nd            nd            nd            nd                
nd          nd      nd       nd        nd       nd     nd         nd         nd            nd            nd            nd            nd            nd            nd                
nd          nd      nd       nd        nd       nd     nd         nd         nd            nd            nd            nd            nd            nd            nd                
nd          nd      nd       nd        nd       nd     nd         nd         nd            nd            nd            nd            nd            nd            nd                
nd          nd      nd       nd        nd       nd     nd         nd         nd            nd            nd            nd            nd            nd            nd                
nd          nd      nd       nd        nd       nd     nd         nd         nd            nd            nd            nd            nd            nd            nd                
nd          nd      nd       nd        nd       nd     nd         nd         nd            nd            nd            nd            nd            nd            nd                
nd          nd      nd       nd        nd       nd     nd         nd         nd            nd            nd            nd            nd            nd            nd                
nd          nd      nd       nd        nd       nd     nd         nd         nd            nd            nd            nd            nd            nd            nd                
nd          nd      nd       nd        nd       nd     nd         nd         nd            nd            nd            nd            nd            nd            nd                
nd          nd      nd       nd        nd       nd     nd         nd         nd            nd            nd            nd            nd            nd            nd                
nd          nd      nd       nd        nd       nd     nd         nd         nd            nd            nd            nd            nd            nd            nd                
nd          nd      nd       nd        nd       nd     nd         nd         nd            nd            nd            nd            nd            nd            nd                
nd          nd      nd       nd        nd       nd     nd         nd         nd            nd            nd            nd            nd            nd            nd                
nd          nd      nd       nd        nd       nd     nd         nd         nd            nd            nd            nd            nd            nd            nd                
nd          nd      nd       nd        nd       nd     nd         nd         nd            nd            nd            nd            nd            nd            nd                
nd          nd      nd       nd        nd       nd     nd         nd         nd            nd            nd            nd            nd            nd            nd                
nd          nd      nd       nd        nd       nd     nd         nd         nd            nd            nd            nd            nd            nd            nd                
nd          nd      nd       nd        nd       nd     nd         nd         nd            nd            nd            nd            nd            nd            nd                
nd          nd      nd       nd        nd       nd     nd         nd         nd            nd            nd            nd            nd            nd            nd                
nd          nd      nd       nd        nd       nd     nd         nd         nd            nd            nd            nd            nd            nd            nd                
nd          nd      nd       nd        nd       nd     nd         nd         nd            nd            nd            nd            nd            nd            nd                
nd          nd      nd       nd        nd       nd     nd         nd         nd            nd            nd            nd            nd            nd            nd                
nd          nd      nd       nd        nd       nd     nd         nd         nd            nd            nd            nd            nd            nd            nd                
nd          nd      nd       nd        nd       nd     nd         nd         nd            nd            nd            nd            nd            nd            nd                
nd          nd      nd       nd        nd       nd     nd         nd         nd            nd            nd            nd            nd            nd            nd                
nd          nd      nd       nd        nd       nd     nd         nd         nd            nd            nd            nd            nd            nd            nd                
nd          nd      nd       nd        nd       nd     nd         nd         nd            nd            nd            nd            nd            nd            nd                
nd          nd      nd       nd        nd       nd     nd         nd         nd            nd            nd            nd            nd            nd            nd                
nd          nd      nd       nd        nd       nd     nd         nd         nd            nd            nd            nd            nd            nd            nd                
nd          nd      nd       nd        nd       nd     nd         nd         nd            nd            nd            nd            nd            nd            nd                
nd          nd      nd       nd        nd       nd     nd         nd         nd            nd            nd            nd            nd            nd            nd                
nd          nd      nd       nd        nd       nd     nd         nd         nd            nd            nd            nd            nd            nd            nd                
nd          nd      nd       nd        nd       nd     nd         nd         nd            nd            nd            nd            nd            nd            nd                
nd          nd      nd       nd        nd       nd     nd         nd         nd            nd            nd            nd            nd            nd            nd                
nd          nd      nd       nd        nd       nd     nd         nd         nd            nd            nd            nd            nd            nd            nd                
nd          nd      nd       nd        nd       nd     nd         nd         nd            nd            nd            nd            nd            nd            nd                
nd          nd      nd       nd        nd       nd     nd         nd         nd            nd            nd            nd            nd            nd            nd                
nd          nd      nd       nd        nd       nd     nd         nd         nd            nd            nd            nd            nd            nd            nd                
nd          nd      nd       nd        nd       nd     nd         nd         nd            nd            nd            nd            nd            nd            nd                
nd          nd      nd       nd        nd       nd     nd         nd         nd            nd            nd            nd            nd            nd            nd                
1919.6493   69579   43.6296  -70.2064  139.0    0.6    13.592     28.954     1010.6        386.393547    378.162727    nd            nd            26.800000     2011-06-16T19:19:38.96Z  
1919.9171   69595   43.6295  -70.2063  140.0    0.6    13.579     28.952     1010.6        386.217415    377.976292    nd            nd            26.800000     2011-06-16T19:19:55.03Z  
1920.2498   69615   43.6294  -70.2062  142.0    0.6    13.571     28.955     1010.5        386.008208    377.754039    nd            nd            26.800000     2011-06-16T19:20:14.99Z  
1920.5838   69635   43.6293  -70.2061  143.0    0.6    13.588     28.909     1010.5        385.836502    377.577725    nd            nd            26.800000     2011-06-16T19:20:35.03Z  
1920.9165   69655   43.6292  -70.2061  142.0    0.6    13.658     28.807     1010.6        385.422836    377.187801    nd            nd            26.800000     2011-06-16T19:20:54.99Z  
1921.2506   69675   43.6291  -70.2060  139.0    0.6    13.736     28.757     1010.7        385.161326    376.949802    nd            nd            26.800000     2011-06-16T19:21:15.04Z  
1921.5832   69695   43.6290  -70.2059  139.0    0.6    13.787     28.744     1010.8        385.131664    376.916888    nd            nd            26.800000     2011-06-16T19:21:34.99Z  
1921.9173   69715   43.6290  -70.2058  138.0    0.6    13.814     28.746     1010.8        384.978284    376.763185    nd            nd            26.800000     2011-06-16T19:21:55.04Z  
1922.2499   69735   43.6289  -70.2056  138.0    0.7    13.822     28.752     1010.8        385.106751    376.883971    nd            nd            26.800000     2011-06-16T19:22:14.99Z  
1922.5840   69755   43.6288  -70.2055  136.0    0.7    13.830     28.752     1010.8        385.261901    377.033447    nd            nd            26.800000     2011-06-16T19:22:35.04Z  
1922.9166   69775   43.6287  -70.2054  136.0    0.7    13.838     28.748     1010.8        385.352800    377.108023    nd            nd            26.800000     2011-06-16T19:22:55.00Z  
1923.2507   69795   43.6286  -70.2053  136.0    0.7    13.851     28.744     1010.7        385.585673    377.317908    nd            nd            26.800000     2011-06-16T19:23:15.04Z  
1923.5834   69815   43.6286  -70.2052  138.0    0.6    13.862     28.743     1010.7        385.791656    377.504705    nd            nd            26.800000     2011-06-16T19:23:35.00Z  
1923.9160   69835   43.6285  -70.2051  138.0    0.6    13.868     28.739     1010.7        386.142541    377.835041    nd            nd            26.800000     2011-06-16T19:23:54.96Z  
1924.2501   69855   43.6284  -70.2050  138.0    0.6    13.874     28.733     1010.6        386.592165    378.258915    nd            nd            26.800000     2011-06-16T19:24:15.01Z  
1924.5827   69875   43.6283  -70.2049  139.0    0.6    13.877     28.731     1010.6        387.370003    379.004102    nd            nd            26.800000     2011-06-16T19:24:34.96Z  
1924.9168   69895   43.6282  -70.2048  140.0    0.6    13.879     28.733     1010.5        387.930941    379.535699    nd            nd            26.800000     2011-06-16T19:24:55.01Z  
1925.2494   69915   43.6281  -70.2047  139.0    0.6    13.883     28.715     1010.5        388.535025    380.109869    nd            nd            26.800000     2011-06-16T19:25:14.96Z  
1925.5835   69935   43.6280  -70.2046  139.0    0.6    13.893     28.700     1010.5        388.934951    380.484030    nd            nd            26.800000     2011-06-16T19:25:35.01Z  
1925.9162   69955   43.6280  -70.2045  139.0    0.6    13.898     28.695     1010.4        389.086388    380.621395    nd            nd            26.800000     2011-06-16T19:25:54.97Z  
1926.2502   69975   43.6279  -70.2044  136.0    0.6    13.903     28.692     1010.4        389.108893    380.632557    nd            nd            26.800000     2011-06-16T19:26:15.01Z  
1926.5829   69995   43.6278  -70.2043  136.0    0.6    13.903     28.694     1010.4        388.877287    380.396649    nd            nd            26.800000     2011-06-16T19:26:34.97Z  
1926.9170   70015   43.6277  -70.2042  135.0    0.6    13.901     28.694     1010.4        388.735098    380.251264    nd            nd            26.800000     2011-06-16T19:26:55.02Z  
1927.2496   70035   43.6276  -70.2041  134.0    0.6    13.906     28.680     1010.4        388.461455    379.980597    nd            nd            26.800000     2011-06-16T19:27:14.98Z  
1927.5837   70055   43.6276  -70.2040  132.0    0.6    13.909     28.678     1010.3        388.179685    379.694693    nd            nd            26.800000     2011-06-16T19:27:35.02Z  
1927.9163   70075   43.6275  -70.2039  132.0    0.6    13.913     28.674     1010.3        387.893183    379.404795    nd            nd            26.800000     2011-06-16T19:27:54.98Z  
1928.2504   70095   43.6274  -70.2038  150.0    0.7    13.915     28.674     1010.3        387.688134    379.196535    nd            nd            26.800000     2011-06-16T19:28:15.02Z  
1928.5830   70115   43.6271  -70.2038  179.0    2.1    13.913     28.688     1010.3        387.536943    379.050701    nd            nd            26.800000     2011-06-16T19:28:34.98Z  
1928.9171   70135   43.6266  -70.2032  140.0    3.9    13.905     28.700     1010.3        387.620748    379.144710    nd            nd            26.800000     2011-06-16T19:28:55.03Z  
1929.2498   70155   43.6260  -70.2024  135.0    4.4    13.902     28.703     1010.4        387.432477    378.970007    nd            nd            26.800000     2011-06-16T19:29:14.99Z  
1929.5838   70175   43.6254  -70.2017  137.0    4.4    13.896     28.710     1010.4        387.477757    379.025404    nd            nd            26.800000     2011-06-16T19:29:35.03Z  
1929.9165   70195   43.6248  -70.2009  138.0    4.5    13.891     28.717     1010.4        387.354324    378.904976    nd            nd            26.800000     2011-06-16T19:29:54.99Z  
1930.2506   70215   43.6241  -70.2001  140.0    5.3    13.886     28.725     1010.4        387.342437    378.897960    nd            nd            26.800000     2011-06-16T19:30:15.04Z  
1930.5832   70235   43.6232  -70.1991  140.0    6.7    13.880     28.731     1010.4        387.441290    378.997609    nd            nd            26.800000     2011-06-16T19:30:34.99Z  
1930.9173   70255   43.6223  -70.1980  140.0    7.0    13.879     28.725     1010.4        387.789611    379.330460    nd            nd            26.800000     2011-06-16T19:30:55.04Z  
1931.2499   70275   43.6213  -70.1969  141.0    7.0    13.877     28.727     1010.3        388.077243    379.588760    nd            nd            26.800000     2011-06-16T19:31:14.99Z  
1931.5840   70295   43.6200  -70.1958  148.0    8.6    13.878     28.730     1010.3        388.343296    379.859547    413.381083    404.349176    26.800000     2011-06-16T19:31:35.04Z  
1931.9166   70315   43.6185  -70.1945  149.0    9.7    13.874     28.729     1010.3        388.470886    379.984854    413.580428    404.547682    26.800000     2011-06-16T19:31:55.00Z  
1932.2507   70335   43.6170  -70.1932  147.0    9.7    13.884     28.705     1010.3        388.436448    379.955107    nd            nd            26.800000     2011-06-16T19:32:15.04Z  
1932.5834   70355   43.6156  -70.1918  145.0    9.5    13.899     28.679     1010.3        388.323542    379.830986    nd            nd            26.800000     2011-06-16T19:32:35.00Z  
1932.9160   70375   43.6143  -70.1905  145.0    9.3    13.910     28.678     1010.3        388.098498    379.609768    nd            nd            26.800000     2011-06-16T19:32:54.96Z  
1933.2501   70395   43.6129  -70.1891  144.0    9.3    13.923     28.676     1010.3        387.426355    378.953203    nd            nd            26.800000     2011-06-16T19:33:15.01Z  
1933.5827   70415   43.6115  -70.1878  145.0    9.3    13.946     28.644     1010.4        386.983605    378.526727    nd            nd            26.800000     2011-06-16T19:33:34.96Z  
1933.9168   70435   43.6102  -70.1865  145.0    9.3    13.967     28.649     1010.4        386.241120    377.781067    nd            nd            26.800000     2011-06-16T19:33:55.01Z  
1934.2494   70455   43.6088  -70.1852  145.0    9.3    13.944     28.680     1010.3        385.564153    377.122277    nd            nd            26.800000     2011-06-16T19:34:14.96Z  
1934.5835   70475   43.6074  -70.1838  144.0    9.3    13.927     28.635     1010.3        384.502805    376.087245    nd            nd            26.800000     2011-06-16T19:34:35.01Z  
1934.9162   70495   43.6061  -70.1825  144.0    9.3    13.953     28.603     1010.3        383.475265    375.070847    nd            nd            26.800000     2011-06-16T19:34:54.97Z  
1935.2502   70515   43.6047  -70.1811  144.0    9.3    13.997     28.623     1010.3        382.164128    373.778251    nd            nd            26.800000     2011-06-16T19:35:15.01Z  
1935.5829   70535   43.6034  -70.1798  147.0    9.3    14.035     28.638     1010.3        380.896319    372.521143    nd            nd            26.800000     2011-06-16T19:35:34.97Z  
1935.9170   70555   43.6019  -70.1786  150.0    9.3    14.108     28.637     1010.3        379.683313    371.301008    nd            nd            26.800000     2011-06-16T19:35:55.02Z  
1936.2496   70575   43.6005  -70.1775  150.0    9.3    14.122     28.688     1010.3        378.488830    370.131664    400.409520    391.568060    26.800000     2011-06-16T19:36:14.98Z  
1936.5837   70595   43.5990  -70.1763  150.0    9.3    14.073     28.776     1010.4        376.837566    368.545029    400.319868    391.510572    26.800000     2011-06-16T19:36:35.02Z  
1936.9163   70615   43.5976  -70.1752  150.0    9.3    14.018     28.835     1010.4        375.004983    366.773802    400.314076    391.520075    26.800000     2011-06-16T19:36:54.98Z  
1937.2504   70635   43.5961  -70.1740  150.0    9.3    13.961     28.885     1010.4        373.328654    365.151887    nd            nd            26.800000     2011-06-16T19:37:15.02Z  
1937.5830   70655   43.5946  -70.1729  152.0    9.3    13.912     28.969     1010.3        371.729264    363.596888    nd            nd            26.800000     2011-06-16T19:37:34.98Z  
1937.7674   70666   43.5938  -70.1723  154.0    9.3    13.932     28.997     1010.3        371.022821    362.894219    nd            nd            26.800000     2011-06-16T19:37:46.04Z  
nd          nd      nd       nd        nd       nd     nd         nd         nd            nd            nd            nd            nd            nd            nd                
nd          nd      nd       nd        nd       nd     nd         nd         nd            nd            nd            nd            nd            nd            nd                
nd          nd      nd       nd        nd       nd     nd         nd         nd            nd            nd            nd            nd            nd            nd                
nd          nd      nd       nd        nd       nd     nd         nd         nd            nd            nd            nd            nd            nd            nd                
nd          nd      nd       nd        nd       nd     nd         nd         nd            nd            nd            nd            nd            nd            nd                
nd          nd      nd       nd        nd       nd     nd         nd         nd            nd            nd            nd            nd            nd            nd                
nd          nd      nd       nd        nd       nd     nd         nd         nd            nd            nd            nd            nd            nd            nd                
nd          nd      nd       nd        nd       nd     nd         nd         nd            nd            nd            nd            nd            nd            nd                
nd          nd      nd       nd        nd       nd     nd         nd         nd            nd            nd            nd            nd            nd            nd                
nd          nd      nd       nd        nd       nd     nd         nd         nd            nd            nd            nd            nd            nd            nd                
nd          nd      nd       nd        nd       nd     nd         nd         nd            nd            nd            nd            nd            nd            nd                
nd          nd      nd       nd        nd       nd     nd         nd         nd            nd            nd            nd            nd            nd            nd                
nd          nd      nd       nd        nd       nd     nd         nd         nd            nd            nd            nd            nd            nd            nd                
nd          nd      nd       nd        nd       nd     nd         nd         nd            nd            nd            nd            nd            nd            nd                
nd          nd      nd       nd        nd       nd     nd         nd         nd            nd            nd            nd            nd            nd            nd                
nd          nd      nd       nd        nd       nd     nd         nd         nd            nd            nd            nd            nd            nd            nd                
nd          nd      nd       nd        nd       nd     nd         nd         nd            nd            nd            nd            nd            nd            nd                
nd          nd      nd       nd        nd       nd     nd         nd         nd            nd            nd            nd            nd            nd            nd                
nd          nd      nd       nd        nd       nd     nd         nd         nd            nd            nd            nd            nd            nd            nd                
nd          nd      nd       nd        nd       nd     nd         nd         nd            nd            nd            nd            nd            nd            nd                
nd          nd      nd       nd        nd       nd     nd         nd         nd            nd            nd            nd            nd            nd            nd                
nd          nd      nd       nd        nd       nd     nd         nd         nd            nd            nd            nd            nd            nd            nd                
nd          nd      nd       nd        nd       nd     nd         nd         nd            nd            nd            nd            nd            nd            nd                
nd          nd      nd       nd        nd       nd     nd         nd         nd            nd            nd            nd            nd            nd            nd                
nd          nd      nd       nd        nd       nd     nd         nd         nd            nd            nd            nd            nd            nd            nd                
nd          nd      nd       nd        nd       nd     nd         nd         nd            nd            nd            nd            nd            nd            nd                
nd          nd      nd       nd        nd       nd     nd         nd         nd            nd            nd            nd            nd            nd            nd                
nd          nd      nd       nd        nd       nd     nd         nd         nd            nd            nd            nd            nd            nd            nd                
nd          nd      nd       nd        nd       nd     nd         nd         nd            nd            nd            nd            nd            nd            nd                
nd          nd      nd       nd        nd       nd     nd         nd         nd            nd            nd            nd            nd            nd            nd                
nd          nd      nd       nd        nd       nd     nd         nd         nd            nd            nd            nd            nd            nd            nd                
nd          nd      nd       nd        nd       nd     nd         nd         nd            nd            nd            nd            nd            nd            nd                
nd          nd      nd       nd        nd       nd     nd         nd         nd            nd            nd            nd            nd            nd            nd                
nd          nd      nd       nd        nd       nd     nd         nd         nd            nd            nd            nd            nd            nd            nd                
nd          nd      nd       nd        nd       nd     nd         nd         nd            nd            nd            nd            nd            nd            nd                
nd          nd      nd       nd        nd       nd     nd         nd         nd            nd            nd            nd            nd            nd            nd                
nd          nd      nd       nd        nd       nd     nd         nd         nd            nd            nd            nd            nd            nd            nd                
nd          nd      nd       nd        nd       nd     nd         nd         nd            nd            nd            nd            nd            nd            nd                
nd          nd      nd       nd        nd       nd     nd         nd         nd            nd            nd            nd            nd            nd            nd                
nd          nd      nd       nd        nd       nd     nd         nd         nd            nd            nd            nd            nd            nd            nd                
nd          nd      nd       nd        nd       nd     nd         nd         nd            nd            nd            nd            nd            nd            nd                
nd          nd      nd       nd        nd       nd     nd         nd         nd            nd            nd            nd            nd            nd            nd                
nd          nd      nd       nd        nd       nd     nd         nd         nd            nd            nd            nd            nd            nd            nd                
nd          nd      nd       nd        nd       nd     nd         nd         nd            nd            nd            nd            nd            nd            nd                
nd          nd      nd       nd        nd       nd     nd         nd         nd            nd            nd            nd            nd            nd            nd                
nd          nd      nd       nd        nd       nd     nd         nd         nd            nd            nd            nd            nd            nd            nd                
1953.6506   71619   43.5241  -70.2083  213.0    9.4    15.669     29.132     1009.8        365.179876    356.349926    nd            nd            26.800000     2011-06-16T19:53:39.04Z  
1953.9170   71635   43.5229  -70.2092  212.0    9.4    15.867     29.117     1009.8        364.255789    355.367801    396.132244    386.456145    26.800000     2011-06-16T19:53:55.02Z  
1954.2496   71655   43.5215  -70.2104  211.0    9.3    15.962     29.107     1009.8        363.384264    354.482446    395.974428    386.274199    26.800000     2011-06-16T19:54:14.98Z  
1954.5837   71675   43.5200  -70.2115  208.0    9.4    16.057     29.098     1009.7        362.938017    353.994618    395.979132    386.221504    26.800000     2011-06-16T19:54:35.02Z  
1954.9163   71695   43.5185  -70.2126  209.0    9.4    16.135     29.089     1009.7        363.388693    354.392342    395.944306    386.144294    26.800000     2011-06-16T19:54:54.98Z  
1955.2504   71715   43.5171  -70.2138  212.0    9.4    16.194     29.082     1009.7        364.469981    355.416897    395.769114    385.931143    26.800000     2011-06-16T19:55:15.02Z  
1955.5830   71735   43.5156  -70.2150  211.0    9.4    16.306     29.073     1009.7        365.983027    356.848496    nd            nd            26.800000     2011-06-16T19:55:34.98Z  
1955.9171   71755   43.5142  -70.2162  211.0    9.4    16.426     29.057     1009.7        367.584271    358.355993    394.746308    384.830256    26.800000     2011-06-16T19:55:55.03Z  
1956.2498   71775   43.5128  -70.2174  211.0    9.4    16.347     29.051     1009.6        369.386136    360.137025    394.299047    384.432009    26.800000     2011-06-16T19:56:14.99Z  
1956.5838   71795   43.5113  -70.2186  211.0    9.4    16.210     29.054     1009.6        371.492463    362.235044    394.479624    384.631906    26.800000     2011-06-16T19:56:35.03Z  
1956.9165   71815   43.5098  -70.2197  209.0    9.4    15.982     29.065     1009.6        373.603835    364.373428    393.422430    383.732679    26.800000     2011-06-16T19:56:54.99Z  
1957.2506   71835   43.5084  -70.2209  211.0    9.4    15.775     29.072     1009.5        375.029172    365.839182    393.308555    383.661356    26.800000     2011-06-16T19:57:15.04Z  
1957.5832   71855   43.5069  -70.2220  208.0    9.3    15.654     29.075     1009.5        375.697866    366.534764    392.891653    383.309179    26.800000     2011-06-16T19:57:34.99Z  
1957.9173   71875   43.5054  -70.2230  205.0    9.4    15.510     29.071     1009.5        375.754214    366.638763    392.734184    383.176307    26.800000     2011-06-16T19:57:55.04Z  
1958.2499   71895   43.5038  -70.2240  205.0    9.4    15.336     29.083     1009.5        375.228788    366.187845    392.517137    383.067126    26.800000     2011-06-16T19:58:14.99Z  
1958.5840   71915   43.5023  -70.2249  204.0    9.4    15.348     29.070     1009.5        374.058537    365.025009    392.467197    382.989048    26.800000     2011-06-16T19:58:35.04Z  
1958.9166   71935   43.5007  -70.2259  204.0    9.4    15.596     29.052     1009.4        372.496512    363.402330    392.397096    382.816986    26.800000     2011-06-16T19:58:55.00Z  
1959.2493   71955   43.4992  -70.2268  204.0    9.4    15.801     29.047     1009.4        370.627597    361.483658    392.369207    382.688822    26.800000     2011-06-16T19:59:14.96Z  
1959.5834   71975   43.4976  -70.2277  203.0    9.4    15.855     29.047     1009.4        369.571064    360.422918    392.335983    382.624296    26.800000     2011-06-16T19:59:35.00Z  
1959.9002   71994   43.4962  -70.2286  204.0    9.4    15.887     29.052     1009.4        369.127386    359.972912    392.261116    382.532885    26.850000     2011-06-16T19:59:54.01Z  
2000.2501   72015   43.4946  -70.2296  204.0    9.3    15.902     29.060     1009.4        369.204200    360.042919    392.271248    382.537558    27.100000     2011-06-16T20:00:15.01Z  
2000.5827   72035   43.4931  -70.2306  208.0    9.3    15.860     29.071     1009.3        369.589501    360.424858    392.173589    382.448897    27.100000     2011-06-16T20:00:34.96Z  
2000.9168   72055   43.4918  -70.2321  221.0    9.2    15.798     29.082     1009.4        369.870350    360.731492    392.123755    382.435023    27.100000     2011-06-16T20:00:55.01Z  
2001.2494   72075   43.4906  -70.2337  224.0    9.3    15.807     29.098     1009.3        369.885849    360.736180    392.008502    382.311571    27.100000     2011-06-16T20:01:14.96Z  
2001.5835   72095   43.4895  -70.2353  225.0    9.2    15.888     29.094     1009.3        369.720914    360.540457    392.011098    382.295310    27.100000     2011-06-16T20:01:35.01Z  
2001.9162   72115   43.4883  -70.2369  223.0    9.2    16.026     29.055     1009.3        368.907560    359.692193    392.095808    382.298889    27.100000     2011-06-16T20:01:54.97Z  
2002.2502   72135   43.4869  -70.2383  216.0    9.3    16.073     29.036     1009.3        368.221983    359.007341    392.100482    382.288256    27.100000     2011-06-16T20:02:15.01Z  
2002.5829   72155   43.4855  -70.2395  212.0    9.2    15.940     29.040     1009.3        367.802597    358.647238    392.052922    382.292723    27.100000     2011-06-16T20:02:34.97Z  
2002.9170   72175   43.4841  -70.2406  209.0    9.3    16.041     29.033     1009.3        367.895220    358.699479    nd            nd            27.100000     2011-06-16T20:02:55.02Z  
2003.2496   72195   43.4826  -70.2418  211.0    9.3    16.301     29.070     1009.3        368.186570    358.883820    391.671633    381.767084    27.100000     2011-06-16T20:03:14.98Z  
2003.5837   72215   43.4812  -70.2430  211.0    9.3    16.444     29.087     1009.4        368.317273    358.954136    nd            nd            27.100000     2011-06-16T20:03:35.02Z  
2003.9163   72235   43.4798  -70.2442  211.0    9.3    16.415     29.079     1009.4        368.809101    359.461887    391.791536    381.861810    27.100000     2011-06-16T20:03:54.98Z  
2004.2504   72255   43.4783  -70.2453  210.0    9.3    16.417     29.091     1009.4        369.068706    359.720084    391.834087    381.908781    27.100000     2011-06-16T20:04:15.02Z  
2004.5830   72275   43.4769  -70.2465  210.0    9.3    16.434     29.099     1009.4        369.306458    359.952420    391.793968    381.870321    27.100000     2011-06-16T20:04:34.98Z  
2004.9171   72295   43.4754  -70.2476  209.0    9.3    16.537     29.116     1009.5        369.514879    360.125083    391.814983    381.860365    27.100000     2011-06-16T20:04:55.03Z  
2005.2498   72315   43.4740  -70.2488  211.0    9.3    16.730     29.119     1009.5        369.328564    359.866862    391.343622    381.289809    27.100000     2011-06-16T20:05:14.99Z  
2005.5838   72335   43.4725  -70.2500  212.0    9.3    16.899     29.116     1009.5        368.979047    359.479445    391.837926    381.755068    27.100000     2011-06-16T20:05:35.03Z  
2005.9165   72355   43.4711  -70.2511  211.0    9.4    17.026     29.109     1009.5        368.646403    359.099849    nd            nd            27.100000     2011-06-16T20:05:54.99Z  
2006.2506   72375   43.4696  -70.2523  211.0    9.4    17.136     29.094     1009.5        368.321292    358.730804    nd            nd            27.100000     2011-06-16T20:06:15.04Z  
2006.5832   72395   43.4682  -70.2535  210.0    9.4    17.225     29.074     1009.5        368.034129    358.403791    391.640012    381.377184    27.100000     2011-06-16T20:06:34.99Z  
2006.9173   72415   43.4667  -70.2547  210.0    9.4    17.268     29.052     1009.5        367.860102    358.214207    391.736522    381.464515    27.100000     2011-06-16T20:06:55.04Z  
2007.2499   72435   43.4652  -70.2559  210.0    9.4    17.235     29.047     1009.5        367.863271    358.227131    391.745102    381.478326    27.100000     2011-06-16T20:07:14.99Z  
2007.5840   72455   43.4638  -70.2570  210.0    9.5    17.152     29.044     1009.5        367.746643    358.142235    391.518657    381.304818    27.100000     2011-06-16T20:07:35.04Z  
2007.9166   72475   43.4623  -70.2582  211.0    9.4    17.074     29.035     1009.5        367.597139    358.033515    391.223643    381.037891    27.100000     2011-06-16T20:07:55.00Z  
2008.2507   72495   43.4609  -70.2595  212.0    9.4    17.008     29.018     1009.5        367.168718    357.641963    391.878050    381.714653    27.100000     2011-06-16T20:08:15.04Z  
2008.5834   72515   43.4594  -70.2606  210.0    9.3    16.940     29.003     1009.5        366.584643    357.103791    392.071381    381.931351    27.100000     2011-06-16T20:08:35.00Z  
2008.9160   72535   43.4580  -70.2617  209.0    9.4    16.834     29.010     1009.5        365.863235    356.444722    392.099885    382.005929    27.100000     2011-06-16T20:08:54.96Z  
2009.2501   72555   43.4565  -70.2629  210.0    9.4    16.847     28.878     1009.5        364.813601    355.414180    392.278945    382.191180    27.100000     2011-06-16T20:09:15.01Z  
2009.5827   72575   43.4551  -70.2641  211.0    9.4    17.112     28.626     1009.5        363.502033    354.026957    nd            nd            27.100000     2011-06-16T20:09:34.96Z  
2009.9168   72595   43.4536  -70.2653  211.0    9.4    17.341     28.415     1009.5        362.300333    352.755145    nd            nd            27.100000     2011-06-16T20:09:55.01Z  
2010.2494   72615   43.4521  -70.2664  210.0    9.4    17.398     28.335     1009.4        361.018002    351.476899    nd            nd            27.100000     2011-06-16T20:10:14.96Z  
2010.5835   72635   43.4507  -70.2676  211.0    9.3    17.379     28.302     1009.4        360.111218    350.599760    nd            nd            27.100000     2011-06-16T20:10:35.01Z  
2010.9162   72655   43.4493  -70.2688  209.0    9.4    17.343     28.315     1009.4        359.521275    350.039685    nd            nd            27.100000     2011-06-16T20:10:54.97Z  
2011.2502   72675   43.4478  -70.2699  211.0    9.3    17.297     28.341     1009.4        359.213322    349.761673    392.104177    381.800408    27.100000     2011-06-16T20:11:15.01Z  
2011.5829   72695   43.4464  -70.2712  212.0    9.3    17.273     28.364     1009.4        358.525150    349.105679    392.116453    381.808840    27.100000     2011-06-16T20:11:34.97Z  
2011.9170   72715   43.4450  -70.2723  211.0    9.3    17.253     28.385     1009.5        357.940028    348.548873    392.296088    382.017346    27.100000     2011-06-16T20:11:55.02Z  
2012.2496   72735   43.4435  -70.2735  211.0    9.3    17.202     28.439     1009.4        357.424811    348.062803    392.404132    382.115611    27.100000     2011-06-16T20:12:14.98Z  
2012.5837   72755   43.4421  -70.2746  209.0    9.3    17.079     28.538     1009.5        356.935995    347.641647    nd            nd            27.100000     2011-06-16T20:12:35.02Z  
2012.9163   72775   43.4406  -70.2757  209.0    9.3    17.028     28.500     1009.5        356.520034    347.254706    392.520112    382.294031    27.100000     2011-06-16T20:12:54.98Z  
2013.2504   72795   43.4391  -70.2769  210.0    9.3    17.103     28.394     1009.4        356.510557    347.209707    392.457000    382.218302    27.100000     2011-06-16T20:13:15.02Z  
2013.5830   72815   43.4377  -70.2781  212.0    9.3    17.132     28.318     1009.4        356.321593    347.012869    392.266103    382.018297    27.100000     2011-06-16T20:13:34.98Z  
2013.9171   72835   43.4363  -70.2793  212.0    9.2    17.125     28.246     1009.4        356.195375    346.885966    392.120295    381.871916    27.100000     2011-06-16T20:13:55.03Z  
2014.2498   72855   43.4349  -70.2804  210.0    9.3    17.182     28.155     1009.4        355.751841    346.433745    392.238719    381.967152    27.100000     2011-06-16T20:14:14.99Z  
2014.5838   72875   43.4334  -70.2815  209.0    9.4    17.203     28.123     1009.4        355.559299    346.238601    nd            nd            27.100000     2011-06-16T20:14:35.03Z  
2014.9165   72895   43.4320  -70.2828  215.0    9.2    17.200     28.113     1009.4        nd            nd            nd            nd            27.100000     2011-06-16T20:14:54.99Z  
2015.2506   72915   43.4306  -70.2841  211.0    9.4    17.209     28.148     1009.5        nd            nd            392.714521    382.430260    27.100000     2011-06-16T20:15:15.04Z  
2015.5832   72935   43.4291  -70.2852  210.0    9.2    17.224     28.168     1009.5        nd            nd            392.422681    382.141427    27.100000     2011-06-16T20:15:34.99Z  
2015.9173   72955   43.4277  -70.2864  209.0    9.3    17.271     28.143     1009.5        nd            nd            392.581645    382.270534    27.100000     2011-06-16T20:15:55.04Z  
2016.2499   72975   43.4263  -70.2875  211.0    9.2    17.327     28.090     1009.5        nd            nd            392.630679    382.290876    27.100000     2011-06-16T20:16:14.99Z  
2016.5840   72995   43.4248  -70.2887  210.0    9.2    17.374     28.065     1009.5        nd            nd            392.941702    382.569541    27.100000     2011-06-16T20:16:35.04Z  
2016.9166   73015   43.4234  -70.2898  209.0    9.3    17.314     28.135     1009.5        nd            nd            nd            nd            27.100000     2011-06-16T20:16:55.00Z  
2017.2507   73035   43.4219  -70.2909  211.0    9.2    17.259     28.173     1009.5        nd            nd            392.791411    382.485011    27.100000     2011-06-16T20:17:15.04Z  
2017.5834   73055   43.4206  -70.2922  215.0    9.2    17.249     28.207     1009.5        nd            nd            392.680165    382.382171    27.100000     2011-06-16T20:17:35.00Z  
2017.9160   73075   43.4192  -70.2934  211.0    9.2    17.276     28.199     1009.5        nd            nd            392.520298    382.218982    27.100000     2011-06-16T20:17:54.96Z  
2018.2501   73095   43.4177  -70.2945  209.0    9.2    17.336     28.115     1009.5        nd            nd            nd            nd            27.100000     2011-06-16T20:18:15.01Z  
2018.5827   73115   43.4163  -70.2956  209.0    9.2    17.393     28.035     1009.4        nd            nd            392.569372    382.192757    27.100000     2011-06-16T20:18:34.96Z  
2018.9168   73135   43.4148  -70.2967  210.0    9.3    17.431     28.042     1009.4        nd            nd            392.607660    382.213522    27.100000     2011-06-16T20:18:55.01Z  
2019.2494   73155   43.4134  -70.2979  211.0    9.3    17.450     28.073     1009.4        nd            nd            392.696145    382.287361    27.100000     2011-06-16T20:19:14.96Z  
2019.5835   73175   43.4120  -70.2991  210.0    9.3    17.445     28.106     1009.4        nd            nd            392.598943    382.191326    27.100000     2011-06-16T20:19:35.01Z  
2019.9162   73195   43.4105  -70.3002  210.0    9.2    17.439     28.133     1009.4        nd            nd            392.733788    382.322211    27.100000     2011-06-16T20:19:54.97Z  
2020.2502   73215   43.4090  -70.3013  209.0    9.3    17.443     28.170     1009.4        nd            nd            392.590753    382.185573    27.100000     2011-06-16T20:20:15.01Z  
2020.5829   73235   43.4076  -70.3025  211.0    9.2    17.435     28.211     1009.4        nd            nd            392.314242    381.919232    27.100000     2011-06-16T20:20:34.97Z  
2020.9170   73255   43.4063  -70.3038  215.0    9.3    17.405     28.214     1009.4        nd            nd            392.501370    382.113167    27.100000     2011-06-16T20:20:55.02Z  
2021.2496   73275   43.4048  -70.3049  210.0    9.2    17.417     28.224     1009.4        nd            nd            392.217587    381.831569    27.100000     2011-06-16T20:21:14.98Z  
2021.5837   73295   43.4034  -70.3061  210.0    9.2    17.411     28.255     1009.4        nd            nd            392.220374    381.831758    27.100000     2011-06-16T20:21:35.02Z  
2021.9163   73315   43.4019  -70.3072  208.0    9.2    17.370     28.283     1009.4        nd            nd            nd            nd            27.100000     2011-06-16T20:21:54.98Z  
2022.2504   73335   43.4005  -70.3082  208.0    9.2    17.366     28.276     1009.4        nd            nd            391.949889    381.594157    27.100000     2011-06-16T20:22:15.02Z  
2022.5830   73355   43.3991  -70.3094  210.0    9.1    17.358     28.243     1009.4        nd            nd            nd            nd            27.100000     2011-06-16T20:22:34.98Z  
2022.9171   73375   43.3976  -70.3105  211.0    9.2    17.355     28.232     1009.4        nd            nd            391.985241    381.632808    27.100000     2011-06-16T20:22:55.03Z  
2023.2498   73395   43.3962  -70.3117  211.0    9.1    17.343     28.246     1009.4        nd            nd            392.016532    381.667450    27.100000     2011-06-16T20:23:14.99Z  
2023.5838   73415   43.3948  -70.3129  211.0    9.1    17.282     28.309     1009.4        nd            nd            391.870039    381.544499    27.100000     2011-06-16T20:23:35.03Z  
2023.9165   73435   43.3934  -70.3140  211.0    9.0    17.231     28.328     1009.4        nd            nd            nd            nd            27.100000     2011-06-16T20:23:54.99Z  
2024.2506   73455   43.3920  -70.3152  211.0    9.2    17.287     28.262     1009.4        nd            nd            391.506777    381.178269    27.100000     2011-06-16T20:24:15.04Z  
2024.5832   73475   43.3906  -70.3163  210.0    9.1    17.315     28.233     1009.4        nd            nd            391.580532    381.240861    27.100000     2011-06-16T20:24:34.99Z  
2024.9173   73495   43.3892  -70.3174  209.0    9.1    17.308     28.232     1009.4        nd            nd            391.396738    381.065723    27.100000     2011-06-16T20:24:55.04Z  
2025.2499   73515   43.3877  -70.3185  208.0    9.1    17.294     28.258     1009.4        nd            nd            391.325631    381.004741    27.100000     2011-06-16T20:25:14.99Z  
2025.5840   73535   43.3863  -70.3196  209.0    9.1    17.218     28.315     1009.4        nd            nd            391.313755    381.019730    27.100000     2011-06-16T20:25:35.04Z  
2025.9166   73555   43.3849  -70.3207  211.0    9.1    17.147     28.353     1009.4        nd            nd            391.113942    380.864980    27.100000     2011-06-16T20:25:55.00Z  
2026.2493   73575   43.3835  -70.3219  211.0    9.2    17.096     28.391     1009.4        nd            nd            390.926795    380.716726    27.100000     2011-06-16T20:26:14.96Z  
2026.5834   73595   43.3821  -70.3230  210.0    9.2    17.050     28.434     1009.4        nd            nd            391.093920    380.892075    27.100000     2011-06-16T20:26:35.00Z  
2026.9160   73615   43.3806  -70.3242  211.0    9.2    17.016     28.467     1009.4        nd            nd            390.666024    380.485716    27.100000     2011-06-16T20:26:54.96Z  
2027.2501   73635   43.3793  -70.3254  214.0    9.2    16.939     28.482     1009.4        nd            nd            390.759162    380.617293    27.100000     2011-06-16T20:27:15.01Z  
2027.5827   73655   43.3779  -70.3267  212.0    9.2    16.853     28.506     1009.4        nd            nd            nd            nd            27.100000     2011-06-16T20:27:34.96Z  
2027.9168   73675   43.3765  -70.3279  213.0    9.1    16.840     28.533     1009.4        nd            nd            nd            nd            27.100000     2011-06-16T20:27:55.01Z  
2028.2494   73695   43.3751  -70.3291  212.0    9.1    16.823     28.557     1009.5        nd            nd            nd            nd            27.100000     2011-06-16T20:28:14.96Z  
2028.5835   73715   43.3737  -70.3302  209.0    9.2    16.775     28.574     1009.5        nd            nd            nd            nd            27.100000     2011-06-16T20:28:35.01Z  
2028.9162   73735   43.3722  -70.3312  207.0    9.2    16.751     28.582     1009.5        nd            nd            nd            nd            27.100000     2011-06-16T20:28:54.97Z  
2029.2502   73755   43.3707  -70.3323  210.0    9.2    16.693     28.607     1009.5        nd            nd            390.438107    380.432458    27.100000     2011-06-16T20:29:15.01Z  
2029.5829   73775   43.3693  -70.3334  210.0    9.2    16.587     28.644     1009.5        nd            nd            390.480121    380.541748    27.100000     2011-06-16T20:29:34.97Z  
2029.9170   73795   43.3679  -70.3346  210.0    9.2    16.476     28.691     1009.5        nd            nd            390.580575    380.667099    27.100000     2011-06-16T20:29:55.02Z  
2030.2496   73815   43.3664  -70.3357  210.0    9.2    16.371     28.757     1009.4        nd            nd            nd            nd            27.100000     2011-06-16T20:30:14.98Z  
2030.5837   73835   43.3650  -70.3369  212.0    9.2    16.327     28.782     1009.4        nd            nd            nd            nd            27.100000     2011-06-16T20:30:35.02Z  
2030.9163   73855   43.3636  -70.3381  210.0    9.1    16.284     28.794     1009.4        nd            nd            nd            nd            27.100000     2011-06-16T20:30:54.98Z  
2031.2504   73875   43.3622  -70.3392  209.0    9.2    16.268     28.792     1009.4        nd            nd            390.651676    380.821679    27.100000     2011-06-16T20:31:15.02Z  
2031.5830   73895   43.3607  -70.3403  209.0    9.2    16.288     28.782     1009.4        nd            nd            391.010518    381.174158    27.100000     2011-06-16T20:31:34.98Z  
2031.9171   73915   43.3593  -70.3414  210.0    9.1    16.281     28.774     1009.4        nd            nd            390.488656    380.653117    27.100000     2011-06-16T20:31:55.03Z  
2032.2498   73935   43.3579  -70.3426  212.0    9.1    16.239     28.788     1009.4        nd            nd            390.444576    380.630624    27.100000     2011-06-16T20:32:14.99Z  
2032.5838   73955   43.3565  -70.3438  212.0    9.1    16.222     28.796     1009.4        nd            nd            390.368684    380.559387    27.100000     2011-06-16T20:32:35.03Z  
2032.9165   73975   43.3551  -70.3449  210.0    9.1    16.257     28.808     1009.4        nd            nd            390.141350    380.327100    27.100000     2011-06-16T20:32:54.99Z  
2033.2506   73995   43.3537  -70.3460  210.0    9.1    16.316     28.812     1009.4        nd            nd            390.287383    380.445428    27.100000     2011-06-16T20:33:15.04Z  
2033.5832   74015   43.3523  -70.3471  210.0    9.1    16.342     28.817     1009.4        nd            nd            390.183350    380.328761    27.100000     2011-06-16T20:33:34.99Z  
2033.9173   74035   43.3509  -70.3483  210.0    9.2    16.342     28.841     1009.4        nd            nd            390.199014    380.344935    27.100000     2011-06-16T20:33:55.04Z  
2034.2499   74055   43.3495  -70.3494  210.0    9.0    16.320     28.872     1009.4        nd            nd            390.246252    380.399784    27.100000     2011-06-16T20:34:14.99Z  
2034.5840   74075   43.3481  -70.3505  211.0    9.1    16.297     28.890     1009.4        nd            nd            390.071275    380.235161    27.100000     2011-06-16T20:34:35.04Z  
2034.9166   74095   43.3467  -70.3517  212.0    9.1    16.276     28.901     1009.4        nd            nd            389.767211    379.933992    27.100000     2011-06-16T20:34:55.00Z  
2035.2493   74115   43.3453  -70.3529  212.0    9.1    16.344     28.921     1009.4        nd            nd            389.851168    379.974257    27.100000     2011-06-16T20:35:14.96Z  
2035.5834   74135   43.3438  -70.3540  212.0    9.1    16.417     28.942     1009.3        nd            nd            389.710055    379.808420    27.100000     2011-06-16T20:35:35.00Z  
2035.9160   74155   43.3424  -70.3552  211.0    9.1    16.450     28.969     1009.4        nd            nd            389.434523    379.533295    27.100000     2011-06-16T20:35:54.96Z  
2036.2501   74175   43.3410  -70.3563  210.0    9.1    16.507     29.041     1009.4        nd            nd            389.421102    379.500367    27.100000     2011-06-16T20:36:15.01Z  
2036.5827   74195   43.3396  -70.3574  208.0    9.1    16.557     29.101     1009.4        nd            nd            nd            nd            27.100000     2011-06-16T20:36:34.96Z  
2036.9168   74215   43.3381  -70.3583  205.0    9.1    16.585     29.123     1009.4        nd            nd            389.245898    379.282841    27.100000     2011-06-16T20:36:55.01Z  
2037.2494   74235   43.3366  -70.3594  209.0    9.1    16.607     29.133     1009.4        nd            nd            389.363803    379.399552    27.100000     2011-06-16T20:37:14.96Z  
2037.5835   74255   43.3353  -70.3606  213.0    9.1    16.575     29.136     1009.4        nd            nd            389.394497    379.433954    27.100000     2011-06-16T20:37:35.01Z  
2037.9162   74275   43.3339  -70.3618  213.0    9.2    16.500     29.134     1009.4        nd            nd            nd            nd            27.100000     2011-06-16T20:37:54.97Z  
2038.2502   74295   43.3325  -70.3630  213.0    9.2    16.415     29.131     1009.4        nd            nd            nd            nd            27.100000     2011-06-16T20:38:15.01Z  
2038.5829   74315   43.3311  -70.3642  212.0    9.2    16.324     29.118     1009.4        nd            nd            nd            nd            27.100000     2011-06-16T20:38:34.97Z  
2038.9170   74335   43.3297  -70.3654  213.0    9.1    16.231     29.088     1009.4        355.859315    346.916991    nd            nd            27.100000     2011-06-16T20:38:55.02Z  
2039.2496   74355   43.3283  -70.3667  213.0    9.1    16.164     29.051     1009.3        355.796558    346.859146    nd            nd            27.100000     2011-06-16T20:39:14.98Z  
2039.5837   74375   43.3269  -70.3678  210.0    9.2    16.110     29.045     1009.4        355.847187    346.933612    nd            nd            27.100000     2011-06-16T20:39:35.02Z  
2039.9163   74395   43.3255  -70.3690  211.0    9.0    16.060     29.052     1009.3        355.788184    346.886024    nd            nd            27.100000     2011-06-16T20:39:54.98Z  
2040.2504   74415   43.3240  -70.3700  208.0    9.1    16.066     29.068     1009.3        355.763469    346.853802    nd            nd            27.100000     2011-06-16T20:40:15.02Z  
2040.5830   74435   43.3226  -70.3711  211.0    9.1    16.053     29.073     1009.3        355.296842    346.400173    nd            nd            27.100000     2011-06-16T20:40:34.98Z  
2040.9171   74455   43.3212  -70.3722  210.0    9.1    16.093     29.088     1009.3        354.759559    345.863695    nd            nd            27.100000     2011-06-16T20:40:55.03Z  
2041.2498   74475   43.3198  -70.3733  209.0    9.1    16.176     29.101     1009.3        354.479734    345.551352    nd            nd            27.100000     2011-06-16T20:41:14.99Z  
2041.5838   74495   43.3183  -70.3744  210.0    9.2    16.244     29.112     1009.3        354.228373    345.277133    nd            nd            27.100000     2011-06-16T20:41:35.03Z  
2041.9165   74515   43.3169  -70.3756  211.0    9.1    16.293     29.114     1009.3        354.327160    345.351720    nd            nd            27.100000     2011-06-16T20:41:54.99Z  
2042.2506   74535   43.3155  -70.3767  211.0    9.1    16.322     29.128     1009.3        354.593804    345.600674    nd            nd            27.100000     2011-06-16T20:42:15.04Z  
2042.5832   74555   43.3141  -70.3779  211.0    9.1    16.304     29.130     1009.3        355.048998    346.051580    nd            nd            27.100000     2011-06-16T20:42:34.99Z  
2042.9173   74575   43.3127  -70.3790  211.0    9.1    16.237     29.127     1009.3        355.399330    346.420108    nd            nd            27.100000     2011-06-16T20:42:55.04Z  
2043.2499   74595   43.3113  -70.3801  210.0    9.1    16.211     29.128     1009.3        355.856516    346.878143    nd            nd            27.100000     2011-06-16T20:43:14.99Z  
2043.5840   74615   43.3098  -70.3812  209.0    9.1    16.139     29.122     1009.3        356.119697    347.154447    nd            nd            27.100000     2011-06-16T20:43:35.04Z  
2043.9166   74635   43.3084  -70.3823  210.0    9.0    16.019     29.111     1009.2        356.310235    347.382358    nd            nd            27.100000     2011-06-16T20:43:55.00Z  
2044.2493   74655   43.3070  -70.3835  211.0    9.1    15.923     29.118     1009.3        356.305156    347.424089    nd            nd            27.100000     2011-06-16T20:44:14.96Z  
2044.5834   74675   43.3056  -70.3846  211.0    9.1    15.864     29.128     1009.3        356.314194    347.453319    nd            nd            27.100000     2011-06-16T20:44:35.00Z  
2044.9160   74695   43.3042  -70.3858  209.0    9.3    15.791     29.134     1009.3        356.317383    347.485886    nd            nd            27.100000     2011-06-16T20:44:54.96Z  
2045.2501   74715   43.3028  -70.3869  213.0    9.1    15.687     29.140     1009.3        356.157353    347.380172    nd            nd            27.100000     2011-06-16T20:45:15.01Z  
2045.5827   74735   43.3014  -70.3882  215.0    9.0    15.594     29.145     1009.3        355.769459    347.036505    nd            nd            27.100000     2011-06-16T20:45:34.96Z  
2045.9168   74755   43.3001  -70.3894  212.0    9.1    15.526     29.147     1009.3        355.427059    346.722932    nd            nd            27.100000     2011-06-16T20:45:55.01Z  
2046.2494   74775   43.2986  -70.3906  210.0    9.2    15.465     29.149     1009.3        354.562085    345.904182    nd            nd            27.100000     2011-06-16T20:46:14.96Z  
2046.5835   74795   43.2972  -70.3917  211.0    9.1    15.417     29.154     1009.3        353.871925    345.253796    nd            nd            27.100000     2011-06-16T20:46:35.01Z  
2046.9162   74815   43.2958  -70.3929  210.0    9.1    15.364     29.158     1009.3        353.083885    344.505723    nd            nd            27.100000     2011-06-16T20:46:54.97Z  
2047.2502   74835   43.2944  -70.3940  210.0    9.1    15.311     29.158     1009.3        352.252038    343.708023    nd            nd            27.100000     2011-06-16T20:47:15.01Z  
2047.5829   74855   43.2930  -70.3951  209.0    9.0    15.271     29.158     1009.3        351.462587    342.963830    nd            nd            27.100000     2011-06-16T20:47:34.97Z  
2047.9170   74875   43.2915  -70.3961  208.0    9.1    15.234     29.158     1009.3        350.720407    342.240870    nd            nd            27.100000     2011-06-16T20:47:55.02Z  
2048.2496   74895   43.2901  -70.3972  207.0    9.2    15.194     29.158     1009.3        350.062846    341.623135    nd            nd            27.100000     2011-06-16T20:48:14.98Z  
2048.5837   74915   43.2887  -70.3983  211.0    9.0    15.151     29.157     1009.3        349.387595    340.980309    nd            nd            27.100000     2011-06-16T20:48:35.02Z  
2048.9163   74935   43.2873  -70.3995  211.0    9.1    15.113     29.159     1009.3        348.606025    340.227250    nd            nd            27.100000     2011-06-16T20:48:54.98Z  
2049.2504   74955   43.2859  -70.4006  210.0    9.1    15.099     29.164     1009.3        348.091705    339.732195    nd            nd            27.100000     2011-06-16T20:49:15.02Z  
2049.5830   74975   43.2844  -70.4017  210.0    9.1    15.092     29.171     1009.3        347.404536    339.063365    nd            nd            27.100000     2011-06-16T20:49:34.98Z  
2049.9171   74995   43.2830  -70.4028  211.0    9.1    15.066     29.183     1009.3        346.822056    338.502330    nd            nd            27.100000     2011-06-16T20:49:55.03Z  
2050.2498   75015   43.2816  -70.4040  211.0    9.2    15.008     29.202     1009.3        346.531232    338.241950    nd            nd            27.100000     2011-06-16T20:50:14.99Z  
2050.5838   75035   43.2802  -70.4052  212.0    9.2    14.934     29.226     1009.3        346.066901    337.813527    nd            nd            27.100000     2011-06-16T20:50:35.03Z  
2050.9165   75055   43.2788  -70.4063  210.0    9.3    14.868     29.260     1009.3        345.781528    337.560788    nd            nd            27.100000     2011-06-16T20:50:54.99Z  
2051.2506   75075   43.2773  -70.4075  211.0    9.1    14.778     29.290     1009.4        345.323328    337.151145    nd            nd            27.100000     2011-06-16T20:51:15.04Z  
2051.5832   75095   43.2759  -70.4086  209.0    9.2    14.744     29.342     1009.3        344.705272    336.552839    nd            nd            27.100000     2011-06-16T20:51:34.99Z  
2051.9173   75115   43.2745  -70.4097  210.0    9.1    14.804     29.518     1009.4        344.108303    335.957569    nd            nd            27.100000     2011-06-16T20:51:55.04Z  
2052.2499   75135   43.2730  -70.4108  210.0    9.1    15.018     29.962     1009.4        343.355229    335.151326    nd            nd            27.100000     2011-06-16T20:52:14.99Z  
2052.5840   75155   43.2716  -70.4119  211.0    9.1    15.363     30.290     1009.4        343.125744    334.806237    nd            nd            27.100000     2011-06-16T20:52:35.04Z  
2052.9166   75175   43.2702  -70.4131  211.0    9.0    15.567     30.433     1009.4        343.631208    335.232543    387.202373    377.732865    27.100000     2011-06-16T20:52:55.00Z  
2053.2507   75195   43.2688  -70.4142  209.0    9.1    15.617     30.470     1009.4        344.547986    336.110720    387.042068    377.564151    27.100000     2011-06-16T20:53:15.04Z  
2053.5834   75215   43.2674  -70.4153  209.0    9.2    15.627     30.491     1009.4        345.580968    337.115631    387.093464    377.611177    27.100000     2011-06-16T20:53:35.00Z  
2053.9160   75235   43.2660  -70.4164  211.0    9.2    15.624     30.495     1009.4        346.368839    337.891687    386.920315    377.450633    27.100000     2011-06-16T20:53:54.96Z  
2054.2501   75255   43.2645  -70.4176  211.0    9.2    15.613     30.497     1009.4        346.964074    338.487688    386.878596    377.423806    27.100000     2011-06-16T20:54:15.01Z  
2054.5827   75275   43.2631  -70.4186  207.0    9.2    15.592     30.503     1009.4        347.345768    338.860614    386.936326    377.483976    27.100000     2011-06-16T20:54:34.96Z  
2054.9168   75295   43.2616  -70.4197  209.0    9.2    15.580     30.507     1009.4        347.590960    339.106748    386.938649    377.493695    27.100000     2011-06-16T20:54:55.01Z  
2055.2494   75315   43.2602  -70.4209  211.0    9.2    15.564     30.512     1009.4        347.764680    339.282039    386.715147    377.281411    27.100000     2011-06-16T20:55:14.96Z  
2055.5835   75335   43.2588  -70.4221  212.0    9.2    15.515     30.515     1009.4        347.863679    339.402629    386.721344    377.315111    27.100000     2011-06-16T20:55:35.01Z  
2055.9162   75355   43.2574  -70.4233  212.0    9.2    15.463     30.523     1009.4        347.750890    339.311140    386.651305    377.267404    27.100000     2011-06-16T20:55:54.97Z  
2056.2502   75375   43.2560  -70.4244  211.0    9.2    15.446     30.532     1009.4        347.627816    339.197328    386.472074    377.100275    27.100000     2011-06-16T20:56:15.01Z  
2056.5829   75395   43.2545  -70.4256  210.0    9.2    15.448     30.552     1009.4        347.366879    338.936095    386.583190    377.199935    27.100000     2011-06-16T20:56:34.97Z  
2056.9170   75415   43.2531  -70.4268  213.0    9.3    15.501     30.594     1009.4        346.874664    338.442467    386.516554    377.120561    27.100000     2011-06-16T20:56:55.02Z  
2057.2496   75435   43.2517  -70.4280  210.0    9.3    15.599     30.638     1009.4        346.575146    338.113215    387.019008    377.605197    27.100000     2011-06-16T20:57:14.98Z  
2057.5837   75455   43.2502  -70.4292  211.0    9.4    15.662     30.655     1009.4        346.329786    337.848518    nd            nd            27.100000     2011-06-16T20:57:35.02Z  
2057.9163   75475   43.2488  -70.4304  214.0    9.5    15.643     30.660     1009.4        346.396619    337.922971    386.521091    377.068320    27.100000     2011-06-16T20:57:54.98Z  
2058.2504   75495   43.2474  -70.4316  211.0    9.2    15.599     30.674     1009.4        346.552756    338.086497    386.432427    376.991854    27.100000     2011-06-16T20:58:15.02Z  
2058.5830   75515   43.2460  -70.4328  212.0    9.3    15.590     30.691     1009.4        346.802169    338.342131    386.553862    377.122825    27.100000     2011-06-16T20:58:34.98Z  
2058.9171   75535   43.2445  -70.4339  206.0    9.3    15.602     30.701     1009.5        346.891391    338.428819    386.478410    377.051656    27.100000     2011-06-16T20:58:55.03Z  
2059.2498   75555   43.2430  -70.4348  205.0    9.3    15.595     30.436     1009.5        346.883217    338.423817    386.272144    376.834528    27.100000     2011-06-16T20:59:14.99Z  
2059.5838   75575   43.2415  -70.4359  208.0    9.3    15.460     29.839     1009.5        346.632605    338.228977    386.504536    377.137162    27.100000     2011-06-16T20:59:35.03Z  
2059.9006   75594   43.2401  -70.4370  210.0    9.3    15.437     29.625     1009.5        346.597674    338.199034    386.660617    377.289302    26.983333     2011-06-16T20:59:54.04Z  
2100.2506   75615   43.2385  -70.4382  210.0    9.4    15.430     29.598     1009.5        347.034341    338.627926    386.722009    377.352631    26.400000     2011-06-16T21:00:15.04Z  
2100.5832   75635   43.2371  -70.4395  213.0    9.4    15.395     29.573     1009.5        347.650172    339.239090    386.703130    377.347144    26.400000     2011-06-16T21:00:34.99Z  
2100.9173   75655   43.2358  -70.4407  215.0    9.2    15.347     29.550     1009.4        348.311235    339.899625    386.544895    377.208329    26.400000     2011-06-16T21:00:55.04Z  
2101.2499   75675   43.2344  -70.4420  212.0    9.3    15.257     29.556     1009.4        349.287458    340.885251    386.862080    377.559969    26.400000     2011-06-16T21:01:14.99Z  
2101.5840   75695   43.2329  -70.4431  209.0    9.3    15.186     29.556     1009.5        349.824455    341.438631    386.607691    377.340058    26.400000     2011-06-16T21:01:35.04Z  
2101.9166   75715   43.2314  -70.4442  209.0    9.3    15.096     29.548     1009.5        350.459749    342.092305    386.686294    377.453870    26.400000     2011-06-16T21:01:55.00Z  
2102.2507   75735   43.2300  -70.4454  212.0    9.3    15.022     29.537     1009.5        351.273850    342.923855    386.696402    377.504341    26.400000     2011-06-16T21:02:15.04Z  
2102.5834   75755   43.2285  -70.4466  211.0    9.4    14.983     29.536     1009.5        351.708978    343.371884    386.600092    377.435866    26.400000     2011-06-16T21:02:35.00Z  
2102.9160   75775   43.2271  -70.4478  211.0    9.3    14.935     29.537     1009.5        352.302959    343.970785    386.498460    377.357487    26.400000     2011-06-16T21:02:54.96Z  
2103.2501   75795   43.2257  -70.4490  211.0    9.3    14.874     29.537     1009.5        352.902315    344.582747    386.647271    377.521314    26.400000     2011-06-16T21:03:15.01Z  
2103.5827   75815   43.2242  -70.4502  211.0    9.4    14.807     29.539     1009.5        353.136164    344.832153    nd            nd            26.400000     2011-06-16T21:03:34.96Z  
2103.9168   75835   43.2227  -70.4513  209.0    9.4    14.764     29.519     1009.6        353.229726    344.944933    nd            nd            26.400000     2011-06-16T21:03:55.01Z  
2104.2494   75855   43.2212  -70.4524  209.0    9.5    14.699     29.500     1009.5        353.428511    345.157728    386.542531    377.496694    26.400000     2011-06-16T21:04:14.96Z  
2104.5835   75875   43.2198  -70.4536  210.0    9.4    14.585     29.500     1009.5        353.502579    345.267861    nd            nd            26.400000     2011-06-16T21:04:35.01Z  
2104.9162   75895   43.2183  -70.4547  211.0    9.4    14.503     29.493     1009.5        353.347379    345.148652    nd            nd            26.400000     2011-06-16T21:04:54.97Z  
2105.2502   75915   43.2169  -70.4559  211.0    9.4    14.482     29.478     1009.5        353.183430    344.992485    386.725027    377.743397    26.400000     2011-06-16T21:05:15.01Z  
2105.5829   75935   43.2154  -70.4570  208.0    9.4    14.546     29.453     1009.5        352.858920    344.653891    386.519288    377.537103    26.400000     2011-06-16T21:05:34.97Z  
2105.9170   75955   43.2139  -70.4582  211.0    9.3    14.699     29.415     1009.5        352.663138    344.407010    nd            nd            26.400000     2011-06-16T21:05:55.02Z  
2106.2496   75975   43.2125  -70.4594  213.0    9.3    14.836     29.382     1009.5        352.301844    344.001309    386.734201    377.606834    26.400000     2011-06-16T21:06:14.98Z  
2106.5837   75995   43.2111  -70.4606  212.0    9.3    14.964     29.335     1009.5        351.996811    343.659614    386.499809    377.345347    26.400000     2011-06-16T21:06:35.02Z  
2106.9163   76015   43.2097  -70.4618  210.0    9.2    15.081     29.309     1009.5        351.623158    343.250696    386.735777    377.527198    26.400000     2011-06-16T21:06:54.98Z  
2107.2504   76035   43.2082  -70.4629  210.0    9.3    15.190     29.288     1009.5        351.154963    342.750225    386.680975    377.425885    26.400000     2011-06-16T21:07:15.02Z  
2107.5830   76055   43.2067  -70.4640  209.0    9.3    15.292     29.255     1009.5        350.853893    342.413134    386.793165    377.484758    26.400000     2011-06-16T21:07:34.98Z  
2107.9171   76075   43.2053  -70.4651  209.0    9.4    15.352     29.242     1009.5        350.482717    342.021349    386.295039    376.966013    26.400000     2011-06-16T21:07:55.03Z  
2108.2498   76095   43.2038  -70.4663  209.0    9.3    15.420     29.240     1009.4        349.945322    341.461093    386.030009    376.653422    26.400000     2011-06-16T21:08:14.99Z  
2108.5838   76115   43.2023  -70.4673  209.0    9.3    15.478     29.242     1009.4        349.667251    341.156652    386.415352    377.010282    26.400000     2011-06-16T21:08:35.03Z  
2108.9165   76135   43.2009  -70.4685  210.0    9.3    15.504     29.255     1009.4        349.300053    340.795120    386.214381    376.810587    26.400000     2011-06-16T21:08:54.99Z  
2109.2506   76155   43.1994  -70.4696  210.0    9.3    15.493     29.266     1009.4        348.825822    340.338973    386.456784    377.054327    26.400000     2011-06-16T21:09:15.04Z  
2109.5832   76175   43.1980  -70.4709  214.0    9.2    15.510     29.244     1009.4        348.387277    339.900225    386.466057    377.051314    26.400000     2011-06-16T21:09:34.99Z  
2109.9173   76195   43.1967  -70.4721  215.0    9.2    15.565     29.230     1009.4        347.755660    339.268928    386.474788    377.043086    26.400000     2011-06-16T21:09:55.04Z  
2110.2499   76215   43.1953  -70.4734  212.0    9.3    15.669     29.198     1009.4        347.035137    338.525968    386.319611    376.847142    26.400000     2011-06-16T21:10:14.99Z  
2110.5840   76235   43.1939  -70.4746  213.0    9.2    15.816     29.143     1009.4        346.291075    337.746072    386.167223    376.638175    26.400000     2011-06-16T21:10:35.04Z  
2110.9166   76255   43.1925  -70.4759  215.0    9.2    15.955     29.109     1009.4        345.588591    337.007396    386.201730    376.612022    26.400000     2011-06-16T21:10:55.00Z  
2111.2493   76275   43.1912  -70.4772  216.0    9.3    16.144     29.066     1009.4        344.843256    336.213324    386.020472    376.359975    26.400000     2011-06-16T21:11:14.96Z  
2111.5834   76295   43.1898  -70.4785  216.0    9.1    16.275     29.047     1009.4        343.955870    335.298323    386.041221    376.332912    26.400000     2011-06-16T21:11:35.00Z  
2111.9160   76315   43.1885  -70.4799  216.0    9.2    16.381     29.029     1009.4        343.188118    334.511281    nd            nd            26.400000     2011-06-16T21:11:54.96Z  
2112.2501   76335   43.1872  -70.4813  221.0    9.2    16.444     29.021     1009.4        342.629975    333.935073    385.968142    376.171738    26.400000     2011-06-16T21:12:15.01Z  
2112.5827   76355   43.1860  -70.4829  224.0    9.2    16.501     29.005     1009.4        342.159370    333.448314    385.897987    376.073324    26.400000     2011-06-16T21:12:34.96Z  
2112.9168   76375   43.1849  -70.4845  228.0    9.0    16.521     29.002     1009.4        341.662484    332.951321    386.209101    376.362095    26.400000     2011-06-16T21:12:55.01Z  
2113.2494   76395   43.1838  -70.4861  222.0    9.1    16.543     29.002     1009.4        341.359910    332.647333    386.181399    376.323746    26.400000     2011-06-16T21:13:14.96Z  
2113.5835   76415   43.1823  -70.4871  205.0    9.1    16.505     29.000     1009.3        341.146558    332.446180    385.830640    375.994123    26.400000     2011-06-16T21:13:35.01Z  
2113.9162   76435   43.1807  -70.4877  197.0    9.1    16.476     29.001     1009.3        340.941014    332.254211    nd            nd            26.400000     2011-06-16T21:13:54.97Z  
2114.2502   76455   43.1792  -70.4883  196.0    9.1    16.450     29.009     1009.3        341.097020    332.404562    nd            nd            26.400000     2011-06-16T21:14:15.01Z  
2114.5829   76475   43.1776  -70.4889  195.0    9.2    16.478     28.994     1009.3        340.972824    332.268033    nd            nd            26.400000     2011-06-16T21:14:34.97Z  
2114.9170   76495   43.1760  -70.4895  196.0    9.2    16.515     28.985     1009.3        341.065464    332.348969    385.926723    376.073341    26.400000     2011-06-16T21:14:55.02Z  
2115.2496   76515   43.1744  -70.4902  197.0    9.2    16.530     28.980     1009.2        341.060741    332.314496    386.031330    376.134708    26.400000     2011-06-16T21:15:14.98Z  
2115.5837   76535   43.1728  -70.4909  199.0    9.1    16.568     28.964     1009.3        341.325423    332.596426    385.969194    376.098425    26.400000     2011-06-16T21:15:35.02Z  
2115.9163   76555   43.1713  -70.4918  204.0    9.1    16.610     28.948     1009.3        341.416205    332.671071    385.776374    375.894924    26.400000     2011-06-16T21:15:54.98Z  
2116.2504   76575   43.1698  -70.4927  205.0    9.2    16.656     28.931     1009.3        341.619599    332.837387    385.683604    375.768548    26.400000     2011-06-16T21:16:15.02Z  
2116.5830   76595   43.1684  -70.4937  206.0    9.2    16.691     28.926     1009.2        341.755068    332.935545    385.908750    375.949709    26.400000     2011-06-16T21:16:34.98Z  
2116.9171   76615   43.1669  -70.4947  205.0    9.2    16.687     28.930     1009.3        341.863950    333.070837    385.475898    375.553939    26.400000     2011-06-16T21:16:55.03Z  
2117.2498   76635   43.1654  -70.4956  206.0    9.1    16.732     28.916     1009.4        342.174013    333.370147    385.718608    375.785899    26.400000     2011-06-16T21:17:14.99Z  
2117.5838   76655   43.1639  -70.4966  205.0    9.2    16.773     28.906     1009.4        342.369003    333.541437    385.560019    375.627094    26.400000     2011-06-16T21:17:35.03Z  
2117.9165   76675   43.1624  -70.4976  209.0    9.1    16.843     28.884     1009.4        342.596425    333.738381    nd            nd            26.400000     2011-06-16T21:17:54.99Z  
2118.2506   76695   43.1610  -70.4988  211.0    9.1    16.877     28.881     1009.4        342.772979    333.898384    nd            nd            26.400000     2011-06-16T21:18:15.04Z  
2118.5832   76715   43.1596  -70.4999  211.0    9.0    16.897     28.878     1009.4        342.816002    333.931383    385.539248    375.547326    26.400000     2011-06-16T21:18:34.99Z  
2118.9173   76735   43.1582  -70.5010  210.0    9.0    16.946     28.860     1009.4        343.087974    334.174953    385.344723    375.334777    26.400000     2011-06-16T21:18:55.04Z  
2119.2499   76755   43.1568  -70.5020  208.0    9.2    16.963     28.847     1009.4        342.953010    334.034963    nd            nd            26.400000     2011-06-16T21:19:14.99Z  
2119.5840   76775   43.1553  -70.5031  210.0    9.2    16.956     28.832     1009.3        343.058132    334.132347    nd            nd            26.400000     2011-06-16T21:19:35.04Z  
2119.9166   76795   43.1539  -70.5042  209.0    9.1    16.955     28.826     1009.3        343.191484    334.237377    nd            nd            26.400000     2011-06-16T21:19:55.00Z  
2120.2493   76815   43.1525  -70.5054  211.0    9.0    16.930     28.834     1009.2        343.303372    334.340374    384.627602    374.583949    26.400000     2011-06-16T21:20:14.96Z  
2120.5834   76835   43.1511  -70.5065  210.0    9.1    16.899     28.851     1009.2        343.577221    334.607445    384.234601    374.204935    26.400000     2011-06-16T21:20:35.00Z  
2120.9160   76855   43.1497  -70.5076  210.0    9.1    16.884     28.857     1009.2        343.807578    334.834121    384.195630    374.167976    26.400000     2011-06-16T21:20:54.96Z  
2121.2501   76875   43.1483  -70.5088  214.0    9.0    16.858     28.871     1009.1        343.951985    334.981244    384.104203    374.086181    26.400000     2011-06-16T21:21:15.01Z  
2121.5827   76895   43.1470  -70.5100  214.0    9.0    16.846     28.889     1009.1        344.469822    335.487492    384.225321    374.206105    26.400000     2011-06-16T21:21:34.96Z  
2121.9168   76915   43.1456  -70.5113  213.0    9.1    16.831     28.899     1009.1        344.784999    335.791287    384.463687    374.442002    26.400000     2011-06-16T21:21:55.01Z  
2122.2494   76935   43.1442  -70.5125  213.0    9.1    16.802     28.912     1009.1        345.351647    336.357438    384.046435    374.046391    26.400000     2011-06-16T21:22:14.96Z  
2122.5835   76955   43.1428  -70.5137  214.0    9.1    16.769     28.922     1009.1        345.948366    336.954818    384.376863    374.395943    26.400000     2011-06-16T21:22:35.01Z  
2122.9162   76975   43.1414  -70.5149  213.0    9.1    16.737     28.936     1009.1        346.470989    337.469703    384.551661    374.560993    26.400000     2011-06-16T21:22:54.97Z  
2123.2502   76995   43.1401  -70.5161  212.0    9.1    16.716     28.943     1009.1        347.339334    338.320774    384.494296    374.508821    26.400000     2011-06-16T21:23:15.01Z  
2123.5829   77015   43.1387  -70.5174  214.0    9.0    16.692     28.953     1009.1        356.354739    347.109352    nd            nd            26.400000     2011-06-16T21:23:34.97Z  
2123.9170   77035   43.1373  -70.5186  213.0    9.1    16.644     28.966     1009.1        358.577483    349.290153    nd            nd            26.400000     2011-06-16T21:23:55.02Z  
2124.2496   77055   43.1360  -70.5198  213.0    9.1    16.592     28.980     1009.1        351.736503    342.647941    nd            nd            26.400000     2011-06-16T21:24:14.98Z  
2124.5837   77075   43.1346  -70.5210  213.0    9.1    16.567     28.987     1009.1        351.226798    342.158825    nd            nd            26.400000     2011-06-16T21:24:35.02Z  
2124.9163   77095   43.1332  -70.5222  213.0    9.2    16.536     28.993     1009.1        350.862145    341.811974    385.276301    375.327168    26.400000     2011-06-16T21:24:54.98Z  
2125.2504   77115   43.1318  -70.5235  214.0    9.1    16.507     29.008     1009.1        350.638954    341.612815    nd            nd            26.400000     2011-06-16T21:25:15.02Z  
2125.5830   77135   43.1305  -70.5247  214.0    9.1    16.473     29.022     1009.1        350.609157    341.602063    nd            nd            26.400000     2011-06-16T21:25:34.98Z  
2125.9171   77155   43.1291  -70.5259  213.0    9.1    16.424     29.035     1009.1        350.945041    341.945774    384.960513    375.091000    26.400000     2011-06-16T21:25:55.03Z  
2126.2498   77175   43.1277  -70.5271  213.0    9.0    16.381     29.050     1009.1        351.197311    342.222078    385.036506    375.193827    26.400000     2011-06-16T21:26:14.99Z  
2126.5838   77195   43.1263  -70.5283  211.0    9.1    16.349     29.067     1009.1        351.471216    342.494090    nd            nd            26.400000     2011-06-16T21:26:35.03Z  
2126.9165   77215   43.1249  -70.5295  212.0    9.1    16.335     29.076     1009.1        351.754568    342.771251    384.912988    375.083868    26.400000     2011-06-16T21:26:54.99Z  
2127.2506   77235   43.1236  -70.5307  213.0    9.2    16.327     29.080     1009.1        351.801882    342.812779    384.969842    375.133195    26.400000     2011-06-16T21:27:15.04Z  
2127.5832   77255   43.1222  -70.5319  212.0    9.1    16.340     29.087     1009.1        352.051774    343.050719    384.799759    374.966668    26.400000     2011-06-16T21:27:34.99Z  
2127.9173   77275   43.1208  -70.5331  213.0    9.2    16.358     29.093     1009.1        351.989354    342.988729    384.727938    374.897484    26.400000     2011-06-16T21:27:55.04Z  
2128.2499   77295   43.1194  -70.5344  214.0    9.2    16.370     29.096     1009.1        351.901687    342.892282    384.477124    374.636901    26.400000     2011-06-16T21:28:14.99Z  
2128.5840   77315   43.1180  -70.5356  214.0    9.2    16.380     29.097     1009.1        351.770639    342.763876    nd            nd            26.400000     2011-06-16T21:28:35.04Z  
2128.9166   77335   43.1166  -70.5369  214.0    9.1    16.380     29.104     1009.1        351.640324    342.642805    383.633173    373.820970    26.400000     2011-06-16T21:28:55.00Z